<?xml version="1.0" encoding="utf-8"?>
<gpx xmlns:xsi="http://www.w3.org/2001/XMLSchema-instance" xmlns:xsd="http://www.w3.org/2001/XMLSchema" version="1.1" creator="Shapelink.com" xmlns="http://www.topografix.com/GPX/1/1" xmlns:gpxtpx="http://www.garmin.com/xmlschemas/TrackPointExtension/v1">
  <metadata>
    <name>Löpning 6.42 km, 2018-04-02</name>
    <desc></desc>
    <author><name>Bengt-Åke Forslund</name></author> 
    <time>2018-04-02T18:04:00Z</time>
  </metadata>
  <trk>
    <name>Löpning 6.42 km, 2018-04-02</name>
    <trkseg>
      <trkpt lat="62.637276278443" lon="17.966071321359">
        <ele>47</ele>
        <time>2018-04-02T18:04:00Z</time>
      </trkpt>
      <trkpt lat="62.637273428597" lon="17.966054306102">
        <ele>47</ele>
        <time>2018-04-02T18:04:01Z</time>
      </trkpt>
      <trkpt lat="62.637273260959" lon="17.96604441546">
        <ele>47</ele>
        <time>2018-04-02T18:04:02Z</time>
      </trkpt>
      <trkpt lat="62.637271081665" lon="17.966029579497">
        <ele>47</ele>
        <time>2018-04-02T18:04:03Z</time>
      </trkpt>
      <trkpt lat="62.637268650914" lon="17.966003176512">
        <ele>46.4</ele>
        <time>2018-04-02T18:04:04Z</time>
      </trkpt>
      <trkpt lat="62.637267058353" lon="17.965986245074">
        <ele>46.6</ele>
        <time>2018-04-02T18:04:05Z</time>
      </trkpt>
      <trkpt lat="62.637270075837" lon="17.965978282269">
        <ele>46.6</ele>
        <time>2018-04-02T18:04:06Z</time>
      </trkpt>
      <trkpt lat="62.637267728905" lon="17.965949448533">
        <ele>46.6</ele>
        <time>2018-04-02T18:04:07Z</time>
      </trkpt>
      <trkpt lat="62.637259347005" lon="17.965935953674">
        <ele>46.6</ele>
        <time>2018-04-02T18:04:08Z</time>
      </trkpt>
      <trkpt lat="62.637257419168" lon="17.965921704444">
        <ele>46.6</ele>
        <time>2018-04-02T18:04:09Z</time>
      </trkpt>
      <trkpt lat="62.63725306058" lon="17.965905359739">
        <ele>46.6</ele>
        <time>2018-04-02T18:04:10Z</time>
      </trkpt>
      <trkpt lat="62.63725054601" lon="17.965887506292">
        <ele>46.6</ele>
        <time>2018-04-02T18:04:11Z</time>
      </trkpt>
      <trkpt lat="62.637251635657" lon="17.965870826311">
        <ele>46.6</ele>
        <time>2018-04-02T18:04:12Z</time>
      </trkpt>
      <trkpt lat="62.637245181594" lon="17.965843752774">
        <ele>46.6</ele>
        <time>2018-04-02T18:04:13Z</time>
      </trkpt>
      <trkpt lat="62.637242583205" lon="17.965819864359">
        <ele>46.4</ele>
        <time>2018-04-02T18:04:14Z</time>
      </trkpt>
      <trkpt lat="62.637238643712" lon="17.965802262369">
        <ele>46.6</ele>
        <time>2018-04-02T18:04:15Z</time>
      </trkpt>
      <trkpt lat="62.637234452762" lon="17.965788432234">
        <ele>46.6</ele>
        <time>2018-04-02T18:04:16Z</time>
      </trkpt>
      <trkpt lat="62.637230261812" lon="17.965774266823">
        <ele>46.6</ele>
        <time>2018-04-02T18:04:17Z</time>
      </trkpt>
      <trkpt lat="62.637231351459" lon="17.965751719512">
        <ele>46.6</ele>
        <time>2018-04-02T18:04:18Z</time>
      </trkpt>
      <trkpt lat="62.637232273468" lon="17.965734955712">
        <ele>46.6</ele>
        <time>2018-04-02T18:04:19Z</time>
      </trkpt>
      <trkpt lat="62.63722959126" lon="17.965719281559">
        <ele>46.6</ele>
        <time>2018-04-02T18:04:20Z</time>
      </trkpt>
      <trkpt lat="62.637223221016" lon="17.965704026501">
        <ele>46.6</ele>
        <time>2018-04-02T18:04:21Z</time>
      </trkpt>
      <trkpt lat="62.637216431677" lon="17.965692710936">
        <ele>46.6</ele>
        <time>2018-04-02T18:04:22Z</time>
      </trkpt>
      <trkpt lat="62.637207882139" lon="17.965672426738">
        <ele>46.6</ele>
        <time>2018-04-02T18:04:23Z</time>
      </trkpt>
      <trkpt lat="62.637203188275" lon="17.965657506956">
        <ele>46.6</ele>
        <time>2018-04-02T18:04:24Z</time>
      </trkpt>
      <trkpt lat="62.637196147479" lon="17.965634372912">
        <ele>46.6</ele>
        <time>2018-04-02T18:04:25Z</time>
      </trkpt>
      <trkpt lat="62.637186927389" lon="17.965608640479">
        <ele>46.6</ele>
        <time>2018-04-02T18:04:26Z</time>
      </trkpt>
      <trkpt lat="62.637177958756" lon="17.965583913874">
        <ele>46.6</ele>
        <time>2018-04-02T18:04:27Z</time>
      </trkpt>
      <trkpt lat="62.637171253236" lon="17.96556077983">
        <ele>46.6</ele>
        <time>2018-04-02T18:04:28Z</time>
      </trkpt>
      <trkpt lat="62.637163290431" lon="17.965535969406">
        <ele>46.6</ele>
        <time>2018-04-02T18:04:29Z</time>
      </trkpt>
      <trkpt lat="62.637160105309" lon="17.96552641404">
        <ele>46.6</ele>
        <time>2018-04-02T18:04:30Z</time>
      </trkpt>
      <trkpt lat="62.637150047029" lon="17.965490120413">
        <ele>46.6</ele>
        <time>2018-04-02T18:04:31Z</time>
      </trkpt>
      <trkpt lat="62.637141916586" lon="17.965464890894">
        <ele>46.6</ele>
        <time>2018-04-02T18:04:32Z</time>
      </trkpt>
      <trkpt lat="62.637134540514" lon="17.965441924488">
        <ele>46.6</ele>
        <time>2018-04-02T18:04:33Z</time>
      </trkpt>
      <trkpt lat="62.637126242433" lon="17.965420634462">
        <ele>46.6</ele>
        <time>2018-04-02T18:04:34Z</time>
      </trkpt>
      <trkpt lat="62.637119872189" lon="17.965394399115">
        <ele>46.6</ele>
        <time>2018-04-02T18:04:35Z</time>
      </trkpt>
      <trkpt lat="62.637113501945" lon="17.965372438537">
        <ele>46.6</ele>
        <time>2018-04-02T18:04:36Z</time>
      </trkpt>
      <trkpt lat="62.637106880244" lon="17.965352321977">
        <ele>46.6</ele>
        <time>2018-04-02T18:04:37Z</time>
      </trkpt>
      <trkpt lat="62.637097827792" lon="17.965327260096">
        <ele>46.6</ele>
        <time>2018-04-02T18:04:38Z</time>
      </trkpt>
      <trkpt lat="62.637091792824" lon="17.96530261731">
        <ele>46.6</ele>
        <time>2018-04-02T18:04:39Z</time>
      </trkpt>
      <trkpt lat="62.637080225802" lon="17.965284847682">
        <ele>46.6</ele>
        <time>2018-04-02T18:04:40Z</time>
      </trkpt>
      <trkpt lat="62.637066395667" lon="17.965273364479">
        <ele>46.6</ele>
        <time>2018-04-02T18:04:41Z</time>
      </trkpt>
      <trkpt lat="62.637062120898" lon="17.965252493548">
        <ele>46.6</ele>
        <time>2018-04-02T18:04:42Z</time>
      </trkpt>
      <trkpt lat="62.637050134781" lon="17.965211841333">
        <ele>46.8</ele>
        <time>2018-04-02T18:04:43Z</time>
      </trkpt>
      <trkpt lat="62.637038651578" lon="17.965179151923">
        <ele>46.8</ele>
        <time>2018-04-02T18:04:44Z</time>
      </trkpt>
      <trkpt lat="62.637026916918" lon="17.965145289047">
        <ele>46.8</ele>
        <time>2018-04-02T18:04:45Z</time>
      </trkpt>
      <trkpt lat="62.63701417643" lon="17.965107235221">
        <ele>46.8</ele>
        <time>2018-04-02T18:04:46Z</time>
      </trkpt>
      <trkpt lat="62.63700076539" lon="17.965068091748">
        <ele>47</ele>
        <time>2018-04-02T18:04:47Z</time>
      </trkpt>
      <trkpt lat="62.636992132033" lon="17.965031630483">
        <ele>47</ele>
        <time>2018-04-02T18:04:48Z</time>
      </trkpt>
      <trkpt lat="62.636982911943" lon="17.965006903878">
        <ele>47</ele>
        <time>2018-04-02T18:04:49Z</time>
      </trkpt>
      <trkpt lat="62.636969333265" lon="17.964959965238">
        <ele>47</ele>
        <time>2018-04-02T18:04:50Z</time>
      </trkpt>
      <trkpt lat="62.636953240017" lon="17.964920570308">
        <ele>47.2</ele>
        <time>2018-04-02T18:04:51Z</time>
      </trkpt>
      <trkpt lat="62.636936476217" lon="17.964880672464">
        <ele>47</ele>
        <time>2018-04-02T18:04:52Z</time>
      </trkpt>
      <trkpt lat="62.636930022154" lon="17.964832811815">
        <ele>46.8</ele>
        <time>2018-04-02T18:04:53Z</time>
      </trkpt>
      <trkpt lat="62.636921388797" lon="17.964791656686">
        <ele>46.8</ele>
        <time>2018-04-02T18:04:54Z</time>
      </trkpt>
      <trkpt lat="62.636905295549" lon="17.9647334863">
        <ele>46.8</ele>
        <time>2018-04-02T18:04:55Z</time>
      </trkpt>
      <trkpt lat="62.636895572545" lon="17.964692582628">
        <ele>47</ele>
        <time>2018-04-02T18:04:56Z</time>
      </trkpt>
      <trkpt lat="62.636885681903" lon="17.9646580492">
        <ele>46.8</ele>
        <time>2018-04-02T18:04:57Z</time>
      </trkpt>
      <trkpt lat="62.636868750465" lon="17.964621587935">
        <ele>46.8</ele>
        <time>2018-04-02T18:04:58Z</time>
      </trkpt>
      <trkpt lat="62.636852573398" lon="17.964571380354">
        <ele>46.8</ele>
        <time>2018-04-02T18:04:59Z</time>
      </trkpt>
      <trkpt lat="62.636835558141" lon="17.964526118094">
        <ele>46.8</ele>
        <time>2018-04-02T18:05:00Z</time>
      </trkpt>
      <trkpt lat="62.636822650015" lon="17.964485465879">
        <ele>46.6</ele>
        <time>2018-04-02T18:05:01Z</time>
      </trkpt>
      <trkpt lat="62.636808400785" lon="17.964441041809">
        <ele>46.6</ele>
        <time>2018-04-02T18:05:02Z</time>
      </trkpt>
      <trkpt lat="62.636792726632" lon="17.964402485069">
        <ele>46.6</ele>
        <time>2018-04-02T18:05:03Z</time>
      </trkpt>
      <trkpt lat="62.636778142126" lon="17.964363676872">
        <ele>46.4</ele>
        <time>2018-04-02T18:05:04Z</time>
      </trkpt>
      <trkpt lat="62.636761797421" lon="17.964328221435">
        <ele>46.4</ele>
        <time>2018-04-02T18:05:05Z</time>
      </trkpt>
      <trkpt lat="62.636746374725" lon="17.964292849817">
        <ele>46.6</ele>
        <time>2018-04-02T18:05:06Z</time>
      </trkpt>
      <trkpt lat="62.636729359468" lon="17.964255718">
        <ele>46.6</ele>
        <time>2018-04-02T18:05:07Z</time>
      </trkpt>
      <trkpt lat="62.636712176573" lon="17.964211796844">
        <ele>46.4</ele>
        <time>2018-04-02T18:05:08Z</time>
      </trkpt>
      <trkpt lat="62.63669314966" lon="17.964168127145">
        <ele>46.4</ele>
        <time>2018-04-02T18:05:09Z</time>
      </trkpt>
      <trkpt lat="62.636676721136" lon="17.964124289808">
        <ele>46.4</ele>
        <time>2018-04-02T18:05:10Z</time>
      </trkpt>
      <trkpt lat="62.636661130802" lon="17.964081961213">
        <ele>46.4</ele>
        <time>2018-04-02T18:05:11Z</time>
      </trkpt>
      <trkpt lat="62.636650988703" lon="17.964046757233">
        <ele>46.4</ele>
        <time>2018-04-02T18:05:12Z</time>
      </trkpt>
      <trkpt lat="62.636629698677" lon="17.963998226032">
        <ele>46.2</ele>
        <time>2018-04-02T18:05:13Z</time>
      </trkpt>
      <trkpt lat="62.636615365628" lon="17.963959166378">
        <ele>46.4</ele>
        <time>2018-04-02T18:05:14Z</time>
      </trkpt>
      <trkpt lat="62.636595584344" lon="17.963907198598">
        <ele>46.4</ele>
        <time>2018-04-02T18:05:15Z</time>
      </trkpt>
      <trkpt lat="62.636578988182" lon="17.963862690709">
        <ele>46.4</ele>
        <time>2018-04-02T18:05:16Z</time>
      </trkpt>
      <trkpt lat="62.636562140563" lon="17.963818518096">
        <ele>46.2</ele>
        <time>2018-04-02T18:05:17Z</time>
      </trkpt>
      <trkpt lat="62.636550824998" lon="17.963782811202">
        <ele>46.2</ele>
        <time>2018-04-02T18:05:18Z</time>
      </trkpt>
      <trkpt lat="62.63652886442" lon="17.963745008833">
        <ele>46.4</ele>
        <time>2018-04-02T18:05:19Z</time>
      </trkpt>
      <trkpt lat="62.636515704837" lon="17.963715253088">
        <ele>46.2</ele>
        <time>2018-04-02T18:05:20Z</time>
      </trkpt>
      <trkpt lat="62.63649533682" lon="17.963701171496">
        <ele>46.2</ele>
        <time>2018-04-02T18:05:21Z</time>
      </trkpt>
      <trkpt lat="62.63647689664" lon="17.963684240058">
        <ele>46.2</ele>
        <time>2018-04-02T18:05:22Z</time>
      </trkpt>
      <trkpt lat="62.636454097872" lon="17.963700417125">
        <ele>46.2</ele>
        <time>2018-04-02T18:05:23Z</time>
      </trkpt>
      <trkpt lat="62.636439429547" lon="17.963721036599">
        <ele>46.2</ele>
        <time>2018-04-02T18:05:24Z</time>
      </trkpt>
      <trkpt lat="62.636409254707" lon="17.963731094879">
        <ele>46.2</ele>
        <time>2018-04-02T18:05:25Z</time>
      </trkpt>
      <trkpt lat="62.636384611921" lon="17.963733106535">
        <ele>46.2</ele>
        <time>2018-04-02T18:05:26Z</time>
      </trkpt>
      <trkpt lat="62.636362399886" lon="17.963738303313">
        <ele>46</ele>
        <time>2018-04-02T18:05:27Z</time>
      </trkpt>
      <trkpt lat="62.63633859529" lon="17.963747691041">
        <ele>46</ele>
        <time>2018-04-02T18:05:28Z</time>
      </trkpt>
      <trkpt lat="62.636315042151" lon="17.963767220868">
        <ele>46</ele>
        <time>2018-04-02T18:05:29Z</time>
      </trkpt>
      <trkpt lat="62.636290650822" lon="17.963792366568">
        <ele>46</ele>
        <time>2018-04-02T18:05:30Z</time>
      </trkpt>
      <trkpt lat="62.63626986371" lon="17.963808795092">
        <ele>45.8</ele>
        <time>2018-04-02T18:05:31Z</time>
      </trkpt>
      <trkpt lat="62.636250920616" lon="17.963823798693">
        <ele>46</ele>
        <time>2018-04-02T18:05:32Z</time>
      </trkpt>
      <trkpt lat="62.636230217323" lon="17.96384835766">
        <ele>46</ele>
        <time>2018-04-02T18:05:33Z</time>
      </trkpt>
      <trkpt lat="62.6362120286" lon="17.963875682654">
        <ele>46</ele>
        <time>2018-04-02T18:05:34Z</time>
      </trkpt>
      <trkpt lat="62.636191576764" lon="17.963893536101">
        <ele>46</ele>
        <time>2018-04-02T18:05:35Z</time>
      </trkpt>
      <trkpt lat="62.636171292566" lon="17.963918095068">
        <ele>46</ele>
        <time>2018-04-02T18:05:36Z</time>
      </trkpt>
      <trkpt lat="62.636150421635" lon="17.963935780877">
        <ele>46.2</ele>
        <time>2018-04-02T18:05:37Z</time>
      </trkpt>
      <trkpt lat="62.636127203772" lon="17.963958495826">
        <ele>46.4</ele>
        <time>2018-04-02T18:05:38Z</time>
      </trkpt>
      <trkpt lat="62.63610641666" lon="17.963979450576">
        <ele>46.4</ele>
        <time>2018-04-02T18:05:39Z</time>
      </trkpt>
      <trkpt lat="62.63608462372" lon="17.963997974575">
        <ele>46.6</ele>
        <time>2018-04-02T18:05:40Z</time>
      </trkpt>
      <trkpt lat="62.636063501332" lon="17.964013313452">
        <ele>46.6</ele>
        <time>2018-04-02T18:05:41Z</time>
      </trkpt>
      <trkpt lat="62.636042295125" lon="17.964028317053">
        <ele>46.8</ele>
        <time>2018-04-02T18:05:42Z</time>
      </trkpt>
      <trkpt lat="62.6360192449" lon="17.96405706697">
        <ele>46.8</ele>
        <time>2018-04-02T18:05:43Z</time>
      </trkpt>
      <trkpt lat="62.635997284322" lon="17.96408388905">
        <ele>46.8</ele>
        <time>2018-04-02T18:05:44Z</time>
      </trkpt>
      <trkpt lat="62.635976245753" lon="17.964106687818">
        <ele>47</ele>
        <time>2018-04-02T18:05:45Z</time>
      </trkpt>
      <trkpt lat="62.635954955727" lon="17.964132252613">
        <ele>47</ele>
        <time>2018-04-02T18:05:46Z</time>
      </trkpt>
      <trkpt lat="62.635933414244" lon="17.964156643942">
        <ele>47</ele>
        <time>2018-04-02T18:05:47Z</time>
      </trkpt>
      <trkpt lat="62.635907681811" lon="17.964178269244">
        <ele>47</ele>
        <time>2018-04-02T18:05:48Z</time>
      </trkpt>
      <trkpt lat="62.63588010536" lon="17.964195619777">
        <ele>47.2</ele>
        <time>2018-04-02T18:05:49Z</time>
      </trkpt>
      <trkpt lat="62.635860994628" lon="17.964215317242">
        <ele>47.2</ele>
        <time>2018-04-02T18:05:50Z</time>
      </trkpt>
      <trkpt lat="62.635839117869" lon="17.964234847069">
        <ele>47.2</ele>
        <time>2018-04-02T18:05:51Z</time>
      </trkpt>
      <trkpt lat="62.635815900006" lon="17.964254376896">
        <ele>47.2</ele>
        <time>2018-04-02T18:05:52Z</time>
      </trkpt>
      <trkpt lat="62.635797208369" lon="17.964277343302">
        <ele>47.2</ele>
        <time>2018-04-02T18:05:53Z</time>
      </trkpt>
      <trkpt lat="62.635769296642" lon="17.964294358559">
        <ele>47.4</ele>
        <time>2018-04-02T18:05:54Z</time>
      </trkpt>
      <trkpt lat="62.63574683315" lon="17.964314978033">
        <ele>47.4</ele>
        <time>2018-04-02T18:05:55Z</time>
      </trkpt>
      <trkpt lat="62.63572168745" lon="17.964338447353">
        <ele>47.4</ele>
        <time>2018-04-02T18:05:56Z</time>
      </trkpt>
      <trkpt lat="62.635692266981" lon="17.964349762918">
        <ele>47.4</ele>
        <time>2018-04-02T18:05:57Z</time>
      </trkpt>
      <trkpt lat="62.635672820973" lon="17.964371304401">
        <ele>47.6</ele>
        <time>2018-04-02T18:05:58Z</time>
      </trkpt>
      <trkpt lat="62.635644238694" lon="17.964386810916">
        <ele>47.6</ele>
        <time>2018-04-02T18:05:59Z</time>
      </trkpt>
      <trkpt lat="62.635622278116" lon="17.964401982155">
        <ele>47.6</ele>
        <time>2018-04-02T18:06:00Z</time>
      </trkpt>
      <trkpt lat="62.635599144072" lon="17.964420589973">
        <ele>47.8</ele>
        <time>2018-04-02T18:06:01Z</time>
      </trkpt>
      <trkpt lat="62.635571232345" lon="17.964443807836">
        <ele>47.8</ele>
        <time>2018-04-02T18:06:02Z</time>
      </trkpt>
      <trkpt lat="62.635550948147" lon="17.96446191274">
        <ele>48</ele>
        <time>2018-04-02T18:06:03Z</time>
      </trkpt>
      <trkpt lat="62.63552136004" lon="17.964477503074">
        <ele>48</ele>
        <time>2018-04-02T18:06:04Z</time>
      </trkpt>
      <trkpt lat="62.63549537615" lon="17.964492674313">
        <ele>48</ele>
        <time>2018-04-02T18:06:05Z</time>
      </trkpt>
      <trkpt lat="62.635472325925" lon="17.964517065642">
        <ele>48</ele>
        <time>2018-04-02T18:06:06Z</time>
      </trkpt>
      <trkpt lat="62.635445168569" lon="17.964536344012">
        <ele>48</ele>
        <time>2018-04-02T18:06:07Z</time>
      </trkpt>
      <trkpt lat="62.635424046181" lon="17.964549587414">
        <ele>48.2</ele>
        <time>2018-04-02T18:06:08Z</time>
      </trkpt>
      <trkpt lat="62.635400073947" lon="17.964568949603">
        <ele>48.2</ele>
        <time>2018-04-02T18:06:09Z</time>
      </trkpt>
      <trkpt lat="62.635375766437" lon="17.964575319847">
        <ele>48</ele>
        <time>2018-04-02T18:06:10Z</time>
      </trkpt>
      <trkpt lat="62.635352548574" lon="17.964593089475">
        <ele>48</ele>
        <time>2018-04-02T18:06:11Z</time>
      </trkpt>
      <trkpt lat="62.635329163073" lon="17.964603650669">
        <ele>48</ele>
        <time>2018-04-02T18:06:12Z</time>
      </trkpt>
      <trkpt lat="62.63530762159" lon="17.964616894071">
        <ele>48.2</ele>
        <time>2018-04-02T18:06:13Z</time>
      </trkpt>
      <trkpt lat="62.635281134786" lon="17.964625946523">
        <ele>48.2</ele>
        <time>2018-04-02T18:06:14Z</time>
      </trkpt>
      <trkpt lat="62.635255067077" lon="17.964629886016">
        <ele>48</ele>
        <time>2018-04-02T18:06:15Z</time>
      </trkpt>
      <trkpt lat="62.635236794535" lon="17.964645727807">
        <ele>48.2</ele>
        <time>2018-04-02T18:06:16Z</time>
      </trkpt>
      <trkpt lat="62.635210643007" lon="17.964655953725">
        <ele>48.4</ele>
        <time>2018-04-02T18:06:17Z</time>
      </trkpt>
      <trkpt lat="62.635189269162" lon="17.964669448584">
        <ele>48.4</ele>
        <time>2018-04-02T18:06:18Z</time>
      </trkpt>
      <trkpt lat="62.635159010503" lon="17.964677159932">
        <ele>48.4</ele>
        <time>2018-04-02T18:06:19Z</time>
      </trkpt>
      <trkpt lat="62.635137552839" lon="17.964696186845">
        <ele>48.6</ele>
        <time>2018-04-02T18:06:20Z</time>
      </trkpt>
      <trkpt lat="62.635113329148" lon="17.964711358084">
        <ele>48.6</ele>
        <time>2018-04-02T18:06:21Z</time>
      </trkpt>
      <trkpt lat="62.635084998326" lon="17.964713285921">
        <ele>48.8</ele>
        <time>2018-04-02T18:06:22Z</time>
      </trkpt>
      <trkpt lat="62.635061445187" lon="17.964727283694">
        <ele>48.8</ele>
        <time>2018-04-02T18:06:23Z</time>
      </trkpt>
      <trkpt lat="62.635039316971" lon="17.964743376942">
        <ele>49</ele>
        <time>2018-04-02T18:06:24Z</time>
      </trkpt>
      <trkpt lat="62.635011069968" lon="17.964748406082">
        <ele>48.8</ele>
        <time>2018-04-02T18:06:25Z</time>
      </trkpt>
      <trkpt lat="62.634988355019" lon="17.964763158226">
        <ele>49</ele>
        <time>2018-04-02T18:06:26Z</time>
      </trkpt>
      <trkpt lat="62.634966394441" lon="17.964764583149">
        <ele>49.2</ele>
        <time>2018-04-02T18:06:27Z</time>
      </trkpt>
      <trkpt lat="62.634941248741" lon="17.964769277013">
        <ele>49.2</ele>
        <time>2018-04-02T18:06:28Z</time>
      </trkpt>
      <trkpt lat="62.634918282335" lon="17.964778245646">
        <ele>49.2</ele>
        <time>2018-04-02T18:06:29Z</time>
      </trkpt>
      <trkpt lat="62.634892885178" lon="17.964786376089">
        <ele>49.2</ele>
        <time>2018-04-02T18:06:30Z</time>
      </trkpt>
      <trkpt lat="62.63486673365" lon="17.964786208451">
        <ele>49.4</ele>
        <time>2018-04-02T18:06:31Z</time>
      </trkpt>
      <trkpt lat="62.634841085036" lon="17.964785789356">
        <ele>49.4</ele>
        <time>2018-04-02T18:06:32Z</time>
      </trkpt>
      <trkpt lat="62.634814095318" lon="17.964792075781">
        <ele>49.4</ele>
        <time>2018-04-02T18:06:33Z</time>
      </trkpt>
      <trkpt lat="62.634787021781" lon="17.964806492649">
        <ele>49.4</ele>
        <time>2018-04-02T18:06:34Z</time>
      </trkpt>
      <trkpt lat="62.634764223013" lon="17.964813701083">
        <ele>49.4</ele>
        <time>2018-04-02T18:06:35Z</time>
      </trkpt>
      <trkpt lat="62.6347368142" lon="17.964816048015">
        <ele>49.4</ele>
        <time>2018-04-02T18:06:36Z</time>
      </trkpt>
      <trkpt lat="62.63470663936" lon="17.964827028304">
        <ele>49.6</ele>
        <time>2018-04-02T18:06:37Z</time>
      </trkpt>
      <trkpt lat="62.634684678782" lon="17.964827782675">
        <ele>49.6</ele>
        <time>2018-04-02T18:06:38Z</time>
      </trkpt>
      <trkpt lat="62.63466305348" lon="17.964840523163">
        <ele>49.6</ele>
        <time>2018-04-02T18:06:39Z</time>
      </trkpt>
      <trkpt lat="62.634634471201" lon="17.964846474312">
        <ele>49.6</ele>
        <time>2018-04-02T18:06:40Z</time>
      </trkpt>
      <trkpt lat="62.634609996053" lon="17.964845300846">
        <ele>49.8</ele>
        <time>2018-04-02T18:06:41Z</time>
      </trkpt>
      <trkpt lat="62.63458677819" lon="17.964846809588">
        <ele>49.8</ele>
        <time>2018-04-02T18:06:42Z</time>
      </trkpt>
      <trkpt lat="62.634557692997" lon="17.964856532592">
        <ele>49.8</ele>
        <time>2018-04-02T18:06:43Z</time>
      </trkpt>
      <trkpt lat="62.634532379659" lon="17.964864327759">
        <ele>49.8</ele>
        <time>2018-04-02T18:06:44Z</time>
      </trkpt>
      <trkpt lat="62.634507317778" lon="17.964869775994">
        <ele>50</ele>
        <time>2018-04-02T18:06:45Z</time>
      </trkpt>
      <trkpt lat="62.634482758811" lon="17.964873631668">
        <ele>50</ele>
        <time>2018-04-02T18:06:46Z</time>
      </trkpt>
      <trkpt lat="62.634458367482" lon="17.964877235885">
        <ele>50</ele>
        <time>2018-04-02T18:06:47Z</time>
      </trkpt>
      <trkpt lat="62.634430204298" lon="17.964871703831">
        <ele>50.2</ele>
        <time>2018-04-02T18:06:48Z</time>
      </trkpt>
      <trkpt lat="62.634405477693" lon="17.964869775994">
        <ele>50.2</ele>
        <time>2018-04-02T18:06:49Z</time>
      </trkpt>
      <trkpt lat="62.634379912898" lon="17.964869189261">
        <ele>50.4</ele>
        <time>2018-04-02T18:06:50Z</time>
      </trkpt>
      <trkpt lat="62.634355186293" lon="17.964871703831">
        <ele>50.2</ele>
        <time>2018-04-02T18:06:51Z</time>
      </trkpt>
      <trkpt lat="62.634330124412" lon="17.964873212573">
        <ele>50.4</ele>
        <time>2018-04-02T18:06:52Z</time>
      </trkpt>
      <trkpt lat="62.634305649264" lon="17.964880923921">
        <ele>50.4</ele>
        <time>2018-04-02T18:06:53Z</time>
      </trkpt>
      <trkpt lat="62.634281928487" lon="17.964886288337">
        <ele>50.4</ele>
        <time>2018-04-02T18:06:54Z</time>
      </trkpt>
      <trkpt lat="62.634256196054" lon="17.964882600301">
        <ele>50.6</ele>
        <time>2018-04-02T18:06:55Z</time>
      </trkpt>
      <trkpt lat="62.634230295983" lon="17.964877319704">
        <ele>50.6</ele>
        <time>2018-04-02T18:06:56Z</time>
      </trkpt>
      <trkpt lat="62.634207329577" lon="17.964883606129">
        <ele>50.8</ele>
        <time>2018-04-02T18:06:57Z</time>
      </trkpt>
      <trkpt lat="62.634180004583" lon="17.964882013568">
        <ele>50.8</ele>
        <time>2018-04-02T18:06:58Z</time>
      </trkpt>
      <trkpt lat="62.634157121996" lon="17.964881343016">
        <ele>50.8</ele>
        <time>2018-04-02T18:06:59Z</time>
      </trkpt>
      <trkpt lat="62.634132563029" lon="17.964886372156">
        <ele>50.8</ele>
        <time>2018-04-02T18:07:00Z</time>
      </trkpt>
      <trkpt lat="62.634106160044" lon="17.964885031052">
        <ele>51</ele>
        <time>2018-04-02T18:07:01Z</time>
      </trkpt>
      <trkpt lat="62.634082690724" lon="17.964883689948">
        <ele>51</ele>
        <time>2018-04-02T18:07:02Z</time>
      </trkpt>
      <trkpt lat="62.6340578803" lon="17.96491202077">
        <ele>51</ele>
        <time>2018-04-02T18:07:03Z</time>
      </trkpt>
      <trkpt lat="62.634034997713" lon="17.964942530886">
        <ele>51</ele>
        <time>2018-04-02T18:07:04Z</time>
      </trkpt>
      <trkpt lat="62.63401513261" lon="17.964978656875">
        <ele>51</ele>
        <time>2018-04-02T18:07:05Z</time>
      </trkpt>
      <trkpt lat="62.633989819272" lon="17.964993157562">
        <ele>51</ele>
        <time>2018-04-02T18:07:06Z</time>
      </trkpt>
      <trkpt lat="62.633968445427" lon="17.965014699045">
        <ele>51</ele>
        <time>2018-04-02T18:07:07Z</time>
      </trkpt>
      <trkpt lat="62.633944305555" lon="17.965029451189">
        <ele>51</ele>
        <time>2018-04-02T18:07:08Z</time>
      </trkpt>
      <trkpt lat="62.633918321665" lon="17.965047136998">
        <ele>51</ele>
        <time>2018-04-02T18:07:09Z</time>
      </trkpt>
      <trkpt lat="62.633899294752" lon="17.965058033468">
        <ele>51</ele>
        <time>2018-04-02T18:07:10Z</time>
      </trkpt>
      <trkpt lat="62.633880351658" lon="17.965074461992">
        <ele>51</ele>
        <time>2018-04-02T18:07:11Z</time>
      </trkpt>
      <trkpt lat="62.633869958102" lon="17.965110085067">
        <ele>50.8</ele>
        <time>2018-04-02T18:07:12Z</time>
      </trkpt>
      <trkpt lat="62.63385922927" lon="17.96514755216">
        <ele>51</ele>
        <time>2018-04-02T18:07:13Z</time>
      </trkpt>
      <trkpt lat="62.633858810175" lon="17.965186444176">
        <ele>51.2</ele>
        <time>2018-04-02T18:07:14Z</time>
      </trkpt>
      <trkpt lat="62.633858055804" lon="17.965227431667">
        <ele>51.2</ele>
        <time>2018-04-02T18:07:15Z</time>
      </trkpt>
      <trkpt lat="62.633858223442" lon="17.965274789402">
        <ele>51.4</ele>
        <time>2018-04-02T18:07:16Z</time>
      </trkpt>
      <trkpt lat="62.63386342022" lon="17.965310915391">
        <ele>51.6</ele>
        <time>2018-04-02T18:07:17Z</time>
      </trkpt>
      <trkpt lat="62.633866437704" lon="17.965352405796">
        <ele>52</ele>
        <time>2018-04-02T18:07:18Z</time>
      </trkpt>
      <trkpt lat="62.633868030265" lon="17.965401691368">
        <ele>52</ele>
        <time>2018-04-02T18:07:19Z</time>
      </trkpt>
      <trkpt lat="62.633874232871" lon="17.96543505133">
        <ele>52.4</ele>
        <time>2018-04-02T18:07:20Z</time>
      </trkpt>
      <trkpt lat="62.633879429649" lon="17.965484672178">
        <ele>52.6</ele>
        <time>2018-04-02T18:07:21Z</time>
      </trkpt>
      <trkpt lat="62.633880519296" lon="17.965526916954">
        <ele>53</ele>
        <time>2018-04-02T18:07:22Z</time>
      </trkpt>
      <trkpt lat="62.633886973359" lon="17.96557083811">
        <ele>53</ele>
        <time>2018-04-02T18:07:23Z</time>
      </trkpt>
      <trkpt lat="62.633896025811" lon="17.965618782578">
        <ele>53.4</ele>
        <time>2018-04-02T18:07:24Z</time>
      </trkpt>
      <trkpt lat="62.633903988616" lon="17.965665218304">
        <ele>53.4</ele>
        <time>2018-04-02T18:07:25Z</time>
      </trkpt>
      <trkpt lat="62.633911783783" lon="17.965714839152">
        <ele>53.6</ele>
        <time>2018-04-02T18:07:26Z</time>
      </trkpt>
      <trkpt lat="62.633912370516" lon="17.965768734769">
        <ele>53.8</ele>
        <time>2018-04-02T18:07:27Z</time>
      </trkpt>
      <trkpt lat="62.633911532326" lon="17.965812153011">
        <ele>53.8</ele>
        <time>2018-04-02T18:07:28Z</time>
      </trkpt>
      <trkpt lat="62.633902731331" lon="17.965866802999">
        <ele>54</ele>
        <time>2018-04-02T18:07:29Z</time>
      </trkpt>
      <trkpt lat="62.633897953648" lon="17.965898905676">
        <ele>54.2</ele>
        <time>2018-04-02T18:07:30Z</time>
      </trkpt>
      <trkpt lat="62.633897283096" lon="17.965941988642">
        <ele>54.2</ele>
        <time>2018-04-02T18:07:31Z</time>
      </trkpt>
      <trkpt lat="62.633895019983" lon="17.965987837635">
        <ele>54.2</ele>
        <time>2018-04-02T18:07:32Z</time>
      </trkpt>
      <trkpt lat="62.633892253956" lon="17.966020024131">
        <ele>54.4</ele>
        <time>2018-04-02T18:07:33Z</time>
      </trkpt>
      <trkpt lat="62.633889571748" lon="17.966062520364">
        <ele>54.6</ele>
        <time>2018-04-02T18:07:34Z</time>
      </trkpt>
      <trkpt lat="62.633885883712" lon="17.96610727971">
        <ele>54.8</ele>
        <time>2018-04-02T18:07:35Z</time>
      </trkpt>
      <trkpt lat="62.633883369142" lon="17.966145584993">
        <ele>54.8</ele>
        <time>2018-04-02T18:07:36Z</time>
      </trkpt>
      <trkpt lat="62.633874735785" lon="17.966190344339">
        <ele>55.2</ele>
        <time>2018-04-02T18:07:37Z</time>
      </trkpt>
      <trkpt lat="62.633872305034" lon="17.966228314346">
        <ele>55.2</ele>
        <time>2018-04-02T18:07:38Z</time>
      </trkpt>
      <trkpt lat="62.633865683333" lon="17.96627910866">
        <ele>55.6</ele>
        <time>2018-04-02T18:07:39Z</time>
      </trkpt>
      <trkpt lat="62.633850763551" lon="17.966321437255">
        <ele>55.8</ele>
        <time>2018-04-02T18:07:40Z</time>
      </trkpt>
      <trkpt lat="62.633838693615" lon="17.966359742538">
        <ele>55.8</ele>
        <time>2018-04-02T18:07:41Z</time>
      </trkpt>
      <trkpt lat="62.633822851824" lon="17.96639561707">
        <ele>56</ele>
        <time>2018-04-02T18:07:42Z</time>
      </trkpt>
      <trkpt lat="62.633807932042" lon="17.966434425267">
        <ele>56.2</ele>
        <time>2018-04-02T18:07:43Z</time>
      </trkpt>
      <trkpt lat="62.633796784115" lon="17.96647189236">
        <ele>56.2</ele>
        <time>2018-04-02T18:07:44Z</time>
      </trkpt>
      <trkpt lat="62.6337812776" lon="17.966522099941">
        <ele>56.4</ele>
        <time>2018-04-02T18:07:45Z</time>
      </trkpt>
      <trkpt lat="62.633772728062" lon="17.966560824319">
        <ele>56.6</ele>
        <time>2018-04-02T18:07:46Z</time>
      </trkpt>
      <trkpt lat="62.633758395013" lon="17.966600386887">
        <ele>56.8</ele>
        <time>2018-04-02T18:07:47Z</time>
      </trkpt>
      <trkpt lat="62.633750096932" lon="17.966642128749">
        <ele>56.8</ele>
        <time>2018-04-02T18:07:48Z</time>
      </trkpt>
      <trkpt lat="62.633747498543" lon="17.96668143986">
        <ele>57</ele>
        <time>2018-04-02T18:07:49Z</time>
      </trkpt>
      <trkpt lat="62.633739703376" lon="17.966728294681">
        <ele>57.2</ele>
        <time>2018-04-02T18:07:50Z</time>
      </trkpt>
      <trkpt lat="62.633733081675" lon="17.966764169213">
        <ele>57.2</ele>
        <time>2018-04-02T18:07:51Z</time>
      </trkpt>
      <trkpt lat="62.633727465802" lon="17.966811275491">
        <ele>57.2</ele>
        <time>2018-04-02T18:07:52Z</time>
      </trkpt>
      <trkpt lat="62.633722352843" lon="17.96685578338">
        <ele>57.6</ele>
        <time>2018-04-02T18:07:53Z</time>
      </trkpt>
      <trkpt lat="62.633721095558" lon="17.966891406455">
        <ele>57.8</ele>
        <time>2018-04-02T18:07:54Z</time>
      </trkpt>
      <trkpt lat="62.633716988427" lon="17.966943374235">
        <ele>58.2</ele>
        <time>2018-04-02T18:07:55Z</time>
      </trkpt>
      <trkpt lat="62.633713132753" lon="17.966988468857">
        <ele>58.4</ele>
        <time>2018-04-02T18:07:56Z</time>
      </trkpt>
      <trkpt lat="62.633710450545" lon="17.967027277054">
        <ele>58.6</ele>
        <time>2018-04-02T18:07:57Z</time>
      </trkpt>
      <trkpt lat="62.633701146636" lon="17.967070108563">
        <ele>58.6</ele>
        <time>2018-04-02T18:07:58Z</time>
      </trkpt>
      <trkpt lat="62.63369494403" lon="17.967114364995">
        <ele>59</ele>
        <time>2018-04-02T18:07:59Z</time>
      </trkpt>
      <trkpt lat="62.633688825243" lon="17.967154849572">
        <ele>59</ele>
        <time>2018-04-02T18:08:00Z</time>
      </trkpt>
      <trkpt lat="62.63368153299" lon="17.967201620574">
        <ele>59.2</ele>
        <time>2018-04-02T18:08:01Z</time>
      </trkpt>
      <trkpt lat="62.633675833298" lon="17.96724051259">
        <ele>59.4</ele>
        <time>2018-04-02T18:08:02Z</time>
      </trkpt>
      <trkpt lat="62.633671642348" lon="17.967279153149">
        <ele>59.6</ele>
        <time>2018-04-02T18:08:03Z</time>
      </trkpt>
      <trkpt lat="62.633667116122" lon="17.967325924151">
        <ele>59.6</ele>
        <time>2018-04-02T18:08:04Z</time>
      </trkpt>
      <trkpt lat="62.633662506077" lon="17.96736624109">
        <ele>60</ele>
        <time>2018-04-02T18:08:05Z</time>
      </trkpt>
      <trkpt lat="62.63365387272" lon="17.967408904961">
        <ele>60.2</ele>
        <time>2018-04-02T18:08:06Z</time>
      </trkpt>
      <trkpt lat="62.633645826096" lon="17.967458022895">
        <ele>60.2</ele>
        <time>2018-04-02T18:08:07Z</time>
      </trkpt>
      <trkpt lat="62.633642473336" lon="17.96750118968">
        <ele>60.2</ele>
        <time>2018-04-02T18:08:08Z</time>
      </trkpt>
      <trkpt lat="62.633634007617" lon="17.96754896651">
        <ele>60.2</ele>
        <time>2018-04-02T18:08:09Z</time>
      </trkpt>
      <trkpt lat="62.633631157771" lon="17.967593306761">
        <ele>60.4</ele>
        <time>2018-04-02T18:08:10Z</time>
      </trkpt>
      <trkpt lat="62.633623865518" lon="17.967638736659">
        <ele>60.6</ele>
        <time>2018-04-02T18:08:11Z</time>
      </trkpt>
      <trkpt lat="62.633613807238" lon="17.967680813797">
        <ele>60.6</ele>
        <time>2018-04-02T18:08:12Z</time>
      </trkpt>
      <trkpt lat="62.633608694279" lon="17.967728087713">
        <ele>60.8</ele>
        <time>2018-04-02T18:08:13Z</time>
      </trkpt>
      <trkpt lat="62.633600144741" lon="17.967774607258">
        <ele>61.2</ele>
        <time>2018-04-02T18:08:14Z</time>
      </trkpt>
      <trkpt lat="62.63359268485" lon="17.967822970821">
        <ele>61.4</ele>
        <time>2018-04-02T18:08:15Z</time>
      </trkpt>
      <trkpt lat="62.633588326262" lon="17.967868233081">
        <ele>61.6</ele>
        <time>2018-04-02T18:08:16Z</time>
      </trkpt>
      <trkpt lat="62.633578854715" lon="17.967918440662">
        <ele>61.8</ele>
        <time>2018-04-02T18:08:17Z</time>
      </trkpt>
      <trkpt lat="62.633573574118" lon="17.967952554995">
        <ele>62.2</ele>
        <time>2018-04-02T18:08:18Z</time>
      </trkpt>
      <trkpt lat="62.633564856942" lon="17.968010557743">
        <ele>62.4</ele>
        <time>2018-04-02T18:08:19Z</time>
      </trkpt>
      <trkpt lat="62.633556223585" lon="17.968058250754">
        <ele>62.4</ele>
        <time>2018-04-02T18:08:20Z</time>
      </trkpt>
      <trkpt lat="62.633550104798" lon="17.968105943765">
        <ele>62.6</ele>
        <time>2018-04-02T18:08:21Z</time>
      </trkpt>
      <trkpt lat="62.63354406983" lon="17.968157324812">
        <ele>63</ele>
        <time>2018-04-02T18:08:22Z</time>
      </trkpt>
      <trkpt lat="62.633539543604" lon="17.968194288991">
        <ele>63.2</ele>
        <time>2018-04-02T18:08:23Z</time>
      </trkpt>
      <trkpt lat="62.633532586627" lon="17.968245921495">
        <ele>63.2</ele>
        <time>2018-04-02T18:08:24Z</time>
      </trkpt>
      <trkpt lat="62.633524959098" lon="17.968293027773">
        <ele>63.4</ele>
        <time>2018-04-02T18:08:25Z</time>
      </trkpt>
      <trkpt lat="62.633520265234" lon="17.968333428531">
        <ele>63.6</ele>
        <time>2018-04-02T18:08:26Z</time>
      </trkpt>
      <trkpt lat="62.633513392076" lon="17.968377014411">
        <ele>63.8</ele>
        <time>2018-04-02T18:08:27Z</time>
      </trkpt>
      <trkpt lat="62.633505848366" lon="17.968427473449">
        <ele>63.8</ele>
        <time>2018-04-02T18:08:28Z</time>
      </trkpt>
      <trkpt lat="62.63349964576" lon="17.968471226967">
        <ele>63.8</ele>
        <time>2018-04-02T18:08:29Z</time>
      </trkpt>
      <trkpt lat="62.633491766774" lon="17.968521937462">
        <ele>64.2</ele>
        <time>2018-04-02T18:08:30Z</time>
      </trkpt>
      <trkpt lat="62.633485564168" lon="17.968569798111">
        <ele>64.4</ele>
        <time>2018-04-02T18:08:31Z</time>
      </trkpt>
      <trkpt lat="62.633478774829" lon="17.968616066199">
        <ele>64.4</ele>
        <time>2018-04-02T18:08:32Z</time>
      </trkpt>
      <trkpt lat="62.633471901671" lon="17.968662837201">
        <ele>64.6</ele>
        <time>2018-04-02T18:08:33Z</time>
      </trkpt>
      <trkpt lat="62.633467878359" lon="17.968705584891">
        <ele>64.8</ele>
        <time>2018-04-02T18:08:34Z</time>
      </trkpt>
      <trkpt lat="62.633461759572" lon="17.968759061413">
        <ele>65</ele>
        <time>2018-04-02T18:08:35Z</time>
      </trkpt>
      <trkpt lat="62.633456311337" lon="17.968806922062">
        <ele>65.2</ele>
        <time>2018-04-02T18:08:36Z</time>
      </trkpt>
      <trkpt lat="62.633451533654" lon="17.96885235196">
        <ele>65.4</ele>
        <time>2018-04-02T18:08:37Z</time>
      </trkpt>
      <trkpt lat="62.633442984116" lon="17.968900044971">
        <ele>65.6</ele>
        <time>2018-04-02T18:08:38Z</time>
      </trkpt>
      <trkpt lat="62.633439547537" lon="17.968947654163">
        <ele>65.8</ele>
        <time>2018-04-02T18:08:39Z</time>
      </trkpt>
      <trkpt lat="62.633433847845" lon="17.968997526468">
        <ele>66</ele>
        <time>2018-04-02T18:08:40Z</time>
      </trkpt>
      <trkpt lat="62.633425382126" lon="17.969046895859">
        <ele>66</ele>
        <time>2018-04-02T18:08:41Z</time>
      </trkpt>
      <trkpt lat="62.633425130669" lon="17.969089895006">
        <ele>66</ele>
        <time>2018-04-02T18:08:42Z</time>
      </trkpt>
      <trkpt lat="62.633417586959" lon="17.969149490315">
        <ele>66.2</ele>
        <time>2018-04-02T18:08:43Z</time>
      </trkpt>
      <trkpt lat="62.633414485656" lon="17.969193998204">
        <ele>66.4</ele>
        <time>2018-04-02T18:08:44Z</time>
      </trkpt>
      <trkpt lat="62.633409624154" lon="17.969243702871">
        <ele>66.6</ele>
        <time>2018-04-02T18:08:45Z</time>
      </trkpt>
      <trkpt lat="62.633404595014" lon="17.96929659266">
        <ele>66.6</ele>
        <time>2018-04-02T18:08:46Z</time>
      </trkpt>
      <trkpt lat="62.633403505367" lon="17.969345878232">
        <ele>66.8</ele>
        <time>2018-04-02T18:08:47Z</time>
      </trkpt>
      <trkpt lat="62.633398140951" lon="17.969393319786">
        <ele>67</ele>
        <time>2018-04-02T18:08:48Z</time>
      </trkpt>
      <trkpt lat="62.633387915033" lon="17.969442856815">
        <ele>67.2</ele>
        <time>2018-04-02T18:08:49Z</time>
      </trkpt>
      <trkpt lat="62.633382718255" lon="17.969477893157">
        <ele>67.4</ele>
        <time>2018-04-02T18:08:50Z</time>
      </trkpt>
      <trkpt lat="62.633375090726" lon="17.969523825969">
        <ele>67.6</ele>
        <time>2018-04-02T18:08:51Z</time>
      </trkpt>
      <trkpt lat="62.633373498165" lon="17.969569591143">
        <ele>67.8</ele>
        <time>2018-04-02T18:08:52Z</time>
      </trkpt>
      <trkpt lat="62.633371235052" lon="17.969620720733">
        <ele>67.8</ele>
        <time>2018-04-02T18:08:53Z</time>
      </trkpt>
      <trkpt lat="62.633366960283" lon="17.969674281074">
        <ele>68.2</ele>
        <time>2018-04-02T18:08:54Z</time>
      </trkpt>
      <trkpt lat="62.63336469717" lon="17.969719794791">
        <ele>68.2</ele>
        <time>2018-04-02T18:08:55Z</time>
      </trkpt>
      <trkpt lat="62.633357907831" lon="17.9697793901">
        <ele>68.4</ele>
        <time>2018-04-02T18:08:56Z</time>
      </trkpt>
      <trkpt lat="62.633356985822" lon="17.969815935184">
        <ele>68.6</ele>
        <time>2018-04-02T18:08:57Z</time>
      </trkpt>
      <trkpt lat="62.633363523704" lon="17.969862035634">
        <ele>68.6</ele>
        <time>2018-04-02T18:08:58Z</time>
      </trkpt>
      <trkpt lat="62.633375174545" lon="17.969926157169">
        <ele>68.6</ele>
        <time>2018-04-02T18:08:59Z</time>
      </trkpt>
      <trkpt lat="62.633380874237" lon="17.969971922343">
        <ele>68.6</ele>
        <time>2018-04-02T18:09:00Z</time>
      </trkpt>
      <trkpt lat="62.633386071015" lon="17.970026823788">
        <ele>69</ele>
        <time>2018-04-02T18:09:01Z</time>
      </trkpt>
      <trkpt lat="62.633384646092" lon="17.97008281488">
        <ele>69</ele>
        <time>2018-04-02T18:09:02Z</time>
      </trkpt>
      <trkpt lat="62.633392273621" lon="17.970123634733">
        <ele>69</ele>
        <time>2018-04-02T18:09:03Z</time>
      </trkpt>
      <trkpt lat="62.633393111811" lon="17.970186666621">
        <ele>69.2</ele>
        <time>2018-04-02T18:09:04Z</time>
      </trkpt>
      <trkpt lat="62.633394620553" lon="17.97023704184">
        <ele>69.4</ele>
        <time>2018-04-02T18:09:05Z</time>
      </trkpt>
      <trkpt lat="62.633396296933" lon="17.970281298272">
        <ele>69.4</ele>
        <time>2018-04-02T18:09:06Z</time>
      </trkpt>
      <trkpt lat="62.633402499539" lon="17.970338043735">
        <ele>69.4</ele>
        <time>2018-04-02T18:09:07Z</time>
      </trkpt>
      <trkpt lat="62.633407109584" lon="17.970387161669">
        <ele>69.6</ele>
        <time>2018-04-02T18:09:08Z</time>
      </trkpt>
      <trkpt lat="62.633408953602" lon="17.970437117793">
        <ele>69.6</ele>
        <time>2018-04-02T18:09:09Z</time>
      </trkpt>
      <trkpt lat="62.633409624154" lon="17.97048682246">
        <ele>69.8</ele>
        <time>2018-04-02T18:09:10Z</time>
      </trkpt>
      <trkpt lat="62.633412976914" lon="17.970529318693">
        <ele>70</ele>
        <time>2018-04-02T18:09:11Z</time>
      </trkpt>
      <trkpt lat="62.633416413493" lon="17.970573072211">
        <ele>70.2</ele>
        <time>2018-04-02T18:09:12Z</time>
      </trkpt>
      <trkpt lat="62.63341917952" lon="17.970624956172">
        <ele>70.2</ele>
        <time>2018-04-02T18:09:13Z</time>
      </trkpt>
      <trkpt lat="62.633421107357" lon="17.970679270884">
        <ele>70.4</ele>
        <time>2018-04-02T18:09:14Z</time>
      </trkpt>
      <trkpt lat="62.633422029366" lon="17.970729813741">
        <ele>70.4</ele>
        <time>2018-04-02T18:09:15Z</time>
      </trkpt>
      <trkpt lat="62.633424041022" lon="17.970781697702">
        <ele>70.6</ele>
        <time>2018-04-02T18:09:16Z</time>
      </trkpt>
      <trkpt lat="62.633426304135" lon="17.970835090405">
        <ele>70.6</ele>
        <time>2018-04-02T18:09:17Z</time>
      </trkpt>
      <trkpt lat="62.633426387954" lon="17.970887058185">
        <ele>70.8</ele>
        <time>2018-04-02T18:09:18Z</time>
      </trkpt>
      <trkpt lat="62.633427812877" lon="17.9709360923">
        <ele>70.8</ele>
        <time>2018-04-02T18:09:19Z</time>
      </trkpt>
      <trkpt lat="62.633426471773" lon="17.970993675953">
        <ele>70.8</ele>
        <time>2018-04-02T18:09:20Z</time>
      </trkpt>
      <trkpt lat="62.633427980515" lon="17.971046565742">
        <ele>71</ele>
        <time>2018-04-02T18:09:21Z</time>
      </trkpt>
      <trkpt lat="62.633429824533" lon="17.971099455531">
        <ele>71</ele>
        <time>2018-04-02T18:09:22Z</time>
      </trkpt>
      <trkpt lat="62.633427729058" lon="17.971150333664">
        <ele>71</ele>
        <time>2018-04-02T18:09:23Z</time>
      </trkpt>
      <trkpt lat="62.633428231972" lon="17.97120347491">
        <ele>71.2</ele>
        <time>2018-04-02T18:09:24Z</time>
      </trkpt>
      <trkpt lat="62.633428231972" lon="17.971253431034">
        <ele>71.2</ele>
        <time>2018-04-02T18:09:25Z</time>
      </trkpt>
      <trkpt lat="62.633427980515" lon="17.971300118217">
        <ele>71.4</ele>
        <time>2018-04-02T18:09:26Z</time>
      </trkpt>
      <trkpt lat="62.633424292479" lon="17.971341943898">
        <ele>71.2</ele>
        <time>2018-04-02T18:09:27Z</time>
      </trkpt>
      <trkpt lat="62.63342337047" lon="17.971404221415">
        <ele>71.6</ele>
        <time>2018-04-02T18:09:28Z</time>
      </trkpt>
      <trkpt lat="62.633420520624" lon="17.971451998245">
        <ele>71.6</ele>
        <time>2018-04-02T18:09:29Z</time>
      </trkpt>
      <trkpt lat="62.63342001771" lon="17.971505558586">
        <ele>71.8</ele>
        <time>2018-04-02T18:09:30Z</time>
      </trkpt>
      <trkpt lat="62.633418173692" lon="17.971555263253">
        <ele>71.8</ele>
        <time>2018-04-02T18:09:31Z</time>
      </trkpt>
      <trkpt lat="62.633416078217" lon="17.971607985404">
        <ele>72</ele>
        <time>2018-04-02T18:09:32Z</time>
      </trkpt>
      <trkpt lat="62.63341331219" lon="17.971669592369">
        <ele>72</ele>
        <time>2018-04-02T18:09:33Z</time>
      </trkpt>
      <trkpt lat="62.633410965258" lon="17.971725415823">
        <ele>72.2</ele>
        <time>2018-04-02T18:09:34Z</time>
      </trkpt>
      <trkpt lat="62.633402750996" lon="17.971777886517">
        <ele>72.2</ele>
        <time>2018-04-02T18:09:35Z</time>
      </trkpt>
      <trkpt lat="62.633397302761" lon="17.971832704143">
        <ele>72.2</ele>
        <time>2018-04-02T18:09:36Z</time>
      </trkpt>
      <trkpt lat="62.633392944173" lon="17.971880313335">
        <ele>72.4</ele>
        <time>2018-04-02T18:09:37Z</time>
      </trkpt>
      <trkpt lat="62.633386322472" lon="17.971939657187">
        <ele>72.6</ele>
        <time>2018-04-02T18:09:38Z</time>
      </trkpt>
      <trkpt lat="62.63338146097" lon="17.971991960243">
        <ele>72.4</ele>
        <time>2018-04-02T18:09:39Z</time>
      </trkpt>
      <trkpt lat="62.633375342183" lon="17.972044598575">
        <ele>72.6</ele>
        <time>2018-04-02T18:09:40Z</time>
      </trkpt>
      <trkpt lat="62.633368469025" lon="17.972097153088">
        <ele>72.6</ele>
        <time>2018-04-02T18:09:41Z</time>
      </trkpt>
      <trkpt lat="62.633363775161" lon="17.972136883294">
        <ele>72.8</ele>
        <time>2018-04-02T18:09:42Z</time>
      </trkpt>
      <trkpt lat="62.633354974166" lon="17.972191198006">
        <ele>72.8</ele>
        <time>2018-04-02T18:09:43Z</time>
      </trkpt>
      <trkpt lat="62.633345754076" lon="17.972245093623">
        <ele>72.8</ele>
        <time>2018-04-02T18:09:44Z</time>
      </trkpt>
      <trkpt lat="62.633337120719" lon="17.972294127738">
        <ele>72.8</ele>
        <time>2018-04-02T18:09:45Z</time>
      </trkpt>
      <trkpt lat="62.633328235905" lon="17.972343245672">
        <ele>73</ele>
        <time>2018-04-02T18:09:46Z</time>
      </trkpt>
      <trkpt lat="62.633320021643" lon="17.972388088837">
        <ele>73.2</ele>
        <time>2018-04-02T18:09:47Z</time>
      </trkpt>
      <trkpt lat="62.633311304467" lon="17.972424466283">
        <ele>73.2</ele>
        <time>2018-04-02T18:09:48Z</time>
      </trkpt>
      <trkpt lat="62.633300407997" lon="17.972481211746">
        <ele>73.4</ele>
        <time>2018-04-02T18:09:49Z</time>
      </trkpt>
      <trkpt lat="62.633293618658" lon="17.972524378531">
        <ele>73.4</ele>
        <time>2018-04-02T18:09:50Z</time>
      </trkpt>
      <trkpt lat="62.633281464903" lon="17.972578525605">
        <ele>73.6</ele>
        <time>2018-04-02T18:09:51Z</time>
      </trkpt>
      <trkpt lat="62.633272328632" lon="17.972626050978">
        <ele>73.6</ele>
        <time>2018-04-02T18:09:52Z</time>
      </trkpt>
      <trkpt lat="62.633263695275" lon="17.972668882487">
        <ele>73.8</ele>
        <time>2018-04-02T18:09:53Z</time>
      </trkpt>
      <trkpt lat="62.633252044434" lon="17.972720179715">
        <ele>73.8</ele>
        <time>2018-04-02T18:09:54Z</time>
      </trkpt>
      <trkpt lat="62.633242405249" lon="17.972767202174">
        <ele>73.8</ele>
        <time>2018-04-02T18:09:55Z</time>
      </trkpt>
      <trkpt lat="62.633231760236" lon="17.972814895185">
        <ele>74</ele>
        <time>2018-04-02T18:09:56Z</time>
      </trkpt>
      <trkpt lat="62.633221618137" lon="17.972862085282">
        <ele>74.2</ele>
        <time>2018-04-02T18:09:57Z</time>
      </trkpt>
      <trkpt lat="62.633209548201" lon="17.972913801605">
        <ele>74.2</ele>
        <time>2018-04-02T18:09:58Z</time>
      </trkpt>
      <trkpt lat="62.633197478265" lon="17.972963003358">
        <ele>74.2</ele>
        <time>2018-04-02T18:09:59Z</time>
      </trkpt>
      <trkpt lat="62.633190437469" lon="17.973003404116">
        <ele>74.2</ele>
        <time>2018-04-02T18:10:00Z</time>
      </trkpt>
      <trkpt lat="62.633177948438" lon="17.973062245054">
        <ele>74.4</ele>
        <time>2018-04-02T18:10:01Z</time>
      </trkpt>
      <trkpt lat="62.633167471063" lon="17.973105998572">
        <ele>74.4</ele>
        <time>2018-04-02T18:10:02Z</time>
      </trkpt>
      <trkpt lat="62.633164453579" lon="17.973154194497">
        <ele>74.4</ele>
        <time>2018-04-02T18:10:03Z</time>
      </trkpt>
      <trkpt lat="62.633149952892" lon="17.973218651308">
        <ele>74.6</ele>
        <time>2018-04-02T18:10:04Z</time>
      </trkpt>
      <trkpt lat="62.633140565164" lon="17.973269529441">
        <ele>74.6</ele>
        <time>2018-04-02T18:10:05Z</time>
      </trkpt>
      <trkpt lat="62.633127070305" lon="17.973321748678">
        <ele>74.8</ele>
        <time>2018-04-02T18:10:06Z</time>
      </trkpt>
      <trkpt lat="62.633115000369" lon="17.973375392838">
        <ele>74.8</ele>
        <time>2018-04-02T18:10:07Z</time>
      </trkpt>
      <trkpt lat="62.633105947917" lon="17.973417218519">
        <ele>74.8</ele>
        <time>2018-04-02T18:10:08Z</time>
      </trkpt>
      <trkpt lat="62.633091614868" lon="17.973467342281">
        <ele>75</ele>
        <time>2018-04-02T18:10:09Z</time>
      </trkpt>
      <trkpt lat="62.633078958199" lon="17.973517549862">
        <ele>75.2</ele>
        <time>2018-04-02T18:10:10Z</time>
      </trkpt>
      <trkpt lat="62.633068397005" lon="17.973562057751">
        <ele>75.2</ele>
        <time>2018-04-02T18:10:11Z</time>
      </trkpt>
      <trkpt lat="62.633057249078" lon="17.973608996391">
        <ele>75.2</ele>
        <time>2018-04-02T18:10:12Z</time>
      </trkpt>
      <trkpt lat="62.633046017332" lon="17.973657192316">
        <ele>75.4</ele>
        <time>2018-04-02T18:10:13Z</time>
      </trkpt>
      <trkpt lat="62.63303277393" lon="17.973713518684">
        <ele>75.6</ele>
        <time>2018-04-02T18:10:14Z</time>
      </trkpt>
      <trkpt lat="62.633020871632" lon="17.973763558627">
        <ele>75.4</ele>
        <time>2018-04-02T18:10:15Z</time>
      </trkpt>
      <trkpt lat="62.633008047325" lon="17.973814017665">
        <ele>75.6</ele>
        <time>2018-04-02T18:10:16Z</time>
      </trkpt>
      <trkpt lat="62.632994301009" lon="17.973864309065">
        <ele>75.8</ele>
        <time>2018-04-02T18:10:17Z</time>
      </trkpt>
      <trkpt lat="62.632986505842" lon="17.973905128918">
        <ele>75.8</ele>
        <time>2018-04-02T18:10:18Z</time>
      </trkpt>
      <trkpt lat="62.632970664051" lon="17.973968160806">
        <ele>75.8</ele>
        <time>2018-04-02T18:10:19Z</time>
      </trkpt>
      <trkpt lat="62.632956247183" lon="17.974018703663">
        <ele>76</ele>
        <time>2018-04-02T18:10:20Z</time>
      </trkpt>
      <trkpt lat="62.632945266894" lon="17.974069581796">
        <ele>76</ele>
        <time>2018-04-02T18:10:21Z</time>
      </trkpt>
      <trkpt lat="62.632932777863" lon="17.974120040834">
        <ele>76.2</ele>
        <time>2018-04-02T18:10:22Z</time>
      </trkpt>
      <trkpt lat="62.632919869737" lon="17.974166979474">
        <ele>76.2</ele>
        <time>2018-04-02T18:10:23Z</time>
      </trkpt>
      <trkpt lat="62.632911487837" lon="17.974213247562">
        <ele>76</ele>
        <time>2018-04-02T18:10:24Z</time>
      </trkpt>
      <trkpt lat="62.632894975494" lon="17.974269657749">
        <ele>76.4</ele>
        <time>2018-04-02T18:10:25Z</time>
      </trkpt>
      <trkpt lat="62.63288189973" lon="17.974314165638">
        <ele>76.2</ele>
        <time>2018-04-02T18:10:26Z</time>
      </trkpt>
      <trkpt lat="62.632863878645" lon="17.974354650215">
        <ele>76.4</ele>
        <time>2018-04-02T18:10:27Z</time>
      </trkpt>
      <trkpt lat="62.632846192836" lon="17.974401924131">
        <ele>76.6</ele>
        <time>2018-04-02T18:10:28Z</time>
      </trkpt>
      <trkpt lat="62.632833536167" lon="17.974442743984">
        <ele>76.6</ele>
        <time>2018-04-02T18:10:29Z</time>
      </trkpt>
      <trkpt lat="62.632817526738" lon="17.97449504704">
        <ele>76.6</ele>
        <time>2018-04-02T18:10:30Z</time>
      </trkpt>
      <trkpt lat="62.632805289164" lon="17.974525724794">
        <ele>76.8</ele>
        <time>2018-04-02T18:10:31Z</time>
      </trkpt>
      <trkpt lat="62.63279472797" lon="17.974549613209">
        <ele>76.6</ele>
        <time>2018-04-02T18:10:32Z</time>
      </trkpt>
      <trkpt lat="62.632789615011" lon="17.974555815815">
        <ele>76.6</ele>
        <time>2018-04-02T18:10:33Z</time>
      </trkpt>
      <trkpt lat="62.632787603355" lon="17.974553217426">
        <ele>76.6</ele>
        <time>2018-04-02T18:10:34Z</time>
      </trkpt>
      <trkpt lat="62.632789866468" lon="17.974555229082">
        <ele>76.6</ele>
        <time>2018-04-02T18:10:35Z</time>
      </trkpt>
      <trkpt lat="62.632706466563" lon="17.975002235809">
        <ele>76.8</ele>
        <time>2018-04-02T18:11:26Z</time>
      </trkpt>
      <trkpt lat="62.632694731903" lon="17.975049174449">
        <ele>77</ele>
        <time>2018-04-02T18:11:27Z</time>
      </trkpt>
      <trkpt lat="62.632680901768" lon="17.975105836093">
        <ele>77</ele>
        <time>2018-04-02T18:11:28Z</time>
      </trkpt>
      <trkpt lat="62.632669167108" lon="17.97515302619">
        <ele>77</ele>
        <time>2018-04-02T18:11:29Z</time>
      </trkpt>
      <trkpt lat="62.632654582602" lon="17.975208179092">
        <ele>77.2</ele>
        <time>2018-04-02T18:11:30Z</time>
      </trkpt>
      <trkpt lat="62.632643267037" lon="17.9752611527">
        <ele>77.2</ele>
        <time>2018-04-02T18:11:31Z</time>
      </trkpt>
      <trkpt lat="62.632631867653" lon="17.975312449928">
        <ele>77.2</ele>
        <time>2018-04-02T18:11:32Z</time>
      </trkpt>
      <trkpt lat="62.632619043346" lon="17.97536508826">
        <ele>77.4</ele>
        <time>2018-04-02T18:11:33Z</time>
      </trkpt>
      <trkpt lat="62.632604375021" lon="17.975421330809">
        <ele>77.4</ele>
        <time>2018-04-02T18:11:34Z</time>
      </trkpt>
      <trkpt lat="62.632591466895" lon="17.975470867838">
        <ele>77.4</ele>
        <time>2018-04-02T18:11:35Z</time>
      </trkpt>
      <trkpt lat="62.632579229321" lon="17.97552602074">
        <ele>77.4</ele>
        <time>2018-04-02T18:11:36Z</time>
      </trkpt>
      <trkpt lat="62.63256841667" lon="17.975578910529">
        <ele>77.4</ele>
        <time>2018-04-02T18:11:37Z</time>
      </trkpt>
      <trkpt lat="62.632557771657" lon="17.975635655992">
        <ele>77.6</ele>
        <time>2018-04-02T18:11:38Z</time>
      </trkpt>
      <trkpt lat="62.632548132472" lon="17.975694329292">
        <ele>77.6</ele>
        <time>2018-04-02T18:11:39Z</time>
      </trkpt>
      <trkpt lat="62.632538744744" lon="17.975749314556">
        <ele>77.6</ele>
        <time>2018-04-02T18:11:40Z</time>
      </trkpt>
      <trkpt lat="62.63252985993" lon="17.97579843249">
        <ele>77.6</ele>
        <time>2018-04-02T18:11:41Z</time>
      </trkpt>
      <trkpt lat="62.632519214917" lon="17.975854758858">
        <ele>77.6</ele>
        <time>2018-04-02T18:11:42Z</time>
      </trkpt>
      <trkpt lat="62.632506977343" lon="17.975910163217">
        <ele>77.8</ele>
        <time>2018-04-02T18:11:43Z</time>
      </trkpt>
      <trkpt lat="62.632493985398" lon="17.975967243956">
        <ele>77.6</ele>
        <time>2018-04-02T18:11:44Z</time>
      </trkpt>
      <trkpt lat="62.632481915462" lon="17.976020133745">
        <ele>77.6</ele>
        <time>2018-04-02T18:11:45Z</time>
      </trkpt>
      <trkpt lat="62.632470683716" lon="17.976071933887">
        <ele>77.6</ele>
        <time>2018-04-02T18:11:46Z</time>
      </trkpt>
      <trkpt lat="62.632460960712" lon="17.976118788708">
        <ele>77.8</ele>
        <time>2018-04-02T18:11:47Z</time>
      </trkpt>
      <trkpt lat="62.63244939369" lon="17.97617226523">
        <ele>77.6</ele>
        <time>2018-04-02T18:11:48Z</time>
      </trkpt>
      <trkpt lat="62.632436904659" lon="17.976228759236">
        <ele>77.6</ele>
        <time>2018-04-02T18:11:49Z</time>
      </trkpt>
      <trkpt lat="62.632425421456" lon="17.976278799179">
        <ele>77.8</ele>
        <time>2018-04-02T18:11:50Z</time>
      </trkpt>
      <trkpt lat="62.632413938253" lon="17.976331856606">
        <ele>78</ele>
        <time>2018-04-02T18:11:51Z</time>
      </trkpt>
      <trkpt lat="62.63240245505" lon="17.976382986196">
        <ele>78</ele>
        <time>2018-04-02T18:11:52Z</time>
      </trkpt>
      <trkpt lat="62.632390049838" lon="17.976435037795">
        <ele>78</ele>
        <time>2018-04-02T18:11:53Z</time>
      </trkpt>
      <trkpt lat="62.632375213875" lon="17.976493794914">
        <ele>78</ele>
        <time>2018-04-02T18:11:54Z</time>
      </trkpt>
      <trkpt lat="62.632363730672" lon="17.976543248124">
        <ele>78.2</ele>
        <time>2018-04-02T18:11:55Z</time>
      </trkpt>
      <trkpt lat="62.632350403451" lon="17.976601837605">
        <ele>78.2</ele>
        <time>2018-04-02T18:11:56Z</time>
      </trkpt>
      <trkpt lat="62.632339255524" lon="17.976651206996">
        <ele>78.2</ele>
        <time>2018-04-02T18:11:57Z</time>
      </trkpt>
      <trkpt lat="62.63232785614" lon="17.976703929147">
        <ele>78.2</ele>
        <time>2018-04-02T18:11:58Z</time>
      </trkpt>
      <trkpt lat="62.632315702385" lon="17.976756651298">
        <ele>78.2</ele>
        <time>2018-04-02T18:11:59Z</time>
      </trkpt>
      <trkpt lat="62.632304051544" lon="17.976813815856">
        <ele>78.2</ele>
        <time>2018-04-02T18:12:00Z</time>
      </trkpt>
      <trkpt lat="62.632291059599" lon="17.976865280722">
        <ele>78.2</ele>
        <time>2018-04-02T18:12:01Z</time>
      </trkpt>
      <trkpt lat="62.632279827853" lon="17.976915320665">
        <ele>78.2</ele>
        <time>2018-04-02T18:12:02Z</time>
      </trkpt>
      <trkpt lat="62.632266081537" lon="17.976973407232">
        <ele>78.2</ele>
        <time>2018-04-02T18:12:03Z</time>
      </trkpt>
      <trkpt lat="62.632252167583" lon="17.977030404152">
        <ele>78.2</ele>
        <time>2018-04-02T18:12:04Z</time>
      </trkpt>
      <trkpt lat="62.632239594733" lon="17.977079354448">
        <ele>78.4</ele>
        <time>2018-04-02T18:12:05Z</time>
      </trkpt>
      <trkpt lat="62.632224591132" lon="17.97713786011">
        <ele>78.4</ele>
        <time>2018-04-02T18:12:06Z</time>
      </trkpt>
      <trkpt lat="62.63221302411" lon="17.977187061863">
        <ele>78.4</ele>
        <time>2018-04-02T18:12:07Z</time>
      </trkpt>
      <trkpt lat="62.632199361613" lon="17.977244896973">
        <ele>78.4</ele>
        <time>2018-04-02T18:12:08Z</time>
      </trkpt>
      <trkpt lat="62.632187207858" lon="17.977300385151">
        <ele>78.6</ele>
        <time>2018-04-02T18:12:09Z</time>
      </trkpt>
      <trkpt lat="62.632175557017" lon="17.977352101474">
        <ele>78.8</ele>
        <time>2018-04-02T18:12:10Z</time>
      </trkpt>
      <trkpt lat="62.632162816529" lon="17.977406835281">
        <ele>78.8</ele>
        <time>2018-04-02T18:12:11Z</time>
      </trkpt>
      <trkpt lat="62.632150578955" lon="17.977461736726">
        <ele>78.8</ele>
        <time>2018-04-02T18:12:12Z</time>
      </trkpt>
      <trkpt lat="62.632136497363" lon="17.977520996759">
        <ele>79</ele>
        <time>2018-04-02T18:12:13Z</time>
      </trkpt>
      <trkpt lat="62.632124595065" lon="17.977573802729">
        <ele>79</ele>
        <time>2018-04-02T18:12:14Z</time>
      </trkpt>
      <trkpt lat="62.632112357491" lon="17.977628871812">
        <ele>79</ele>
        <time>2018-04-02T18:12:15Z</time>
      </trkpt>
      <trkpt lat="62.632099952279" lon="17.977681510144">
        <ele>79.2</ele>
        <time>2018-04-02T18:12:16Z</time>
      </trkpt>
      <trkpt lat="62.632088888171" lon="17.977727778232">
        <ele>79.2</ele>
        <time>2018-04-02T18:12:17Z</time>
      </trkpt>
      <trkpt lat="62.632074806579" lon="17.977783853143">
        <ele>79.2</ele>
        <time>2018-04-02T18:12:18Z</time>
      </trkpt>
      <trkpt lat="62.632062736643" lon="17.977834479819">
        <ele>79.4</ele>
        <time>2018-04-02T18:12:19Z</time>
      </trkpt>
      <trkpt lat="62.632049241784" lon="17.97788804016">
        <ele>79.4</ele>
        <time>2018-04-02T18:12:20Z</time>
      </trkpt>
      <trkpt lat="62.632037423305" lon="17.977942019596">
        <ele>79.4</ele>
        <time>2018-04-02T18:12:21Z</time>
      </trkpt>
      <trkpt lat="62.63202610774" lon="17.977987868589">
        <ele>79.4</ele>
        <time>2018-04-02T18:12:22Z</time>
      </trkpt>
      <trkpt lat="62.632012948157" lon="17.978037573256">
        <ele>79.6</ele>
        <time>2018-04-02T18:12:23Z</time>
      </trkpt>
      <trkpt lat="62.631999788574" lon="17.97809088214">
        <ele>79.6</ele>
        <time>2018-04-02T18:12:24Z</time>
      </trkpt>
      <trkpt lat="62.631987299543" lon="17.978140419169">
        <ele>79.6</ele>
        <time>2018-04-02T18:12:25Z</time>
      </trkpt>
      <trkpt lat="62.631974726693" lon="17.978196410261">
        <ele>79.6</ele>
        <time>2018-04-02T18:12:26Z</time>
      </trkpt>
      <trkpt lat="62.631963578766" lon="17.978246198747">
        <ele>79.6</ele>
        <time>2018-04-02T18:12:27Z</time>
      </trkpt>
      <trkpt lat="62.631950335364" lon="17.978301686925">
        <ele>79.8</ele>
        <time>2018-04-02T18:12:28Z</time>
      </trkpt>
      <trkpt lat="62.631939690351" lon="17.978345105167">
        <ele>80</ele>
        <time>2018-04-02T18:12:29Z</time>
      </trkpt>
      <trkpt lat="62.631926279311" lon="17.978399168422">
        <ele>79.8</ele>
        <time>2018-04-02T18:12:30Z</time>
      </trkpt>
      <trkpt lat="62.631915550479" lon="17.978451052383">
        <ele>79.8</ele>
        <time>2018-04-02T18:12:31Z</time>
      </trkpt>
      <trkpt lat="62.631904151095" lon="17.978499835041">
        <ele>80</ele>
        <time>2018-04-02T18:12:32Z</time>
      </trkpt>
      <trkpt lat="62.631890488598" lon="17.978552305735">
        <ele>80.2</ele>
        <time>2018-04-02T18:12:33Z</time>
      </trkpt>
      <trkpt lat="62.631879256852" lon="17.978600585479">
        <ele>80.2</ele>
        <time>2018-04-02T18:12:34Z</time>
      </trkpt>
      <trkpt lat="62.631867270735" lon="17.978647859395">
        <ele>80.2</ele>
        <time>2018-04-02T18:12:35Z</time>
      </trkpt>
      <trkpt lat="62.631854949342" lon="17.978697647881">
        <ele>80.4</ele>
        <time>2018-04-02T18:12:36Z</time>
      </trkpt>
      <trkpt lat="62.631844136691" lon="17.978743580693">
        <ele>80.4</ele>
        <time>2018-04-02T18:12:37Z</time>
      </trkpt>
      <trkpt lat="62.631832737307" lon="17.978795045559">
        <ele>80.4</ele>
        <time>2018-04-02T18:12:38Z</time>
      </trkpt>
      <trkpt lat="62.631820583552" lon="17.978841146009">
        <ele>80.4</ele>
        <time>2018-04-02T18:12:39Z</time>
      </trkpt>
      <trkpt lat="62.631810106177" lon="17.978887078821">
        <ele>80.4</ele>
        <time>2018-04-02T18:12:40Z</time>
      </trkpt>
      <trkpt lat="62.631799377345" lon="17.978936867307">
        <ele>80.6</ele>
        <time>2018-04-02T18:12:41Z</time>
      </trkpt>
      <trkpt lat="62.631788313237" lon="17.978986488155">
        <ele>80.6</ele>
        <time>2018-04-02T18:12:42Z</time>
      </trkpt>
      <trkpt lat="62.631775824206" lon="17.979037282469">
        <ele>80.8</ele>
        <time>2018-04-02T18:12:43Z</time>
      </trkpt>
      <trkpt lat="62.631763921908" lon="17.979087992964">
        <ele>80.8</ele>
        <time>2018-04-02T18:12:44Z</time>
      </trkpt>
      <trkpt lat="62.631751851972" lon="17.979137194717">
        <ele>80.8</ele>
        <time>2018-04-02T18:12:45Z</time>
      </trkpt>
      <trkpt lat="62.631740704045" lon="17.979184636271">
        <ele>81</ele>
        <time>2018-04-02T18:12:46Z</time>
      </trkpt>
      <trkpt lat="62.63172938848" lon="17.979230736721">
        <ele>81</ele>
        <time>2018-04-02T18:12:47Z</time>
      </trkpt>
      <trkpt lat="62.631717067087" lon="17.979286057261">
        <ele>81</ele>
        <time>2018-04-02T18:12:48Z</time>
      </trkpt>
      <trkpt lat="62.631704829513" lon="17.979337689765">
        <ele>81</ele>
        <time>2018-04-02T18:12:49Z</time>
      </trkpt>
      <trkpt lat="62.631692005206" lon="17.97938672388">
        <ele>81</ele>
        <time>2018-04-02T18:12:50Z</time>
      </trkpt>
      <trkpt lat="62.631679516175" lon="17.97943617709">
        <ele>81.2</ele>
        <time>2018-04-02T18:12:51Z</time>
      </trkpt>
      <trkpt lat="62.63166568604" lon="17.979481858445">
        <ele>81.2</ele>
        <time>2018-04-02T18:12:52Z</time>
      </trkpt>
      <trkpt lat="62.631652442638" lon="17.979528797085">
        <ele>81.2</ele>
        <time>2018-04-02T18:12:53Z</time>
      </trkpt>
      <trkpt lat="62.631636517028" lon="17.979581519236">
        <ele>81.2</ele>
        <time>2018-04-02T18:12:54Z</time>
      </trkpt>
      <trkpt lat="62.631622854531" lon="17.979629547523">
        <ele>81.4</ele>
        <time>2018-04-02T18:12:55Z</time>
      </trkpt>
      <trkpt lat="62.631608521482" lon="17.979681515303">
        <ele>81.4</ele>
        <time>2018-04-02T18:12:56Z</time>
      </trkpt>
      <trkpt lat="62.63159443989" lon="17.979726358468">
        <ele>81.4</ele>
        <time>2018-04-02T18:12:57Z</time>
      </trkpt>
      <trkpt lat="62.631580358298" lon="17.979773297108">
        <ele>81.4</ele>
        <time>2018-04-02T18:12:58Z</time>
      </trkpt>
      <trkpt lat="62.631566695801" lon="17.97981587716">
        <ele>81.4</ele>
        <time>2018-04-02T18:12:59Z</time>
      </trkpt>
      <trkpt lat="62.631551859838" lon="17.9798628158">
        <ele>81.4</ele>
        <time>2018-04-02T18:13:00Z</time>
      </trkpt>
      <trkpt lat="62.631538197341" lon="17.979904641481">
        <ele>81.4</ele>
        <time>2018-04-02T18:13:01Z</time>
      </trkpt>
      <trkpt lat="62.631520762989" lon="17.979941354203">
        <ele>81.4</ele>
        <time>2018-04-02T18:13:02Z</time>
      </trkpt>
      <trkpt lat="62.631501316981" lon="17.979980497676">
        <ele>81.4</ele>
        <time>2018-04-02T18:13:03Z</time>
      </trkpt>
      <trkpt lat="62.631479943136" lon="17.980010672516">
        <ele>81.6</ele>
        <time>2018-04-02T18:13:04Z</time>
      </trkpt>
      <trkpt lat="62.631457144368" lon="17.980028358325">
        <ele>81.4</ele>
        <time>2018-04-02T18:13:05Z</time>
      </trkpt>
      <trkpt lat="62.631431914849" lon="17.980040428261">
        <ele>81.4</ele>
        <time>2018-04-02T18:13:06Z</time>
      </trkpt>
      <trkpt lat="62.63140836171" lon="17.980052498197">
        <ele>81.4</ele>
        <time>2018-04-02T18:13:07Z</time>
      </trkpt>
      <trkpt lat="62.631384305657" lon="17.980067082703">
        <ele>81.4</ele>
        <time>2018-04-02T18:13:08Z</time>
      </trkpt>
      <trkpt lat="62.631365027287" lon="17.980076470431">
        <ele>81.4</ele>
        <time>2018-04-02T18:13:09Z</time>
      </trkpt>
      <trkpt lat="62.631346754745" lon="17.980084265598">
        <ele>81.4</ele>
        <time>2018-04-02T18:13:10Z</time>
      </trkpt>
      <trkpt lat="62.631328063108" lon="17.980087953634">
        <ele>81.4</ele>
        <time>2018-04-02T18:13:11Z</time>
      </trkpt>
      <trkpt lat="62.631309539109" lon="17.980090132928">
        <ele>81.4</ele>
        <time>2018-04-02T18:13:12Z</time>
      </trkpt>
      <trkpt lat="62.631291434205" lon="17.980083343589">
        <ele>81.6</ele>
        <time>2018-04-02T18:13:13Z</time>
      </trkpt>
      <trkpt lat="62.63128095683" lon="17.980074123499">
        <ele>81.6</ele>
        <time>2018-04-02T18:13:14Z</time>
      </trkpt>
      <trkpt lat="62.631286321246" lon="17.980064903409">
        <ele>81.6</ele>
        <time>2018-04-02T18:13:15Z</time>
      </trkpt>
      <trkpt lat="62.63129688244" lon="17.980065741599">
        <ele>81.6</ele>
        <time>2018-04-02T18:13:16Z</time>
      </trkpt>
      <trkpt lat="62.631306018711" lon="17.98006817235">
        <ele>81.6</ele>
        <time>2018-04-02T18:13:17Z</time>
      </trkpt>
      <trkpt lat="62.631319429751" lon="17.980066998884">
        <ele>81.6</ele>
        <time>2018-04-02T18:13:18Z</time>
      </trkpt>
      <trkpt lat="62.631332421696" lon="17.980068507626">
        <ele>81.6</ele>
        <time>2018-04-02T18:13:19Z</time>
      </trkpt>
      <trkpt lat="62.631343988718" lon="17.980065573961">
        <ele>81.4</ele>
        <time>2018-04-02T18:13:20Z</time>
      </trkpt>
      <trkpt lat="62.631350358962" lon="17.980063646124">
        <ele>81.4</ele>
        <time>2018-04-02T18:13:21Z</time>
      </trkpt>
      <trkpt lat="62.631357902672" lon="17.980060209545">
        <ele>81.4</ele>
        <time>2018-04-02T18:13:22Z</time>
      </trkpt>
      <trkpt lat="62.631366200753" lon="17.980056186233">
        <ele>81.4</ele>
        <time>2018-04-02T18:13:23Z</time>
      </trkpt>
      <trkpt lat="62.631369637332" lon="17.98005727588">
        <ele>81.4</ele>
        <time>2018-04-02T18:13:24Z</time>
      </trkpt>
      <trkpt lat="62.631372990092" lon="17.980053755482">
        <ele>81.4</ele>
        <time>2018-04-02T18:13:25Z</time>
      </trkpt>
      <trkpt lat="62.631367038943" lon="17.980061131554">
        <ele>81.4</ele>
        <time>2018-04-02T18:13:26Z</time>
      </trkpt>
      <trkpt lat="62.631375923757" lon="17.980663203431">
        <ele>81</ele>
        <time>2018-04-02T18:16:42Z</time>
      </trkpt>
      <trkpt lat="62.631376761947" lon="17.98072698969">
        <ele>80.8</ele>
        <time>2018-04-02T18:16:43Z</time>
      </trkpt>
      <trkpt lat="62.631378019232" lon="17.980793877252">
        <ele>80.6</ele>
        <time>2018-04-02T18:16:44Z</time>
      </trkpt>
      <trkpt lat="62.631377013404" lon="17.980860764814">
        <ele>80.6</ele>
        <time>2018-04-02T18:16:45Z</time>
      </trkpt>
      <trkpt lat="62.631377767775" lon="17.980919941028">
        <ele>80.4</ele>
        <time>2018-04-02T18:16:46Z</time>
      </trkpt>
      <trkpt lat="62.631376929585" lon="17.980980458346">
        <ele>80.2</ele>
        <time>2018-04-02T18:16:47Z</time>
      </trkpt>
      <trkpt lat="62.631376091395" lon="17.981052877962">
        <ele>80</ele>
        <time>2018-04-02T18:16:48Z</time>
      </trkpt>
      <trkpt lat="62.631376091395" lon="17.981117753868">
        <ele>80</ele>
        <time>2018-04-02T18:16:49Z</time>
      </trkpt>
      <trkpt lat="62.631374750291" lon="17.981179109376">
        <ele>79.8</ele>
        <time>2018-04-02T18:16:50Z</time>
      </trkpt>
      <trkpt lat="62.63137483411" lon="17.981239794332">
        <ele>79.8</ele>
        <time>2018-04-02T18:16:51Z</time>
      </trkpt>
      <trkpt lat="62.631373493006" lon="17.981299724917">
        <ele>79.8</ele>
        <time>2018-04-02T18:16:52Z</time>
      </trkpt>
      <trkpt lat="62.631373409187" lon="17.981361331882">
        <ele>79.8</ele>
        <time>2018-04-02T18:16:53Z</time>
      </trkpt>
      <trkpt lat="62.631373493006" lon="17.981430734014">
        <ele>79.8</ele>
        <time>2018-04-02T18:16:54Z</time>
      </trkpt>
      <trkpt lat="62.631373576825" lon="17.981494436454">
        <ele>79.8</ele>
        <time>2018-04-02T18:16:55Z</time>
      </trkpt>
      <trkpt lat="62.631374247377" lon="17.981560485826">
        <ele>79.8</ele>
        <time>2018-04-02T18:16:56Z</time>
      </trkpt>
      <trkpt lat="62.631374079739" lon="17.981620584049">
        <ele>79.8</ele>
        <time>2018-04-02T18:16:57Z</time>
      </trkpt>
      <trkpt lat="62.6313756723" lon="17.981685627593">
        <ele>79.8</ele>
        <time>2018-04-02T18:16:58Z</time>
      </trkpt>
      <trkpt lat="62.631376594309" lon="17.981746647825">
        <ele>79.6</ele>
        <time>2018-04-02T18:16:59Z</time>
      </trkpt>
      <trkpt lat="62.631377516318" lon="17.981809428256">
        <ele>79.6</ele>
        <time>2018-04-02T18:17:00Z</time>
      </trkpt>
      <trkpt lat="62.631377935413" lon="17.98187111904">
        <ele>79.6</ele>
        <time>2018-04-02T18:17:01Z</time>
      </trkpt>
      <trkpt lat="62.631378438327" lon="17.981924427924">
        <ele>79.6</ele>
        <time>2018-04-02T18:17:02Z</time>
      </trkpt>
      <trkpt lat="62.631381120535" lon="17.981992405133">
        <ele>79.6</ele>
        <time>2018-04-02T18:17:03Z</time>
      </trkpt>
      <trkpt lat="62.631383383648" lon="17.982054179736">
        <ele>79.6</ele>
        <time>2018-04-02T18:17:04Z</time>
      </trkpt>
      <trkpt lat="62.631386233494" lon="17.982108242991">
        <ele>79.6</ele>
        <time>2018-04-02T18:17:05Z</time>
      </trkpt>
      <trkpt lat="62.631385395304" lon="17.98217370563">
        <ele>79.6</ele>
        <time>2018-04-02T18:17:06Z</time>
      </trkpt>
      <trkpt lat="62.631385395304" lon="17.982226343962">
        <ele>79.6</ele>
        <time>2018-04-02T18:17:07Z</time>
      </trkpt>
      <trkpt lat="62.631385311485" lon="17.982289208212">
        <ele>79.6</ele>
        <time>2018-04-02T18:17:08Z</time>
      </trkpt>
      <trkpt lat="62.631385982037" lon="17.982347630055">
        <ele>79.8</ele>
        <time>2018-04-02T18:17:09Z</time>
      </trkpt>
      <trkpt lat="62.631387323141" lon="17.982408063554">
        <ele>79.8</ele>
        <time>2018-04-02T18:17:10Z</time>
      </trkpt>
      <trkpt lat="62.631385814399" lon="17.982466150121">
        <ele>79.8</ele>
        <time>2018-04-02T18:17:11Z</time>
      </trkpt>
      <trkpt lat="62.631385395304" lon="17.982523398498">
        <ele>79.6</ele>
        <time>2018-04-02T18:17:12Z</time>
      </trkpt>
      <trkpt lat="62.631385562942" lon="17.98259112425">
        <ele>79.6</ele>
        <time>2018-04-02T18:17:13Z</time>
      </trkpt>
      <trkpt lat="62.631386233494" lon="17.982651893025">
        <ele>79.6</ele>
        <time>2018-04-02T18:17:14Z</time>
      </trkpt>
      <trkpt lat="62.631387993693" lon="17.982716601293">
        <ele>79.6</ele>
        <time>2018-04-02T18:17:15Z</time>
      </trkpt>
      <trkpt lat="62.631387909874" lon="17.982776867154">
        <ele>79.6</ele>
        <time>2018-04-02T18:17:16Z</time>
      </trkpt>
      <trkpt lat="62.631388580426" lon="17.98282665564">
        <ele>79.8</ele>
        <time>2018-04-02T18:17:17Z</time>
      </trkpt>
      <trkpt lat="62.631388748064" lon="17.98289622541">
        <ele>79.6</ele>
        <time>2018-04-02T18:17:18Z</time>
      </trkpt>
      <trkpt lat="62.631389250978" lon="17.982953641425">
        <ele>79.4</ele>
        <time>2018-04-02T18:17:19Z</time>
      </trkpt>
      <trkpt lat="62.631388412788" lon="17.983010889802">
        <ele>79.4</ele>
        <time>2018-04-02T18:17:20Z</time>
      </trkpt>
      <trkpt lat="62.631388664245" lon="17.983069646921">
        <ele>79.6</ele>
        <time>2018-04-02T18:17:21Z</time>
      </trkpt>
      <trkpt lat="62.631389418616" lon="17.983124548366">
        <ele>79.6</ele>
        <time>2018-04-02T18:17:22Z</time>
      </trkpt>
      <trkpt lat="62.631389167159" lon="17.983184395132">
        <ele>79.6</ele>
        <time>2018-04-02T18:17:23Z</time>
      </trkpt>
      <trkpt lat="62.631389334797" lon="17.983242649337">
        <ele>79.6</ele>
        <time>2018-04-02T18:17:24Z</time>
      </trkpt>
      <trkpt lat="62.631390005349" lon="17.98330023299">
        <ele>79.6</ele>
        <time>2018-04-02T18:17:25Z</time>
      </trkpt>
      <trkpt lat="62.631389502435" lon="17.983354212426">
        <ele>79.6</ele>
        <time>2018-04-02T18:17:26Z</time>
      </trkpt>
      <trkpt lat="62.631388915702" lon="17.983405677292">
        <ele>79.4</ele>
        <time>2018-04-02T18:17:27Z</time>
      </trkpt>
      <trkpt lat="62.631389586254" lon="17.983466781343">
        <ele>79.4</ele>
        <time>2018-04-02T18:17:28Z</time>
      </trkpt>
      <trkpt lat="62.631390843539" lon="17.983517910933">
        <ele>79.4</ele>
        <time>2018-04-02T18:17:29Z</time>
      </trkpt>
      <trkpt lat="62.631392352281" lon="17.983581529554">
        <ele>79.6</ele>
        <time>2018-04-02T18:17:30Z</time>
      </trkpt>
      <trkpt lat="62.631394866851" lon="17.983638191198">
        <ele>79.6</ele>
        <time>2018-04-02T18:17:31Z</time>
      </trkpt>
      <trkpt lat="62.631396459412" lon="17.983688482598">
        <ele>79.6</ele>
        <time>2018-04-02T18:17:32Z</time>
      </trkpt>
      <trkpt lat="62.631397968154" lon="17.983753023228">
        <ele>79.6</ele>
        <time>2018-04-02T18:17:33Z</time>
      </trkpt>
      <trkpt lat="62.631400482724" lon="17.983809684872">
        <ele>79.8</ele>
        <time>2018-04-02T18:17:34Z</time>
      </trkpt>
      <trkpt lat="62.631402326742" lon="17.983865005412">
        <ele>80</ele>
        <time>2018-04-02T18:17:35Z</time>
      </trkpt>
      <trkpt lat="62.631403584027" lon="17.983926025644">
        <ele>79.8</ele>
        <time>2018-04-02T18:17:36Z</time>
      </trkpt>
      <trkpt lat="62.631405595683" lon="17.983978747795">
        <ele>79.8</ele>
        <time>2018-04-02T18:17:37Z</time>
      </trkpt>
      <trkpt lat="62.631406266235" lon="17.984038510742">
        <ele>80</ele>
        <time>2018-04-02T18:17:38Z</time>
      </trkpt>
      <trkpt lat="62.631406098597" lon="17.984093496006">
        <ele>80</ele>
        <time>2018-04-02T18:17:39Z</time>
      </trkpt>
      <trkpt lat="62.631406098597" lon="17.984152001668">
        <ele>79.8</ele>
        <time>2018-04-02T18:17:40Z</time>
      </trkpt>
      <trkpt lat="62.631407942615" lon="17.984203466534">
        <ele>79.8</ele>
        <time>2018-04-02T18:17:41Z</time>
      </trkpt>
      <trkpt lat="62.631408780805" lon="17.984259457626">
        <ele>79.8</ele>
        <time>2018-04-02T18:17:42Z</time>
      </trkpt>
      <trkpt lat="62.631409954271" lon="17.984320729315">
        <ele>80</ele>
        <time>2018-04-02T18:17:43Z</time>
      </trkpt>
      <trkpt lat="62.631411546832" lon="17.984374708751">
        <ele>80</ele>
        <time>2018-04-02T18:17:44Z</time>
      </trkpt>
      <trkpt lat="62.631412720298" lon="17.984429610196">
        <ele>80</ele>
        <time>2018-04-02T18:17:45Z</time>
      </trkpt>
      <trkpt lat="62.631414648135" lon="17.984480488329">
        <ele>80</ele>
        <time>2018-04-02T18:17:46Z</time>
      </trkpt>
      <trkpt lat="62.631416827429" lon="17.984526924055">
        <ele>80.2</ele>
        <time>2018-04-02T18:17:47Z</time>
      </trkpt>
      <trkpt lat="62.631419928732" lon="17.984588866296">
        <ele>80</ele>
        <time>2018-04-02T18:17:48Z</time>
      </trkpt>
      <trkpt lat="62.631419090542" lon="17.984640917895">
        <ele>80.2</ele>
        <time>2018-04-02T18:17:49Z</time>
      </trkpt>
      <trkpt lat="62.631419341999" lon="17.984698250091">
        <ele>80.2</ele>
        <time>2018-04-02T18:17:50Z</time>
      </trkpt>
      <trkpt lat="62.631423281492" lon="17.984749547319">
        <ele>80.4</ele>
        <time>2018-04-02T18:17:51Z</time>
      </trkpt>
      <trkpt lat="62.631426969528" lon="17.984795647769">
        <ele>80.4</ele>
        <time>2018-04-02T18:17:52Z</time>
      </trkpt>
      <trkpt lat="62.631428897365" lon="17.984845939169">
        <ele>80.4</ele>
        <time>2018-04-02T18:17:53Z</time>
      </trkpt>
      <trkpt lat="62.631429484098" lon="17.984901008252">
        <ele>80.6</ele>
        <time>2018-04-02T18:17:54Z</time>
      </trkpt>
      <trkpt lat="62.631429484098" lon="17.984959933009">
        <ele>80.8</ele>
        <time>2018-04-02T18:17:55Z</time>
      </trkpt>
      <trkpt lat="62.631431160478" lon="17.985011649332">
        <ele>80.8</ele>
        <time>2018-04-02T18:17:56Z</time>
      </trkpt>
      <trkpt lat="62.631431495754" lon="17.985062695103">
        <ele>80.8</ele>
        <time>2018-04-02T18:17:57Z</time>
      </trkpt>
      <trkpt lat="62.631434094143" lon="17.985121703679">
        <ele>80.8</ele>
        <time>2018-04-02T18:17:58Z</time>
      </trkpt>
      <trkpt lat="62.631437279265" lon="17.985170151061">
        <ele>81</ele>
        <time>2018-04-02T18:17:59Z</time>
      </trkpt>
      <trkpt lat="62.631437195446" lon="17.985236032795">
        <ele>81</ele>
        <time>2018-04-02T18:18:00Z</time>
      </trkpt>
      <trkpt lat="62.631438285093" lon="17.985296047199">
        <ele>81</ele>
        <time>2018-04-02T18:18:01Z</time>
      </trkpt>
      <trkpt lat="62.631439877654" lon="17.985353463214">
        <ele>81</ele>
        <time>2018-04-02T18:18:02Z</time>
      </trkpt>
      <trkpt lat="62.63144021293" lon="17.985419680224">
        <ele>81.2</ele>
        <time>2018-04-02T18:18:03Z</time>
      </trkpt>
      <trkpt lat="62.63143937474" lon="17.985477347696">
        <ele>81</ele>
        <time>2018-04-02T18:18:04Z</time>
      </trkpt>
      <trkpt lat="62.63143686017" lon="17.98553484753">
        <ele>81</ele>
        <time>2018-04-02T18:18:05Z</time>
      </trkpt>
      <trkpt lat="62.631437614541" lon="17.985596705952">
        <ele>81</ele>
        <time>2018-04-02T18:18:06Z</time>
      </trkpt>
      <trkpt lat="62.631437530722" lon="17.98565303232">
        <ele>81.2</ele>
        <time>2018-04-02T18:18:07Z</time>
      </trkpt>
      <trkpt lat="62.631437027808" lon="17.985717824407">
        <ele>81</ele>
        <time>2018-04-02T18:18:08Z</time>
      </trkpt>
      <trkpt lat="62.631438704188" lon="17.985772977309">
        <ele>81</ele>
        <time>2018-04-02T18:18:09Z</time>
      </trkpt>
      <trkpt lat="62.631440380568" lon="17.9858391105">
        <ele>81</ele>
        <time>2018-04-02T18:18:10Z</time>
      </trkpt>
      <trkpt lat="62.631443314233" lon="17.985892922298">
        <ele>81</ele>
        <time>2018-04-02T18:18:11Z</time>
      </trkpt>
      <trkpt lat="62.631445661165" lon="17.985955032177">
        <ele>80.8</ele>
        <time>2018-04-02T18:18:12Z</time>
      </trkpt>
      <trkpt lat="62.631447589002" lon="17.986018064065">
        <ele>80.8</ele>
        <time>2018-04-02T18:18:13Z</time>
      </trkpt>
      <trkpt lat="62.631448175735" lon="17.986075899175">
        <ele>81</ele>
        <time>2018-04-02T18:18:14Z</time>
      </trkpt>
      <trkpt lat="62.631448343373" lon="17.986130632982">
        <ele>81</ele>
        <time>2018-04-02T18:18:15Z</time>
      </trkpt>
      <trkpt lat="62.63144859483" lon="17.98618528297">
        <ele>81.2</ele>
        <time>2018-04-02T18:18:16Z</time>
      </trkpt>
      <trkpt lat="62.631448511011" lon="17.98623892713">
        <ele>81.2</ele>
        <time>2018-04-02T18:18:17Z</time>
      </trkpt>
      <trkpt lat="62.631449349201" lon="17.986302713389">
        <ele>81</ele>
        <time>2018-04-02T18:18:18Z</time>
      </trkpt>
      <trkpt lat="62.631449349201" lon="17.986357782472">
        <ele>81.2</ele>
        <time>2018-04-02T18:18:19Z</time>
      </trkpt>
      <trkpt lat="62.6314511094" lon="17.986416371953">
        <ele>81.2</ele>
        <time>2018-04-02T18:18:20Z</time>
      </trkpt>
      <trkpt lat="62.631454713617" lon="17.986471692493">
        <ele>81.4</ele>
        <time>2018-04-02T18:18:21Z</time>
      </trkpt>
      <trkpt lat="62.631455551807" lon="17.986527180671">
        <ele>81.2</ele>
        <time>2018-04-02T18:18:22Z</time>
      </trkpt>
      <trkpt lat="62.631453540151" lon="17.986579148451">
        <ele>81.4</ele>
        <time>2018-04-02T18:18:23Z</time>
      </trkpt>
      <trkpt lat="62.631449935934" lon="17.986632541154">
        <ele>81.4</ele>
        <time>2018-04-02T18:18:24Z</time>
      </trkpt>
      <trkpt lat="62.63144691845" lon="17.98669238792">
        <ele>81.6</ele>
        <time>2018-04-02T18:18:25Z</time>
      </trkpt>
      <trkpt lat="62.63144188931" lon="17.986747037908">
        <ele>81.4</ele>
        <time>2018-04-02T18:18:26Z</time>
      </trkpt>
      <trkpt lat="62.631433842686" lon="17.986797329308">
        <ele>81.4</ele>
        <time>2018-04-02T18:18:27Z</time>
      </trkpt>
      <trkpt lat="62.631425544605" lon="17.986851308744">
        <ele>81.6</ele>
        <time>2018-04-02T18:18:28Z</time>
      </trkpt>
      <trkpt lat="62.631417665619" lon="17.986902522153">
        <ele>81.6</ele>
        <time>2018-04-02T18:18:29Z</time>
      </trkpt>
      <trkpt lat="62.631407188244" lon="17.986954992847">
        <ele>81.6</ele>
        <time>2018-04-02T18:18:30Z</time>
      </trkpt>
      <trkpt lat="62.631397884335" lon="17.987003859324">
        <ele>81.6</ele>
        <time>2018-04-02T18:18:31Z</time>
      </trkpt>
      <trkpt lat="62.631387155503" lon="17.987053899267">
        <ele>81.8</ele>
        <time>2018-04-02T18:18:32Z</time>
      </trkpt>
      <trkpt lat="62.631375253205" lon="17.987110477092">
        <ele>81.8</ele>
        <time>2018-04-02T18:18:33Z</time>
      </trkpt>
      <trkpt lat="62.631362428898" lon="17.987166049089">
        <ele>82</ele>
        <time>2018-04-02T18:18:34Z</time>
      </trkpt>
      <trkpt lat="62.631350358962" lon="17.987214664109">
        <ele>81.8</ele>
        <time>2018-04-02T18:18:35Z</time>
      </trkpt>
      <trkpt lat="62.631336612646" lon="17.987267637717">
        <ele>81.8</ele>
        <time>2018-04-02T18:18:36Z</time>
      </trkpt>
      <trkpt lat="62.631322614873" lon="17.987316085099">
        <ele>82</ele>
        <time>2018-04-02T18:18:37Z</time>
      </trkpt>
      <trkpt lat="62.631308784738" lon="17.987368471974">
        <ele>82</ele>
        <time>2018-04-02T18:18:38Z</time>
      </trkpt>
      <trkpt lat="62.631294703146" lon="17.987417338451">
        <ele>82</ele>
        <time>2018-04-02T18:18:39Z</time>
      </trkpt>
      <trkpt lat="62.631279531907" lon="17.987470060602">
        <ele>81.8</ele>
        <time>2018-04-02T18:18:40Z</time>
      </trkpt>
      <trkpt lat="62.631265953229" lon="17.987515825776">
        <ele>82</ele>
        <time>2018-04-02T18:18:41Z</time>
      </trkpt>
      <trkpt lat="62.631253045103" lon="17.987557064724">
        <ele>82</ele>
        <time>2018-04-02T18:18:42Z</time>
      </trkpt>
      <trkpt lat="62.63123569457" lon="17.987614732196">
        <ele>82</ele>
        <time>2018-04-02T18:18:43Z</time>
      </trkpt>
      <trkpt lat="62.631220020417" lon="17.987662676664">
        <ele>81.8</ele>
        <time>2018-04-02T18:18:44Z</time>
      </trkpt>
      <trkpt lat="62.631207279929" lon="17.987709363847">
        <ele>81.8</ele>
        <time>2018-04-02T18:18:45Z</time>
      </trkpt>
      <trkpt lat="62.631195042355" lon="17.987758062686">
        <ele>82</ele>
        <time>2018-04-02T18:18:46Z</time>
      </trkpt>
      <trkpt lat="62.631183140057" lon="17.987800307462">
        <ele>82</ele>
        <time>2018-04-02T18:18:47Z</time>
      </trkpt>
      <trkpt lat="62.631170148112" lon="17.987851520871">
        <ele>82</ele>
        <time>2018-04-02T18:18:48Z</time>
      </trkpt>
      <trkpt lat="62.631156485615" lon="17.987901309357">
        <ele>82</ele>
        <time>2018-04-02T18:18:49Z</time>
      </trkpt>
      <trkpt lat="62.631145421507" lon="17.987950427291">
        <ele>82.2</ele>
        <time>2018-04-02T18:18:50Z</time>
      </trkpt>
      <trkpt lat="62.631133603028" lon="17.988000551053">
        <ele>82.2</ele>
        <time>2018-04-02T18:18:51Z</time>
      </trkpt>
      <trkpt lat="62.63112170073" lon="17.988045142761">
        <ele>82.4</ele>
        <time>2018-04-02T18:18:52Z</time>
      </trkpt>
      <trkpt lat="62.631110636622" lon="17.98809132703">
        <ele>82.4</ele>
        <time>2018-04-02T18:18:53Z</time>
      </trkpt>
      <trkpt lat="62.631098063772" lon="17.988139020041">
        <ele>82.6</ele>
        <time>2018-04-02T18:18:54Z</time>
      </trkpt>
      <trkpt lat="62.631086748207" lon="17.988186713052">
        <ele>82.6</ele>
        <time>2018-04-02T18:18:55Z</time>
      </trkpt>
      <trkpt lat="62.63107643847" lon="17.988233400235">
        <ele>82.6</ele>
        <time>2018-04-02T18:18:56Z</time>
      </trkpt>
      <trkpt lat="62.631065206724" lon="17.988276483201">
        <ele>82.8</ele>
        <time>2018-04-02T18:18:57Z</time>
      </trkpt>
      <trkpt lat="62.631056405729" lon="17.988328870076">
        <ele>83</ele>
        <time>2018-04-02T18:18:58Z</time>
      </trkpt>
      <trkpt lat="62.631048526743" lon="17.988378323286">
        <ele>83.2</ele>
        <time>2018-04-02T18:18:59Z</time>
      </trkpt>
      <trkpt lat="62.631040731576" lon="17.988434649654">
        <ele>83</ele>
        <time>2018-04-02T18:19:00Z</time>
      </trkpt>
      <trkpt lat="62.631036037712" lon="17.988487623262">
        <ele>83.2</ele>
        <time>2018-04-02T18:19:01Z</time>
      </trkpt>
      <trkpt lat="62.631031260029" lon="17.988537747024">
        <ele>83.4</ele>
        <time>2018-04-02T18:19:02Z</time>
      </trkpt>
      <trkpt lat="62.631026733803" lon="17.988593235202">
        <ele>83.4</ele>
        <time>2018-04-02T18:19:03Z</time>
      </trkpt>
      <trkpt lat="62.631018687179" lon="17.988645873534">
        <ele>83.4</ele>
        <time>2018-04-02T18:19:04Z</time>
      </trkpt>
      <trkpt lat="62.631014160953" lon="17.988693818002">
        <ele>83.6</ele>
        <time>2018-04-02T18:19:05Z</time>
      </trkpt>
      <trkpt lat="62.631009886184" lon="17.988748635628">
        <ele>83.8</ele>
        <time>2018-04-02T18:19:06Z</time>
      </trkpt>
      <trkpt lat="62.631005779053" lon="17.988798256476">
        <ele>84</ele>
        <time>2018-04-02T18:19:07Z</time>
      </trkpt>
      <trkpt lat="62.630999827904" lon="17.988850140437">
        <ele>84</ele>
        <time>2018-04-02T18:19:08Z</time>
      </trkpt>
      <trkpt lat="62.63099345766" lon="17.988898755457">
        <ele>84.2</ele>
        <time>2018-04-02T18:19:09Z</time>
      </trkpt>
      <trkpt lat="62.630985411036" lon="17.988950974694">
        <ele>84.2</ele>
        <time>2018-04-02T18:19:10Z</time>
      </trkpt>
      <trkpt lat="62.630976945317" lon="17.988997829515">
        <ele>84.4</ele>
        <time>2018-04-02T18:19:11Z</time>
      </trkpt>
      <trkpt lat="62.630968898693" lon="17.989046276897">
        <ele>84.4</ele>
        <time>2018-04-02T18:19:12Z</time>
      </trkpt>
      <trkpt lat="62.630961354983" lon="17.989091371519">
        <ele>84.6</ele>
        <time>2018-04-02T18:19:13Z</time>
      </trkpt>
      <trkpt lat="62.630954230368" lon="17.989140824729">
        <ele>84.8</ele>
        <time>2018-04-02T18:19:14Z</time>
      </trkpt>
      <trkpt lat="62.630950374694" lon="17.989187176636">
        <ele>85</ele>
        <time>2018-04-02T18:19:15Z</time>
      </trkpt>
      <trkpt lat="62.630942998622" lon="17.989242245719">
        <ele>85</ele>
        <time>2018-04-02T18:19:16Z</time>
      </trkpt>
      <trkpt lat="62.63093729893" lon="17.989284322857">
        <ele>85.2</ele>
        <time>2018-04-02T18:19:17Z</time>
      </trkpt>
      <trkpt lat="62.630930174315" lon="17.989332434963">
        <ele>85.2</ele>
        <time>2018-04-02T18:19:18Z</time>
      </trkpt>
      <trkpt lat="62.630922462967" lon="17.989367471305">
        <ele>85.4</ele>
        <time>2018-04-02T18:19:19Z</time>
      </trkpt>
      <trkpt lat="62.630919110207" lon="17.989391443539">
        <ele>85.4</ele>
        <time>2018-04-02T18:19:20Z</time>
      </trkpt>
      <trkpt lat="62.630915925085" lon="17.989414158488">
        <ele>85.4</ele>
        <time>2018-04-02T18:19:21Z</time>
      </trkpt>
      <trkpt lat="62.630910393031" lon="17.989442070215">
        <ele>85.4</ele>
        <time>2018-04-02T18:19:23Z</time>
      </trkpt>
      <trkpt lat="62.630911482678" lon="17.989447099355">
        <ele>85.6</ele>
        <time>2018-04-02T18:19:24Z</time>
      </trkpt>
      <trkpt lat="62.630908884289" lon="17.989434861781">
        <ele>85.6</ele>
        <time>2018-04-02T18:19:25Z</time>
      </trkpt>
      <trkpt lat="62.630781563228" lon="17.989981948394">
        <ele>85.2</ele>
        <time>2018-04-02T18:20:48Z</time>
      </trkpt>
      <trkpt lat="62.630776282631" lon="17.990009189569">
        <ele>85</ele>
        <time>2018-04-02T18:20:49Z</time>
      </trkpt>
      <trkpt lat="62.630772007862" lon="17.990038274762">
        <ele>85</ele>
        <time>2018-04-02T18:20:50Z</time>
      </trkpt>
      <trkpt lat="62.630764967066" lon="17.990064342471">
        <ele>85</ele>
        <time>2018-04-02T18:20:51Z</time>
      </trkpt>
      <trkpt lat="62.63075876446" lon="17.990088063248">
        <ele>85</ele>
        <time>2018-04-02T18:20:52Z</time>
      </trkpt>
      <trkpt lat="62.63074954437" lon="17.990111281111">
        <ele>84.8</ele>
        <time>2018-04-02T18:20:53Z</time>
      </trkpt>
      <trkpt lat="62.630744431411" lon="17.990133409327">
        <ele>84.8</ele>
        <time>2018-04-02T18:20:54Z</time>
      </trkpt>
      <trkpt lat="62.630741246289" lon="17.990171882248">
        <ele>84.6</ele>
        <time>2018-04-02T18:20:55Z</time>
      </trkpt>
      <trkpt lat="62.630741833022" lon="17.990195686844">
        <ele>84.6</ele>
        <time>2018-04-02T18:20:56Z</time>
      </trkpt>
      <trkpt lat="62.630735714235" lon="17.990211025721">
        <ele>84.6</ele>
        <time>2018-04-02T18:20:57Z</time>
      </trkpt>
      <trkpt lat="62.630730098362" lon="17.990236925792">
        <ele>84.6</ele>
        <time>2018-04-02T18:20:58Z</time>
      </trkpt>
      <trkpt lat="62.630728002887" lon="17.990259389284">
        <ele>84.6</ele>
        <time>2018-04-02T18:20:59Z</time>
      </trkpt>
      <trkpt lat="62.630717441693" lon="17.990283612975">
        <ele>84.6</ele>
        <time>2018-04-02T18:21:00Z</time>
      </trkpt>
      <trkpt lat="62.630709897983" lon="17.990303813354">
        <ele>84.4</ele>
        <time>2018-04-02T18:21:01Z</time>
      </trkpt>
      <trkpt lat="62.630705455576" lon="17.990324013733">
        <ele>84.4</ele>
        <time>2018-04-02T18:21:02Z</time>
      </trkpt>
      <trkpt lat="62.630697157495" lon="17.990345639035">
        <ele>84.4</ele>
        <time>2018-04-02T18:21:03Z</time>
      </trkpt>
      <trkpt lat="62.630689949061" lon="17.99036198374">
        <ele>84.2</ele>
        <time>2018-04-02T18:21:04Z</time>
      </trkpt>
      <trkpt lat="62.630681986256" lon="17.990375730056">
        <ele>84.2</ele>
        <time>2018-04-02T18:21:05Z</time>
      </trkpt>
      <trkpt lat="62.630672514709" lon="17.990398947919">
        <ele>84.2</ele>
        <time>2018-04-02T18:21:06Z</time>
      </trkpt>
      <trkpt lat="62.630666312103" lon="17.990424093619">
        <ele>84.2</ele>
        <time>2018-04-02T18:21:07Z</time>
      </trkpt>
      <trkpt lat="62.630659606583" lon="17.990443371989">
        <ele>84</ele>
        <time>2018-04-02T18:21:08Z</time>
      </trkpt>
      <trkpt lat="62.630652901063" lon="17.990462231264">
        <ele>84</ele>
        <time>2018-04-02T18:21:09Z</time>
      </trkpt>
      <trkpt lat="62.630649213027" lon="17.990481174358">
        <ele>84</ele>
        <time>2018-04-02T18:21:10Z</time>
      </trkpt>
      <trkpt lat="62.630644519163" lon="17.990499363081">
        <ele>84</ele>
        <time>2018-04-02T18:21:11Z</time>
      </trkpt>
      <trkpt lat="62.630637813643" lon="17.990524173505">
        <ele>84</ele>
        <time>2018-04-02T18:21:12Z</time>
      </trkpt>
      <trkpt lat="62.630627671544" lon="17.99054554735">
        <ele>84</ele>
        <time>2018-04-02T18:21:13Z</time>
      </trkpt>
      <trkpt lat="62.630613673771" lon="17.990569519584">
        <ele>84</ele>
        <time>2018-04-02T18:21:14Z</time>
      </trkpt>
      <trkpt lat="62.630595233591" lon="17.99060757341">
        <ele>84</ele>
        <time>2018-04-02T18:21:15Z</time>
      </trkpt>
      <trkpt lat="62.630577044868" lon="17.990646046331">
        <ele>84</ele>
        <time>2018-04-02T18:21:16Z</time>
      </trkpt>
      <trkpt lat="62.630561035439" lon="17.990679238655">
        <ele>84</ele>
        <time>2018-04-02T18:21:17Z</time>
      </trkpt>
      <trkpt lat="62.630541254155" lon="17.990718801223">
        <ele>84.2</ele>
        <time>2018-04-02T18:21:18Z</time>
      </trkpt>
      <trkpt lat="62.630525077088" lon="17.990756938868">
        <ele>84</ele>
        <time>2018-04-02T18:21:19Z</time>
      </trkpt>
      <trkpt lat="62.630507894193" lon="17.990795830884">
        <ele>84</ele>
        <time>2018-04-02T18:21:20Z</time>
      </trkpt>
      <trkpt lat="62.63049305823" lon="17.990837572746">
        <ele>84</ele>
        <time>2018-04-02T18:21:21Z</time>
      </trkpt>
      <trkpt lat="62.63047797081" lon="17.990881912997">
        <ele>84</ele>
        <time>2018-04-02T18:21:22Z</time>
      </trkpt>
      <trkpt lat="62.630461709924" lon="17.990923319583">
        <ele>83.8</ele>
        <time>2018-04-02T18:21:23Z</time>
      </trkpt>
      <trkpt lat="62.630444610848" lon="17.990955254622">
        <ele>83.8</ele>
        <time>2018-04-02T18:21:24Z</time>
      </trkpt>
      <trkpt lat="62.630428349962" lon="17.990970090585">
        <ele>83.8</ele>
        <time>2018-04-02T18:21:25Z</time>
      </trkpt>
      <trkpt lat="62.630420806252" lon="17.990988027851">
        <ele>83.8</ele>
        <time>2018-04-02T18:21:26Z</time>
      </trkpt>
      <trkpt lat="62.63041510656" lon="17.990997415579">
        <ele>83.8</ele>
        <time>2018-04-02T18:21:27Z</time>
      </trkpt>
      <trkpt lat="62.630412089076" lon="17.990997164122">
        <ele>83.6</ele>
        <time>2018-04-02T18:21:28Z</time>
      </trkpt>
      <trkpt lat="62.630412675809" lon="17.991008060592">
        <ele>83.6</ele>
        <time>2018-04-02T18:21:29Z</time>
      </trkpt>
      <trkpt lat="62.630409742144" lon="17.991002109443">
        <ele>83.6</ele>
        <time>2018-04-02T18:21:30Z</time>
      </trkpt>
      <trkpt lat="62.63041594475" lon="17.990995236285">
        <ele>83.6</ele>
        <time>2018-04-02T18:21:31Z</time>
      </trkpt>
      <trkpt lat="62.630562711819" lon="17.990871687079">
        <ele>83.4</ele>
        <time>2018-04-02T18:22:10Z</time>
      </trkpt>
      <trkpt lat="62.630568160054" lon="17.990859533324">
        <ele>83.4</ele>
        <time>2018-04-02T18:22:11Z</time>
      </trkpt>
      <trkpt lat="62.630566567493" lon="17.990862886084">
        <ele>83.4</ele>
        <time>2018-04-02T18:22:12Z</time>
      </trkpt>
      <trkpt lat="62.630566316036" lon="17.990859617143">
        <ele>83.6</ele>
        <time>2018-04-02T18:22:13Z</time>
      </trkpt>
      <trkpt lat="62.630637729824" lon="17.990582511529">
        <ele>84</ele>
        <time>2018-04-02T18:22:21Z</time>
      </trkpt>
      <trkpt lat="62.630653906891" lon="17.990536746355">
        <ele>84</ele>
        <time>2018-04-02T18:22:22Z</time>
      </trkpt>
      <trkpt lat="62.630668742854" lon="17.990482180186">
        <ele>84</ele>
        <time>2018-04-02T18:22:23Z</time>
      </trkpt>
      <trkpt lat="62.630684836102" lon="17.990430547682">
        <ele>84.2</ele>
        <time>2018-04-02T18:22:24Z</time>
      </trkpt>
      <trkpt lat="62.630694810563" lon="17.990378663721">
        <ele>84</ele>
        <time>2018-04-02T18:22:25Z</time>
      </trkpt>
      <trkpt lat="62.630705623214" lon="17.990323175543">
        <ele>84.2</ele>
        <time>2018-04-02T18:22:26Z</time>
      </trkpt>
      <trkpt lat="62.630717441693" lon="17.990275147256">
        <ele>84.2</ele>
        <time>2018-04-02T18:22:27Z</time>
      </trkpt>
      <trkpt lat="62.630730182181" lon="17.990220245811">
        <ele>84.2</ele>
        <time>2018-04-02T18:22:28Z</time>
      </trkpt>
      <trkpt lat="62.630739402271" lon="17.990170289687">
        <ele>84.2</ele>
        <time>2018-04-02T18:22:29Z</time>
      </trkpt>
      <trkpt lat="62.630748203266" lon="17.990115052966">
        <ele>84.2</ele>
        <time>2018-04-02T18:22:30Z</time>
      </trkpt>
      <trkpt lat="62.630755327881" lon="17.990065348299">
        <ele>84.2</ele>
        <time>2018-04-02T18:22:31Z</time>
      </trkpt>
      <trkpt lat="62.630762033401" lon="17.990017655288">
        <ele>84.4</ele>
        <time>2018-04-02T18:22:32Z</time>
      </trkpt>
      <trkpt lat="62.630767900731" lon="17.989961077463">
        <ele>84.4</ele>
        <time>2018-04-02T18:22:33Z</time>
      </trkpt>
      <trkpt lat="62.630777372278" lon="17.989914474099">
        <ele>84.6</ele>
        <time>2018-04-02T18:22:34Z</time>
      </trkpt>
      <trkpt lat="62.630783826341" lon="17.989874743893">
        <ele>84.8</ele>
        <time>2018-04-02T18:22:35Z</time>
      </trkpt>
      <trkpt lat="62.630795812458" lon="17.989828391986">
        <ele>85</ele>
        <time>2018-04-02T18:22:36Z</time>
      </trkpt>
      <trkpt lat="62.630808552946" lon="17.989788158866">
        <ele>85.4</ele>
        <time>2018-04-02T18:22:37Z</time>
      </trkpt>
      <trkpt lat="62.63081743776" lon="17.98973585581">
        <ele>85.6</ele>
        <time>2018-04-02T18:22:38Z</time>
      </trkpt>
      <trkpt lat="62.63082414328" lon="17.989689420084">
        <ele>85.6</ele>
        <time>2018-04-02T18:22:39Z</time>
      </trkpt>
      <trkpt lat="62.6308308488" lon="17.98963946396">
        <ele>85.8</ele>
        <time>2018-04-02T18:22:40Z</time>
      </trkpt>
      <trkpt lat="62.630839733614" lon="17.989603337971">
        <ele>85.8</ele>
        <time>2018-04-02T18:22:41Z</time>
      </trkpt>
      <trkpt lat="62.630853982844" lon="17.989556986064">
        <ele>85.8</ele>
        <time>2018-04-02T18:22:43Z</time>
      </trkpt>
      <trkpt lat="62.630856329776" lon="17.989546089594">
        <ele>86</ele>
        <time>2018-04-02T18:22:44Z</time>
      </trkpt>
      <trkpt lat="62.630854904853" lon="17.98954642487">
        <ele>86</ele>
        <time>2018-04-02T18:22:45Z</time>
      </trkpt>
      <trkpt lat="62.630938388577" lon="17.989128922431">
        <ele>85.8</ele>
        <time>2018-04-02T18:23:51Z</time>
      </trkpt>
      <trkpt lat="62.630946938115" lon="17.989063040697">
        <ele>85.8</ele>
        <time>2018-04-02T18:23:52Z</time>
      </trkpt>
      <trkpt lat="62.630959594784" lon="17.988975701299">
        <ele>85.8</ele>
        <time>2018-04-02T18:23:53Z</time>
      </trkpt>
      <trkpt lat="62.630972586729" lon="17.988897330534">
        <ele>86</ele>
        <time>2018-04-02T18:23:54Z</time>
      </trkpt>
      <trkpt lat="62.630981471543" lon="17.988814433543">
        <ele>86</ele>
        <time>2018-04-02T18:23:55Z</time>
      </trkpt>
      <trkpt lat="62.630991697461" lon="17.988731788009">
        <ele>85.8</ele>
        <time>2018-04-02T18:23:56Z</time>
      </trkpt>
      <trkpt lat="62.63099764861" lon="17.98865710528">
        <ele>85.6</ele>
        <time>2018-04-02T18:23:57Z</time>
      </trkpt>
      <trkpt lat="62.631010892012" lon="17.988569598244">
        <ele>85.4</ele>
        <time>2018-04-02T18:23:58Z</time>
      </trkpt>
      <trkpt lat="62.631019609188" lon="17.988500279931">
        <ele>85</ele>
        <time>2018-04-02T18:23:59Z</time>
      </trkpt>
      <trkpt lat="62.631034612789" lon="17.988420903338">
        <ele>84.6</ele>
        <time>2018-04-02T18:24:00Z</time>
      </trkpt>
      <trkpt lat="62.631045844535" lon="17.988343370763">
        <ele>84.2</ele>
        <time>2018-04-02T18:24:01Z</time>
      </trkpt>
      <trkpt lat="62.631057495376" lon="17.988268855672">
        <ele>84</ele>
        <time>2018-04-02T18:24:02Z</time>
      </trkpt>
      <trkpt lat="62.631071241692" lon="17.988195681685">
        <ele>83.8</ele>
        <time>2018-04-02T18:24:03Z</time>
      </trkpt>
      <trkpt lat="62.63108649675" lon="17.988119909309">
        <ele>83.6</ele>
        <time>2018-04-02T18:24:04Z</time>
      </trkpt>
      <trkpt lat="62.631099656333" lon="17.988055703955">
        <ele>83.4</ele>
        <time>2018-04-02T18:24:05Z</time>
      </trkpt>
      <trkpt lat="62.631115581943" lon="17.987980853588">
        <ele>83.2</ele>
        <time>2018-04-02T18:24:06Z</time>
      </trkpt>
      <trkpt lat="62.631129160621" lon="17.987917318786">
        <ele>83.2</ele>
        <time>2018-04-02T18:24:07Z</time>
      </trkpt>
      <trkpt lat="62.631148690448" lon="17.987843558066">
        <ele>83.2</ele>
        <time>2018-04-02T18:24:08Z</time>
      </trkpt>
      <trkpt lat="62.631161179479" lon="17.9877837113">
        <ele>83.2</ele>
        <time>2018-04-02T18:24:09Z</time>
      </trkpt>
      <trkpt lat="62.631181128401" lon="17.987706346363">
        <ele>83</ele>
        <time>2018-04-02T18:24:10Z</time>
      </trkpt>
      <trkpt lat="62.631197640744" lon="17.98764624814">
        <ele>82.8</ele>
        <time>2018-04-02T18:24:11Z</time>
      </trkpt>
      <trkpt lat="62.631212476707" lon="17.987579444397">
        <ele>82.4</ele>
        <time>2018-04-02T18:24:12Z</time>
      </trkpt>
      <trkpt lat="62.631230078697" lon="17.987515909595">
        <ele>82</ele>
        <time>2018-04-02T18:24:13Z</time>
      </trkpt>
      <trkpt lat="62.631243154461" lon="17.987440137219">
        <ele>81.8</ele>
        <time>2018-04-02T18:24:14Z</time>
      </trkpt>
      <trkpt lat="62.631256733139" lon="17.987384062308">
        <ele>81.8</ele>
        <time>2018-04-02T18:24:15Z</time>
      </trkpt>
      <trkpt lat="62.631274083672" lon="17.987326394836">
        <ele>81.8</ele>
        <time>2018-04-02T18:24:16Z</time>
      </trkpt>
      <trkpt lat="62.631284728685" lon="17.98726487169">
        <ele>81.8</ele>
        <time>2018-04-02T18:24:17Z</time>
      </trkpt>
      <trkpt lat="62.631299061734" lon="17.987188680219">
        <ele>82</ele>
        <time>2018-04-02T18:24:18Z</time>
      </trkpt>
      <trkpt lat="62.631312724231" lon="17.987117098793">
        <ele>82.2</ele>
        <time>2018-04-02T18:24:19Z</time>
      </trkpt>
      <trkpt lat="62.631321692864" lon="17.987047109928">
        <ele>82.2</ele>
        <time>2018-04-02T18:24:20Z</time>
      </trkpt>
      <trkpt lat="62.631337283198" lon="17.986983491307">
        <ele>82.2</ele>
        <time>2018-04-02T18:24:21Z</time>
      </trkpt>
      <trkpt lat="62.631347341478" lon="17.986921297609">
        <ele>82.2</ele>
        <time>2018-04-02T18:24:22Z</time>
      </trkpt>
      <trkpt lat="62.631353627903" lon="17.986846950156">
        <ele>82.2</ele>
        <time>2018-04-02T18:24:23Z</time>
      </trkpt>
      <trkpt lat="62.631358992319" lon="17.986766567735">
        <ele>82</ele>
        <time>2018-04-02T18:24:24Z</time>
      </trkpt>
      <trkpt lat="62.631358573224" lon="17.98668819697">
        <ele>82</ele>
        <time>2018-04-02T18:24:25Z</time>
      </trkpt>
      <trkpt lat="62.631362931812" lon="17.986617453734">
        <ele>82</ele>
        <time>2018-04-02T18:24:26Z</time>
      </trkpt>
      <trkpt lat="62.631364692011" lon="17.986552745466">
        <ele>81.8</ele>
        <time>2018-04-02T18:24:27Z</time>
      </trkpt>
      <trkpt lat="62.63136226126" lon="17.986468255914">
        <ele>81.8</ele>
        <time>2018-04-02T18:24:28Z</time>
      </trkpt>
      <trkpt lat="62.631360920156" lon="17.986398769963">
        <ele>81.6</ele>
        <time>2018-04-02T18:24:29Z</time>
      </trkpt>
      <trkpt lat="62.631362596536" lon="17.986322075578">
        <ele>81.4</ele>
        <time>2018-04-02T18:24:30Z</time>
      </trkpt>
      <trkpt lat="62.631363267088" lon="17.986250997066">
        <ele>81.6</ele>
        <time>2018-04-02T18:24:31Z</time>
      </trkpt>
      <trkpt lat="62.631365111106" lon="17.986182265486">
        <ele>81.6</ele>
        <time>2018-04-02T18:24:32Z</time>
      </trkpt>
      <trkpt lat="62.631364272916" lon="17.986105068187">
        <ele>81.6</ele>
        <time>2018-04-02T18:24:33Z</time>
      </trkpt>
      <trkpt lat="62.631362847993" lon="17.986032313295">
        <ele>81.4</ele>
        <time>2018-04-02T18:24:34Z</time>
      </trkpt>
      <trkpt lat="62.63136142307" lon="17.985963246439">
        <ele>81.4</ele>
        <time>2018-04-02T18:24:35Z</time>
      </trkpt>
      <trkpt lat="62.631357483577" lon="17.985888312253">
        <ele>81.2</ele>
        <time>2018-04-02T18:24:36Z</time>
      </trkpt>
      <trkpt lat="62.63135220298" lon="17.985821173234">
        <ele>81.2</ele>
        <time>2018-04-02T18:24:37Z</time>
      </trkpt>
      <trkpt lat="62.631351280971" lon="17.985751519645">
        <ele>81.2</ele>
        <time>2018-04-02T18:24:38Z</time>
      </trkpt>
      <trkpt lat="62.631349772229" lon="17.985685134997">
        <ele>81.2</ele>
        <time>2018-04-02T18:24:39Z</time>
      </trkpt>
      <trkpt lat="62.631346754745" lon="17.985617157788">
        <ele>81.2</ele>
        <time>2018-04-02T18:24:40Z</time>
      </trkpt>
      <trkpt lat="62.631340887415" lon="17.985551359873">
        <ele>81.2</ele>
        <time>2018-04-02T18:24:41Z</time>
      </trkpt>
      <trkpt lat="62.631340216863" lon="17.985482712112">
        <ele>81</ele>
        <time>2018-04-02T18:24:42Z</time>
      </trkpt>
      <trkpt lat="62.631341977062" lon="17.985430995789">
        <ele>81</ele>
        <time>2018-04-02T18:24:43Z</time>
      </trkpt>
      <trkpt lat="62.631341222691" lon="17.985339884536">
        <ele>81</ele>
        <time>2018-04-02T18:24:44Z</time>
      </trkpt>
      <trkpt lat="62.631340971234" lon="17.985276182096">
        <ele>81</ele>
        <time>2018-04-02T18:24:45Z</time>
      </trkpt>
      <trkpt lat="62.631343318166" lon="17.985206109412">
        <ele>81.2</ele>
        <time>2018-04-02T18:24:46Z</time>
      </trkpt>
      <trkpt lat="62.631346587107" lon="17.985150705053">
        <ele>81.2</ele>
        <time>2018-04-02T18:24:47Z</time>
      </trkpt>
      <trkpt lat="62.631348263487" lon="17.985071915193">
        <ele>81.2</ele>
        <time>2018-04-02T18:24:48Z</time>
      </trkpt>
      <trkpt lat="62.631349772229" lon="17.984998741206">
        <ele>81.4</ele>
        <time>2018-04-02T18:24:49Z</time>
      </trkpt>
      <trkpt lat="62.631351113333" lon="17.984926740685">
        <ele>81.2</ele>
        <time>2018-04-02T18:24:50Z</time>
      </trkpt>
      <trkpt lat="62.631351280971" lon="17.984848621377">
        <ele>81.4</ele>
        <time>2018-04-02T18:24:51Z</time>
      </trkpt>
      <trkpt lat="62.631349939867" lon="17.984787852602">
        <ele>81.2</ele>
        <time>2018-04-02T18:24:52Z</time>
      </trkpt>
      <trkpt lat="62.631352622075" lon="17.98471845047">
        <ele>81.2</ele>
        <time>2018-04-02T18:24:53Z</time>
      </trkpt>
      <trkpt lat="62.631355304283" lon="17.984644941207">
        <ele>81.2</ele>
        <time>2018-04-02T18:24:54Z</time>
      </trkpt>
      <trkpt lat="62.631359662871" lon="17.984578724197">
        <ele>81</ele>
        <time>2018-04-02T18:24:55Z</time>
      </trkpt>
      <trkpt lat="62.631365111106" lon="17.984508483875">
        <ele>81</ele>
        <time>2018-04-02T18:24:56Z</time>
      </trkpt>
      <trkpt lat="62.631368631504" lon="17.984444110883">
        <ele>80.8</ele>
        <time>2018-04-02T18:24:57Z</time>
      </trkpt>
      <trkpt lat="62.631377264861" lon="17.98437311619">
        <ele>80.6</ele>
        <time>2018-04-02T18:24:58Z</time>
      </trkpt>
      <trkpt lat="62.631381120535" lon="17.98431444289">
        <ele>80.6</ele>
        <time>2018-04-02T18:24:59Z</time>
      </trkpt>
      <trkpt lat="62.631386401132" lon="17.984235820668">
        <ele>80.4</ele>
        <time>2018-04-02T18:25:00Z</time>
      </trkpt>
      <trkpt lat="62.631390675901" lon="17.984167592002">
        <ele>80.4</ele>
        <time>2018-04-02T18:25:01Z</time>
      </trkpt>
      <trkpt lat="62.631393777204" lon="17.984102967553">
        <ele>80.4</ele>
        <time>2018-04-02T18:25:02Z</time>
      </trkpt>
      <trkpt lat="62.631396291774" lon="17.984030715575">
        <ele>80.4</ele>
        <time>2018-04-02T18:25:03Z</time>
      </trkpt>
      <trkpt lat="62.631398806344" lon="17.983963995651">
        <ele>80.4</ele>
        <time>2018-04-02T18:25:04Z</time>
      </trkpt>
      <trkpt lat="62.631402578199" lon="17.983921415599">
        <ele>80.2</ele>
        <time>2018-04-02T18:25:05Z</time>
      </trkpt>
      <trkpt lat="62.631404003122" lon="17.983828125052">
        <ele>80.4</ele>
        <time>2018-04-02T18:25:06Z</time>
      </trkpt>
      <trkpt lat="62.631407020606" lon="17.983759980205">
        <ele>80.2</ele>
        <time>2018-04-02T18:25:07Z</time>
      </trkpt>
      <trkpt lat="62.63140752352" lon="17.983689823702">
        <ele>80.2</ele>
        <time>2018-04-02T18:25:08Z</time>
      </trkpt>
      <trkpt lat="62.63140836171" lon="17.983622349407">
        <ele>80.2</ele>
        <time>2018-04-02T18:25:09Z</time>
      </trkpt>
      <trkpt lat="62.63141255266" lon="17.983553031094">
        <ele>80.2</ele>
        <time>2018-04-02T18:25:10Z</time>
      </trkpt>
      <trkpt lat="62.631415821601" lon="17.98348631117">
        <ele>80.2</ele>
        <time>2018-04-02T18:25:11Z</time>
      </trkpt>
      <trkpt lat="62.631419425818" lon="17.983411376984">
        <ele>80.2</ele>
        <time>2018-04-02T18:25:12Z</time>
      </trkpt>
      <trkpt lat="62.631420264008" lon="17.983344824698">
        <ele>80.2</ele>
        <time>2018-04-02T18:25:13Z</time>
      </trkpt>
      <trkpt lat="62.631422275664" lon="17.983269052322">
        <ele>80.2</ele>
        <time>2018-04-02T18:25:14Z</time>
      </trkpt>
      <trkpt lat="62.631422946216" lon="17.983201410389">
        <ele>80</ele>
        <time>2018-04-02T18:25:15Z</time>
      </trkpt>
      <trkpt lat="62.631426047519" lon="17.983133852275">
        <ele>80</ele>
        <time>2018-04-02T18:25:16Z</time>
      </trkpt>
      <trkpt lat="62.631428562089" lon="17.983075011337">
        <ele>80.2</ele>
        <time>2018-04-02T18:25:17Z</time>
      </trkpt>
      <trkpt lat="62.631429065003" lon="17.982996305296">
        <ele>80</ele>
        <time>2018-04-02T18:25:18Z</time>
      </trkpt>
      <trkpt lat="62.63143183103" lon="17.982927908992">
        <ele>80</ele>
        <time>2018-04-02T18:25:19Z</time>
      </trkpt>
      <trkpt lat="62.631432250125" lon="17.982858925955">
        <ele>80</ele>
        <time>2018-04-02T18:25:20Z</time>
      </trkpt>
      <trkpt lat="62.631436105799" lon="17.982786506339">
        <ele>79.8</ele>
        <time>2018-04-02T18:25:21Z</time>
      </trkpt>
      <trkpt lat="62.631437614541" lon="17.982726408116">
        <ele>79.8</ele>
        <time>2018-04-02T18:25:22Z</time>
      </trkpt>
      <trkpt lat="62.631440464387" lon="17.982656167794">
        <ele>79.8</ele>
        <time>2018-04-02T18:25:23Z</time>
      </trkpt>
      <trkpt lat="62.631440799663" lon="17.982590705155">
        <ele>79.8</ele>
        <time>2018-04-02T18:25:24Z</time>
      </trkpt>
      <trkpt lat="62.63143937474" lon="17.982523901412">
        <ele>79.8</ele>
        <time>2018-04-02T18:25:25Z</time>
      </trkpt>
      <trkpt lat="62.631436441075" lon="17.982457768221">
        <ele>79.8</ele>
        <time>2018-04-02T18:25:26Z</time>
      </trkpt>
      <trkpt lat="62.631435854342" lon="17.982399094921">
        <ele>80</ele>
        <time>2018-04-02T18:25:27Z</time>
      </trkpt>
      <trkpt lat="62.631435854342" lon="17.982326842943">
        <ele>80</ele>
        <time>2018-04-02T18:25:28Z</time>
      </trkpt>
      <trkpt lat="62.631434010324" lon="17.982266996177">
        <ele>79.8</ele>
        <time>2018-04-02T18:25:29Z</time>
      </trkpt>
      <trkpt lat="62.631430825202" lon="17.982191978172">
        <ele>80</ele>
        <time>2018-04-02T18:25:30Z</time>
      </trkpt>
      <trkpt lat="62.631431244297" lon="17.982135316528">
        <ele>79.8</ele>
        <time>2018-04-02T18:25:31Z</time>
      </trkpt>
      <trkpt lat="62.631427807718" lon="17.982067423138">
        <ele>79.8</ele>
        <time>2018-04-02T18:25:32Z</time>
      </trkpt>
      <trkpt lat="62.631426382795" lon="17.982001541404">
        <ele>79.8</ele>
        <time>2018-04-02T18:25:33Z</time>
      </trkpt>
      <trkpt lat="62.631423532949" lon="17.981940940267">
        <ele>80</ele>
        <time>2018-04-02T18:25:34Z</time>
      </trkpt>
      <trkpt lat="62.631424454958" lon="17.981875561447">
        <ele>80</ele>
        <time>2018-04-02T18:25:35Z</time>
      </trkpt>
      <trkpt lat="62.631420264008" lon="17.981806075496">
        <ele>80</ele>
        <time>2018-04-02T18:25:36Z</time>
      </trkpt>
      <trkpt lat="62.631419090542" lon="17.981740780495">
        <ele>80</ele>
        <time>2018-04-02T18:25:37Z</time>
      </trkpt>
      <trkpt lat="62.631414815773" lon="17.98166743887">
        <ele>80</ele>
        <time>2018-04-02T18:25:38Z</time>
      </trkpt>
      <trkpt lat="62.63141590542" lon="17.981598372014">
        <ele>80</ele>
        <time>2018-04-02T18:25:39Z</time>
      </trkpt>
      <trkpt lat="62.631415234868" lon="17.98153332847">
        <ele>80</ele>
        <time>2018-04-02T18:25:40Z</time>
      </trkpt>
      <trkpt lat="62.631414312859" lon="17.981474990446">
        <ele>80</ele>
        <time>2018-04-02T18:25:41Z</time>
      </trkpt>
      <trkpt lat="62.631411463013" lon="17.981403660477">
        <ele>80</ele>
        <time>2018-04-02T18:25:42Z</time>
      </trkpt>
      <trkpt lat="62.631407858796" lon="17.981333168698">
        <ele>80</ele>
        <time>2018-04-02T18:25:43Z</time>
      </trkpt>
      <trkpt lat="62.631405176588" lon="17.981262928376">
        <ele>80</ele>
        <time>2018-04-02T18:25:44Z</time>
      </trkpt>
      <trkpt lat="62.631405511864" lon="17.981195621719">
        <ele>80.2</ele>
        <time>2018-04-02T18:25:45Z</time>
      </trkpt>
      <trkpt lat="62.631402326742" lon="17.981129488528">
        <ele>80.2</ele>
        <time>2018-04-02T18:25:46Z</time>
      </trkpt>
      <trkpt lat="62.631401237095" lon="17.981066540459">
        <ele>80.2</ele>
        <time>2018-04-02T18:25:47Z</time>
      </trkpt>
      <trkpt lat="62.63139997981" lon="17.98099353411">
        <ele>80.2</ele>
        <time>2018-04-02T18:25:48Z</time>
      </trkpt>
      <trkpt lat="62.631398135792" lon="17.980923880521">
        <ele>80.4</ele>
        <time>2018-04-02T18:25:49Z</time>
      </trkpt>
      <trkpt lat="62.63139746524" lon="17.980858417882">
        <ele>80.2</ele>
        <time>2018-04-02T18:25:50Z</time>
      </trkpt>
      <trkpt lat="62.631400063629" lon="17.980791614139">
        <ele>80.2</ele>
        <time>2018-04-02T18:25:51Z</time>
      </trkpt>
      <trkpt lat="62.631403248751" lon="17.980733276115">
        <ele>80.4</ele>
        <time>2018-04-02T18:25:52Z</time>
      </trkpt>
      <trkpt lat="62.631407691158" lon="17.980668735485">
        <ele>80.4</ele>
        <time>2018-04-02T18:25:53Z</time>
      </trkpt>
      <trkpt lat="62.631409032262" lon="17.98059790843">
        <ele>80.4</ele>
        <time>2018-04-02T18:25:54Z</time>
      </trkpt>
      <trkpt lat="62.631410373366" lon="17.980538145483">
        <ele>80.6</ele>
        <time>2018-04-02T18:25:55Z</time>
      </trkpt>
      <trkpt lat="62.631412385022" lon="17.980474945957">
        <ele>80.6</ele>
        <time>2018-04-02T18:25:56Z</time>
      </trkpt>
      <trkpt lat="62.631430070831" lon="17.980362796135">
        <ele>80.8</ele>
        <time>2018-04-02T18:25:58Z</time>
      </trkpt>
      <trkpt lat="62.631434429419" lon="17.980327927431">
        <ele>81</ele>
        <time>2018-04-02T18:25:59Z</time>
      </trkpt>
      <trkpt lat="62.631435016152" lon="17.980300686256">
        <ele>81.4</ele>
        <time>2018-04-02T18:26:00Z</time>
      </trkpt>
      <trkpt lat="62.631435686704" lon="17.980289873605">
        <ele>81.4</ele>
        <time>2018-04-02T18:26:01Z</time>
      </trkpt>
      <trkpt lat="62.631431998668" lon="17.980292723451">
        <ele>81.6</ele>
        <time>2018-04-02T18:26:02Z</time>
      </trkpt>
      <trkpt lat="62.631452199047" lon="17.980304122835">
        <ele>82</ele>
        <time>2018-04-02T18:26:06Z</time>
      </trkpt>
      <trkpt lat="62.631458736929" lon="17.98030789469">
        <ele>82</ele>
        <time>2018-04-02T18:26:07Z</time>
      </trkpt>
      <trkpt lat="62.631463346974" lon="17.980316863323">
        <ele>82</ele>
        <time>2018-04-02T18:26:08Z</time>
      </trkpt>
      <trkpt lat="62.631464268983" lon="17.980322814472">
        <ele>82</ele>
        <time>2018-04-02T18:26:09Z</time>
      </trkpt>
      <trkpt lat="62.631465023354" lon="17.980323904119">
        <ele>82</ele>
        <time>2018-04-02T18:26:10Z</time>
      </trkpt>
      <trkpt lat="62.631439458559" lon="17.980767055172">
        <ele>81.8</ele>
        <time>2018-04-02T18:27:16Z</time>
      </trkpt>
      <trkpt lat="62.631437865998" lon="17.980848611059">
        <ele>81.8</ele>
        <time>2018-04-02T18:27:17Z</time>
      </trkpt>
      <trkpt lat="62.63143853655" lon="17.980936201914">
        <ele>81.8</ele>
        <time>2018-04-02T18:27:18Z</time>
      </trkpt>
      <trkpt lat="62.631436608713" lon="17.981020272371">
        <ele>81.6</ele>
        <time>2018-04-02T18:27:19Z</time>
      </trkpt>
      <trkpt lat="62.631432501582" lon="17.981101492982">
        <ele>81.2</ele>
        <time>2018-04-02T18:27:20Z</time>
      </trkpt>
      <trkpt lat="62.631431328116" lon="17.981182797412">
        <ele>81</ele>
        <time>2018-04-02T18:27:21Z</time>
      </trkpt>
      <trkpt lat="62.631431244297" lon="17.981255133209">
        <ele>80.6</ele>
        <time>2018-04-02T18:27:22Z</time>
      </trkpt>
      <trkpt lat="62.631430070831" lon="17.981335180354">
        <ele>80.2</ele>
        <time>2018-04-02T18:27:23Z</time>
      </trkpt>
      <trkpt lat="62.631429232641" lon="17.981415395137">
        <ele>80.2</ele>
        <time>2018-04-02T18:27:24Z</time>
      </trkpt>
      <trkpt lat="62.631428729727" lon="17.981493598264">
        <ele>80.4</ele>
        <time>2018-04-02T18:27:25Z</time>
      </trkpt>
      <trkpt lat="62.631428226813" lon="17.981573896866">
        <ele>80.4</ele>
        <time>2018-04-02T18:27:26Z</time>
      </trkpt>
      <trkpt lat="62.631427975356" lon="17.981650507432">
        <ele>80.6</ele>
        <time>2018-04-02T18:27:27Z</time>
      </trkpt>
      <trkpt lat="62.631428729727" lon="17.981734661708">
        <ele>80.8</ele>
        <time>2018-04-02T18:27:28Z</time>
      </trkpt>
      <trkpt lat="62.63142931646" lon="17.98180825479">
        <ele>80.8</ele>
        <time>2018-04-02T18:27:29Z</time>
      </trkpt>
      <trkpt lat="62.631428645908" lon="17.981889810677">
        <ele>80.6</ele>
        <time>2018-04-02T18:27:30Z</time>
      </trkpt>
      <trkpt lat="62.631429232641" lon="17.981958542257">
        <ele>80.4</ele>
        <time>2018-04-02T18:27:31Z</time>
      </trkpt>
      <trkpt lat="62.631429735555" lon="17.98203288971">
        <ele>80.4</ele>
        <time>2018-04-02T18:27:32Z</time>
      </trkpt>
      <trkpt lat="62.631430825202" lon="17.982110338466">
        <ele>80.2</ele>
        <time>2018-04-02T18:27:33Z</time>
      </trkpt>
      <trkpt lat="62.631431998668" lon="17.982187368127">
        <ele>80.4</ele>
        <time>2018-04-02T18:27:34Z</time>
      </trkpt>
      <trkpt lat="62.6314343456" lon="17.982257692268">
        <ele>80.6</ele>
        <time>2018-04-02T18:27:35Z</time>
      </trkpt>
      <trkpt lat="62.631434932333" lon="17.982336817404">
        <ele>80.6</ele>
        <time>2018-04-02T18:27:36Z</time>
      </trkpt>
      <trkpt lat="62.631434680876" lon="17.982407644459">
        <ele>80.6</ele>
        <time>2018-04-02T18:27:37Z</time>
      </trkpt>
      <trkpt lat="62.631434261781" lon="17.982487607785">
        <ele>80.6</ele>
        <time>2018-04-02T18:27:38Z</time>
      </trkpt>
      <trkpt lat="62.631434764695" lon="17.98256094941">
        <ele>80.2</ele>
        <time>2018-04-02T18:27:39Z</time>
      </trkpt>
      <trkpt lat="62.631435519066" lon="17.982636721786">
        <ele>80.2</ele>
        <time>2018-04-02T18:27:40Z</time>
      </trkpt>
      <trkpt lat="62.631436357256" lon="17.982714841094">
        <ele>80.4</ele>
        <time>2018-04-02T18:27:41Z</time>
      </trkpt>
      <trkpt lat="62.631437111627" lon="17.982773598213">
        <ele>80.4</ele>
        <time>2018-04-02T18:27:42Z</time>
      </trkpt>
      <trkpt lat="62.631437111627" lon="17.982858758317">
        <ele>80.6</ele>
        <time>2018-04-02T18:27:43Z</time>
      </trkpt>
      <trkpt lat="62.631435267609" lon="17.982931848485">
        <ele>80.6</ele>
        <time>2018-04-02T18:27:44Z</time>
      </trkpt>
      <trkpt lat="62.631433423591" lon="17.983004687196">
        <ele>80.4</ele>
        <time>2018-04-02T18:27:45Z</time>
      </trkpt>
      <trkpt lat="62.631434597057" lon="17.983073670233">
        <ele>80.2</ele>
        <time>2018-04-02T18:27:46Z</time>
      </trkpt>
      <trkpt lat="62.631438285093" lon="17.98314432965">
        <ele>80</ele>
        <time>2018-04-02T18:27:47Z</time>
      </trkpt>
      <trkpt lat="62.631435938161" lon="17.983226723727">
        <ele>80.2</ele>
        <time>2018-04-02T18:27:48Z</time>
      </trkpt>
      <trkpt lat="62.631436776351" lon="17.983301657913">
        <ele>80.4</ele>
        <time>2018-04-02T18:27:49Z</time>
      </trkpt>
      <trkpt lat="62.63143769836" lon="17.983372904063">
        <ele>80.4</ele>
        <time>2018-04-02T18:27:50Z</time>
      </trkpt>
      <trkpt lat="62.631440129111" lon="17.9834418871">
        <ele>80.6</ele>
        <time>2018-04-02T18:27:51Z</time>
      </trkpt>
      <trkpt lat="62.63144105112" lon="17.983505338083">
        <ele>80.4</ele>
        <time>2018-04-02T18:27:52Z</time>
      </trkpt>
      <trkpt lat="62.631441470215" lon="17.983576416595">
        <ele>80.4</ele>
        <time>2018-04-02T18:27:53Z</time>
      </trkpt>
      <trkpt lat="62.631442559862" lon="17.983656212283">
        <ele>80.2</ele>
        <time>2018-04-02T18:27:54Z</time>
      </trkpt>
      <trkpt lat="62.631443900966" lon="17.983728380442">
        <ele>80.2</ele>
        <time>2018-04-02T18:27:55Z</time>
      </trkpt>
      <trkpt lat="62.631444739156" lon="17.983801722067">
        <ele>80.4</ele>
        <time>2018-04-02T18:27:56Z</time>
      </trkpt>
      <trkpt lat="62.631445493527" lon="17.983866765611">
        <ele>80.6</ele>
        <time>2018-04-02T18:27:57Z</time>
      </trkpt>
      <trkpt lat="62.631445996441" lon="17.983941280702">
        <ele>80.6</ele>
        <time>2018-04-02T18:27:58Z</time>
      </trkpt>
      <trkpt lat="62.631446750812" lon="17.984006575703">
        <ele>80.6</ele>
        <time>2018-04-02T18:27:59Z</time>
      </trkpt>
      <trkpt lat="62.631448930106" lon="17.984081928984">
        <ele>80.6</ele>
        <time>2018-04-02T18:28:00Z</time>
      </trkpt>
      <trkpt lat="62.631449600658" lon="17.984147475442">
        <ele>80.6</ele>
        <time>2018-04-02T18:28:01Z</time>
      </trkpt>
      <trkpt lat="62.631450103572" lon="17.984216709936">
        <ele>80.6</ele>
        <time>2018-04-02T18:28:02Z</time>
      </trkpt>
      <trkpt lat="62.631450774124" lon="17.984291476484">
        <ele>80.8</ele>
        <time>2018-04-02T18:28:03Z</time>
      </trkpt>
      <trkpt lat="62.631450606486" lon="17.984357358218">
        <ele>80.8</ele>
        <time>2018-04-02T18:28:04Z</time>
      </trkpt>
      <trkpt lat="62.63144943302" lon="17.984422820857">
        <ele>80.8</ele>
        <time>2018-04-02T18:28:05Z</time>
      </trkpt>
      <trkpt lat="62.631447337545" lon="17.98449633012">
        <ele>80.6</ele>
        <time>2018-04-02T18:28:06Z</time>
      </trkpt>
      <trkpt lat="62.631445409708" lon="17.984536730878">
        <ele>80.6</ele>
        <time>2018-04-02T18:28:07Z</time>
      </trkpt>
      <trkpt lat="62.631440715844" lon="17.984627255398">
        <ele>80.6</ele>
        <time>2018-04-02T18:28:08Z</time>
      </trkpt>
      <trkpt lat="62.631440967301" lon="17.984695232607">
        <ele>80.8</ele>
        <time>2018-04-02T18:28:09Z</time>
      </trkpt>
      <trkpt lat="62.631442476043" lon="17.98476035997">
        <ele>80.8</ele>
        <time>2018-04-02T18:28:10Z</time>
      </trkpt>
      <trkpt lat="62.631445996441" lon="17.984818865632">
        <ele>80.8</ele>
        <time>2018-04-02T18:28:11Z</time>
      </trkpt>
      <trkpt lat="62.631448008097" lon="17.984880975511">
        <ele>80.8</ele>
        <time>2018-04-02T18:28:12Z</time>
      </trkpt>
      <trkpt lat="62.63144943302" lon="17.984946019055">
        <ele>81</ele>
        <time>2018-04-02T18:28:13Z</time>
      </trkpt>
      <trkpt lat="62.631451193219" lon="17.985010643504">
        <ele>81</ele>
        <time>2018-04-02T18:28:14Z</time>
      </trkpt>
      <trkpt lat="62.631451863771" lon="17.985075184134">
        <ele>81</ele>
        <time>2018-04-02T18:28:15Z</time>
      </trkpt>
      <trkpt lat="62.631453204875" lon="17.985142155515">
        <ele>81.2</ele>
        <time>2018-04-02T18:28:16Z</time>
      </trkpt>
      <trkpt lat="62.631454545979" lon="17.985211222371">
        <ele>81.2</ele>
        <time>2018-04-02T18:28:17Z</time>
      </trkpt>
      <trkpt lat="62.631460245671" lon="17.98527500863">
        <ele>81.6</ele>
        <time>2018-04-02T18:28:18Z</time>
      </trkpt>
      <trkpt lat="62.631466280639" lon="17.98534038745">
        <ele>81.8</ele>
        <time>2018-04-02T18:28:19Z</time>
      </trkpt>
      <trkpt lat="62.631470806865" lon="17.985409789582">
        <ele>81.8</ele>
        <time>2018-04-02T18:28:20Z</time>
      </trkpt>
      <trkpt lat="62.631473908168" lon="17.985477347696">
        <ele>81.8</ele>
        <time>2018-04-02T18:28:21Z</time>
      </trkpt>
      <trkpt lat="62.631476422738" lon="17.985538787023">
        <ele>81.8</ele>
        <time>2018-04-02T18:28:22Z</time>
      </trkpt>
      <trkpt lat="62.631480110774" lon="17.985602154187">
        <ele>81.8</ele>
        <time>2018-04-02T18:28:23Z</time>
      </trkpt>
      <trkpt lat="62.631483966448" lon="17.985680860228">
        <ele>81.8</ele>
        <time>2018-04-02T18:28:24Z</time>
      </trkpt>
      <trkpt lat="62.631485056095" lon="17.985749005075">
        <ele>81.6</ele>
        <time>2018-04-02T18:28:25Z</time>
      </trkpt>
      <trkpt lat="62.631486481018" lon="17.985816144094">
        <ele>81.6</ele>
        <time>2018-04-02T18:28:26Z</time>
      </trkpt>
      <trkpt lat="62.631488325036" lon="17.985880349448">
        <ele>81.6</ele>
        <time>2018-04-02T18:28:27Z</time>
      </trkpt>
      <trkpt lat="62.631491845434" lon="17.985951260322">
        <ele>81.6</ele>
        <time>2018-04-02T18:28:28Z</time>
      </trkpt>
      <trkpt lat="62.631493940909" lon="17.986013705477">
        <ele>81.4</ele>
        <time>2018-04-02T18:28:29Z</time>
      </trkpt>
      <trkpt lat="62.631494527642" lon="17.98608050922">
        <ele>81.4</ele>
        <time>2018-04-02T18:28:30Z</time>
      </trkpt>
      <trkpt lat="62.631494024728" lon="17.986144295479">
        <ele>81.4</ele>
        <time>2018-04-02T18:28:31Z</time>
      </trkpt>
      <trkpt lat="62.631493102719" lon="17.986202717322">
        <ele>81.6</ele>
        <time>2018-04-02T18:28:32Z</time>
      </trkpt>
      <trkpt lat="62.631492348348" lon="17.986270610712">
        <ele>81.4</ele>
        <time>2018-04-02T18:28:33Z</time>
      </trkpt>
      <trkpt lat="62.631490755787" lon="17.986334145514">
        <ele>81.6</ele>
        <time>2018-04-02T18:28:34Z</time>
      </trkpt>
      <trkpt lat="62.631490420511" lon="17.986392818814">
        <ele>81.6</ele>
        <time>2018-04-02T18:28:35Z</time>
      </trkpt>
      <trkpt lat="62.631488576493" lon="17.986463226774">
        <ele>81.8</ele>
        <time>2018-04-02T18:28:36Z</time>
      </trkpt>
      <trkpt lat="62.631486816294" lon="17.98652223535">
        <ele>81.8</ele>
        <time>2018-04-02T18:28:37Z</time>
      </trkpt>
      <trkpt lat="62.631484385543" lon="17.986582836487">
        <ele>81.6</ele>
        <time>2018-04-02T18:28:38Z</time>
      </trkpt>
      <trkpt lat="62.631482290068" lon="17.986650310782">
        <ele>81.8</ele>
        <time>2018-04-02T18:28:39Z</time>
      </trkpt>
      <trkpt lat="62.631477847661" lon="17.986715521964">
        <ele>81.8</ele>
        <time>2018-04-02T18:28:40Z</time>
      </trkpt>
      <trkpt lat="62.631469633399" lon="17.986778889128">
        <ele>82</ele>
        <time>2018-04-02T18:28:41Z</time>
      </trkpt>
      <trkpt lat="62.631460078033" lon="17.986839322627">
        <ele>81.8</ele>
        <time>2018-04-02T18:28:42Z</time>
      </trkpt>
      <trkpt lat="62.631449516839" lon="17.986904198533">
        <ele>82</ele>
        <time>2018-04-02T18:28:43Z</time>
      </trkpt>
      <trkpt lat="62.631438201274" lon="17.986966811326">
        <ele>82</ele>
        <time>2018-04-02T18:28:44Z</time>
      </trkpt>
      <trkpt lat="62.631427472442" lon="17.98702850211">
        <ele>82.2</ele>
        <time>2018-04-02T18:28:45Z</time>
      </trkpt>
      <trkpt lat="62.631415318687" lon="17.987087426867">
        <ele>82</ele>
        <time>2018-04-02T18:28:46Z</time>
      </trkpt>
      <trkpt lat="62.631402410561" lon="17.98714333414">
        <ele>82.2</ele>
        <time>2018-04-02T18:28:47Z</time>
      </trkpt>
      <trkpt lat="62.631390089168" lon="17.987203264725">
        <ele>82.2</ele>
        <time>2018-04-02T18:28:48Z</time>
      </trkpt>
      <trkpt lat="62.631376007576" lon="17.987261267473">
        <ele>82.4</ele>
        <time>2018-04-02T18:28:49Z</time>
      </trkpt>
      <trkpt lat="62.631361506889" lon="17.987318599669">
        <ele>82.4</ele>
        <time>2018-04-02T18:28:50Z</time>
      </trkpt>
      <trkpt lat="62.631345162184" lon="17.987376853874">
        <ele>82.4</ele>
        <time>2018-04-02T18:28:51Z</time>
      </trkpt>
      <trkpt lat="62.631329823307" lon="17.987427899645">
        <ele>82.4</ele>
        <time>2018-04-02T18:28:52Z</time>
      </trkpt>
      <trkpt lat="62.631315490258" lon="17.98747777195">
        <ele>82.4</ele>
        <time>2018-04-02T18:28:53Z</time>
      </trkpt>
      <trkpt lat="62.631297133897" lon="17.987534601232">
        <ele>82.4</ele>
        <time>2018-04-02T18:28:54Z</time>
      </trkpt>
      <trkpt lat="62.631281459744" lon="17.987587323383">
        <ele>82.4</ele>
        <time>2018-04-02T18:28:55Z</time>
      </trkpt>
      <trkpt lat="62.631264528306" lon="17.987638201516">
        <ele>82.4</ele>
        <time>2018-04-02T18:28:56Z</time>
      </trkpt>
      <trkpt lat="62.631249692343" lon="17.987684553423">
        <ele>82.6</ele>
        <time>2018-04-02T18:28:57Z</time>
      </trkpt>
      <trkpt lat="62.631232509448" lon="17.987738616678">
        <ele>82.6</ele>
        <time>2018-04-02T18:28:58Z</time>
      </trkpt>
      <trkpt lat="62.631218344037" lon="17.987786309689">
        <ele>82.6</ele>
        <time>2018-04-02T18:28:59Z</time>
      </trkpt>
      <trkpt lat="62.631203256617" lon="17.987841211134">
        <ele>82.6</ele>
        <time>2018-04-02T18:29:00Z</time>
      </trkpt>
      <trkpt lat="62.631188839749" lon="17.987895022932">
        <ele>82.6</ele>
        <time>2018-04-02T18:29:01Z</time>
      </trkpt>
      <trkpt lat="62.631176518356" lon="17.987943470314">
        <ele>82.6</ele>
        <time>2018-04-02T18:29:02Z</time>
      </trkpt>
      <trkpt lat="62.631162269126" lon="17.988000886329">
        <ele>82.6</ele>
        <time>2018-04-02T18:29:03Z</time>
      </trkpt>
      <trkpt lat="62.631149193362" lon="17.988050339539">
        <ele>82.6</ele>
        <time>2018-04-02T18:29:04Z</time>
      </trkpt>
      <trkpt lat="62.631137458702" lon="17.988100379482">
        <ele>82.8</ele>
        <time>2018-04-02T18:29:05Z</time>
      </trkpt>
      <trkpt lat="62.631123460929" lon="17.988159723334">
        <ele>83</ele>
        <time>2018-04-02T18:29:06Z</time>
      </trkpt>
      <trkpt lat="62.631112396821" lon="17.98820951182">
        <ele>83</ele>
        <time>2018-04-02T18:29:07Z</time>
      </trkpt>
      <trkpt lat="62.631102170903" lon="17.988267766025">
        <ele>83</ele>
        <time>2018-04-02T18:29:08Z</time>
      </trkpt>
      <trkpt lat="62.631093453727" lon="17.988326187868">
        <ele>83.2</ele>
        <time>2018-04-02T18:29:09Z</time>
      </trkpt>
      <trkpt lat="62.631085574741" lon="17.988380586399">
        <ele>83.4</ele>
        <time>2018-04-02T18:29:10Z</time>
      </trkpt>
      <trkpt lat="62.631076941384" lon="17.988436409853">
        <ele>83.4</ele>
        <time>2018-04-02T18:29:11Z</time>
      </trkpt>
      <trkpt lat="62.631071157873" lon="17.988489634918">
        <ele>83.6</ele>
        <time>2018-04-02T18:29:12Z</time>
      </trkpt>
      <trkpt lat="62.631065542" lon="17.988547386209">
        <ele>83.6</ele>
        <time>2018-04-02T18:29:13Z</time>
      </trkpt>
      <trkpt lat="62.631060093765" lon="17.988602539111">
        <ele>83.8</ele>
        <time>2018-04-02T18:29:14Z</time>
      </trkpt>
      <trkpt lat="62.631056824824" lon="17.98865710528">
        <ele>83.8</ele>
        <time>2018-04-02T18:29:15Z</time>
      </trkpt>
      <trkpt lat="62.63105213096" lon="17.988714688933">
        <ele>84</ele>
        <time>2018-04-02T18:29:16Z</time>
      </trkpt>
      <trkpt lat="62.631046766544" lon="17.988771015301">
        <ele>84</ele>
        <time>2018-04-02T18:29:17Z</time>
      </trkpt>
      <trkpt lat="62.631042240318" lon="17.988819211226">
        <ele>84.2</ele>
        <time>2018-04-02T18:29:18Z</time>
      </trkpt>
      <trkpt lat="62.631036792083" lon="17.988871179006">
        <ele>84.2</ele>
        <time>2018-04-02T18:29:19Z</time>
      </trkpt>
      <trkpt lat="62.631030086563" lon="17.988926331908">
        <ele>84.2</ele>
        <time>2018-04-02T18:29:20Z</time>
      </trkpt>
      <trkpt lat="62.631023883957" lon="17.988983580285">
        <ele>84.6</ele>
        <time>2018-04-02T18:29:21Z</time>
      </trkpt>
      <trkpt lat="62.631018854817" lon="17.989033284952">
        <ele>84.8</ele>
        <time>2018-04-02T18:29:22Z</time>
      </trkpt>
      <trkpt lat="62.631013490401" lon="17.989083324895">
        <ele>84.8</ele>
        <time>2018-04-02T18:29:23Z</time>
      </trkpt>
      <trkpt lat="62.631005108501" lon="17.989145183317">
        <ele>85</ele>
        <time>2018-04-02T18:29:24Z</time>
      </trkpt>
      <trkpt lat="62.630999073533" lon="17.989195558536">
        <ele>85.2</ele>
        <time>2018-04-02T18:29:25Z</time>
      </trkpt>
      <trkpt lat="62.630992451832" lon="17.989245766117">
        <ele>85.4</ele>
        <time>2018-04-02T18:29:26Z</time>
      </trkpt>
      <trkpt lat="62.630987003597" lon="17.989295973698">
        <ele>85.4</ele>
        <time>2018-04-02T18:29:27Z</time>
      </trkpt>
      <trkpt lat="62.630978873154" lon="17.98935364117">
        <ele>85.6</ele>
        <time>2018-04-02T18:29:28Z</time>
      </trkpt>
      <trkpt lat="62.630970072159" lon="17.989403681113">
        <ele>85.6</ele>
        <time>2018-04-02T18:29:29Z</time>
      </trkpt>
      <trkpt lat="62.630961354983" lon="17.989458331101">
        <ele>85.8</ele>
        <time>2018-04-02T18:29:30Z</time>
      </trkpt>
      <trkpt lat="62.630947021934" lon="17.98954055754">
        <ele>85.8</ele>
        <time>2018-04-02T18:29:32Z</time>
      </trkpt>
      <trkpt lat="62.630944088269" lon="17.989562518118">
        <ele>86</ele>
        <time>2018-04-02T18:29:33Z</time>
      </trkpt>
      <trkpt lat="62.630942998622" lon="17.989558913901">
        <ele>86</ele>
        <time>2018-04-02T18:29:34Z</time>
      </trkpt>
      <trkpt lat="62.630915925085" lon="17.9892086343">
        <ele>86</ele>
        <time>2018-04-02T18:31:22Z</time>
      </trkpt>
      <trkpt lat="62.63092472608" lon="17.989127162232">
        <ele>86</ele>
        <time>2018-04-02T18:31:23Z</time>
      </trkpt>
      <trkpt lat="62.630934951998" lon="17.989044097603">
        <ele>86</ele>
        <time>2018-04-02T18:31:24Z</time>
      </trkpt>
      <trkpt lat="62.630943333898" lon="17.988968576684">
        <ele>85.8</ele>
        <time>2018-04-02T18:31:25Z</time>
      </trkpt>
      <trkpt lat="62.630951799617" lon="17.98889179848">
        <ele>85.8</ele>
        <time>2018-04-02T18:31:26Z</time>
      </trkpt>
      <trkpt lat="62.630959762422" lon="17.988818540674">
        <ele>85.6</ele>
        <time>2018-04-02T18:31:27Z</time>
      </trkpt>
      <trkpt lat="62.630968814874" lon="17.988735308407">
        <ele>85.4</ele>
        <time>2018-04-02T18:31:28Z</time>
      </trkpt>
      <trkpt lat="62.63097753205" lon="17.988662553515">
        <ele>85.2</ele>
        <time>2018-04-02T18:31:29Z</time>
      </trkpt>
      <trkpt lat="62.63098591395" lon="17.988587032596">
        <ele>85.2</ele>
        <time>2018-04-02T18:31:30Z</time>
      </trkpt>
      <trkpt lat="62.630994631126" lon="17.988507656003">
        <ele>85</ele>
        <time>2018-04-02T18:31:31Z</time>
      </trkpt>
      <trkpt lat="62.631004940863" lon="17.988437750957">
        <ele>84.8</ele>
        <time>2018-04-02T18:31:32Z</time>
      </trkpt>
      <trkpt lat="62.631021034111" lon="17.988362732952">
        <ele>84.8</ele>
        <time>2018-04-02T18:31:33Z</time>
      </trkpt>
      <trkpt lat="62.631038384644" lon="17.988290397155">
        <ele>84.6</ele>
        <time>2018-04-02T18:31:34Z</time>
      </trkpt>
      <trkpt lat="62.631051460408" lon="17.988221497937">
        <ele>84.4</ele>
        <time>2018-04-02T18:31:35Z</time>
      </trkpt>
      <trkpt lat="62.631065290543" lon="17.988144803552">
        <ele>84.2</ele>
        <time>2018-04-02T18:31:36Z</time>
      </trkpt>
      <trkpt lat="62.631079539773" lon="17.988070037004">
        <ele>84</ele>
        <time>2018-04-02T18:31:37Z</time>
      </trkpt>
      <trkpt lat="62.631094962469" lon="17.987995857189">
        <ele>83.6</ele>
        <time>2018-04-02T18:31:38Z</time>
      </trkpt>
      <trkpt lat="62.631110971898" lon="17.987923856668">
        <ele>83.4</ele>
        <time>2018-04-02T18:31:39Z</time>
      </trkpt>
      <trkpt lat="62.631127065146" lon="17.987851520871">
        <ele>83.2</ele>
        <time>2018-04-02T18:31:40Z</time>
      </trkpt>
      <trkpt lat="62.631143828946" lon="17.987785806775">
        <ele>83</ele>
        <time>2018-04-02T18:31:41Z</time>
      </trkpt>
      <trkpt lat="62.631160676565" lon="17.987722774887">
        <ele>83</ele>
        <time>2018-04-02T18:31:42Z</time>
      </trkpt>
      <trkpt lat="62.63118037403" lon="17.987644152665">
        <ele>83</ele>
        <time>2018-04-02T18:31:43Z</time>
      </trkpt>
      <trkpt lat="62.631199233305" lon="17.98758003113">
        <ele>82.8</ele>
        <time>2018-04-02T18:31:44Z</time>
      </trkpt>
      <trkpt lat="62.631216332381" lon="17.987520938735">
        <ele>82.8</ele>
        <time>2018-04-02T18:31:45Z</time>
      </trkpt>
      <trkpt lat="62.631236365122" lon="17.987453799716">
        <ele>82.6</ele>
        <time>2018-04-02T18:31:46Z</time>
      </trkpt>
      <trkpt lat="62.631255140578" lon="17.987391689837">
        <ele>82.4</ele>
        <time>2018-04-02T18:31:47Z</time>
      </trkpt>
      <trkpt lat="62.631277352613" lon="17.987319940773">
        <ele>82.2</ele>
        <time>2018-04-02T18:31:48Z</time>
      </trkpt>
      <trkpt lat="62.63129436787" lon="17.987251963564">
        <ele>82.4</ele>
        <time>2018-04-02T18:31:49Z</time>
      </trkpt>
      <trkpt lat="62.631308533281" lon="17.987180968871">
        <ele>82.4</ele>
        <time>2018-04-02T18:31:50Z</time>
      </trkpt>
      <trkpt lat="62.631324961805" lon="17.987109471264">
        <ele>82.4</ele>
        <time>2018-04-02T18:31:51Z</time>
      </trkpt>
      <trkpt lat="62.631340384501" lon="17.987040320589">
        <ele>82.4</ele>
        <time>2018-04-02T18:31:52Z</time>
      </trkpt>
      <trkpt lat="62.63135136479" lon="17.986961195453">
        <ele>82.4</ele>
        <time>2018-04-02T18:31:53Z</time>
      </trkpt>
      <trkpt lat="62.631358489405" lon="17.986873604598">
        <ele>82.2</ele>
        <time>2018-04-02T18:31:54Z</time>
      </trkpt>
      <trkpt lat="62.631366955124" lon="17.986799005688">
        <ele>82</ele>
        <time>2018-04-02T18:31:55Z</time>
      </trkpt>
      <trkpt lat="62.631378857422" lon="17.986727675719">
        <ele>82</ele>
        <time>2018-04-02T18:31:56Z</time>
      </trkpt>
      <trkpt lat="62.631386904046" lon="17.986661542528">
        <ele>82</ele>
        <time>2018-04-02T18:31:57Z</time>
      </trkpt>
      <trkpt lat="62.631391262634" lon="17.986580321917">
        <ele>82.2</ele>
        <time>2018-04-02T18:31:58Z</time>
      </trkpt>
      <trkpt lat="62.631394447756" lon="17.98650798612">
        <ele>82.2</ele>
        <time>2018-04-02T18:31:59Z</time>
      </trkpt>
      <trkpt lat="62.631395202127" lon="17.986435482685">
        <ele>82</ele>
        <time>2018-04-02T18:32:00Z</time>
      </trkpt>
      <trkpt lat="62.631394447756" lon="17.986350238762">
        <ele>81.8</ele>
        <time>2018-04-02T18:32:01Z</time>
      </trkpt>
      <trkpt lat="62.631391094996" lon="17.986280585173">
        <ele>81.8</ele>
        <time>2018-04-02T18:32:02Z</time>
      </trkpt>
      <trkpt lat="62.631385143847" lon="17.986204226064">
        <ele>81.8</ele>
        <time>2018-04-02T18:32:03Z</time>
      </trkpt>
      <trkpt lat="62.631380952897" lon="17.986130632982">
        <ele>81.8</ele>
        <time>2018-04-02T18:32:04Z</time>
      </trkpt>
      <trkpt lat="62.63138153963" lon="17.986057626633">
        <ele>81.8</ele>
        <time>2018-04-02T18:32:05Z</time>
      </trkpt>
      <trkpt lat="62.631378354508" lon="17.98597405909">
        <ele>81.8</ele>
        <time>2018-04-02T18:32:06Z</time>
      </trkpt>
      <trkpt lat="62.631375420843" lon="17.985901555655">
        <ele>81.6</ele>
        <time>2018-04-02T18:32:07Z</time>
      </trkpt>
      <trkpt lat="62.63137315773" lon="17.985822933433">
        <ele>81.4</ele>
        <time>2018-04-02T18:32:08Z</time>
      </trkpt>
      <trkpt lat="62.631368799142" lon="17.98574942417">
        <ele>81.4</ele>
        <time>2018-04-02T18:32:09Z</time>
      </trkpt>
      <trkpt lat="62.631361758346" lon="17.985673651794">
        <ele>81.6</ele>
        <time>2018-04-02T18:32:10Z</time>
      </trkpt>
      <trkpt lat="62.631358237948" lon="17.985607350965">
        <ele>81.4</ele>
        <time>2018-04-02T18:32:11Z</time>
      </trkpt>
      <trkpt lat="62.631356813025" lon="17.985537613557">
        <ele>81.4</ele>
        <time>2018-04-02T18:32:12Z</time>
      </trkpt>
      <trkpt lat="62.631355052826" lon="17.98546108681">
        <ele>81.4</ele>
        <time>2018-04-02T18:32:13Z</time>
      </trkpt>
      <trkpt lat="62.631353795541" lon="17.985392103773">
        <ele>81.4</ele>
        <time>2018-04-02T18:32:14Z</time>
      </trkpt>
      <trkpt lat="62.631353376446" lon="17.985324964754">
        <ele>81.2</ele>
        <time>2018-04-02T18:32:15Z</time>
      </trkpt>
      <trkpt lat="62.631354885188" lon="17.985252964233">
        <ele>81.4</ele>
        <time>2018-04-02T18:32:16Z</time>
      </trkpt>
      <trkpt lat="62.631353292627" lon="17.985186831042">
        <ele>81.4</ele>
        <time>2018-04-02T18:32:17Z</time>
      </trkpt>
      <trkpt lat="62.631357315939" lon="17.985114411426">
        <ele>81.6</ele>
        <time>2018-04-02T18:32:18Z</time>
      </trkpt>
      <trkpt lat="62.631356980663" lon="17.985040650706">
        <ele>81.6</ele>
        <time>2018-04-02T18:32:19Z</time>
      </trkpt>
      <trkpt lat="62.631356896844" lon="17.984967141443">
        <ele>81.6</ele>
        <time>2018-04-02T18:32:20Z</time>
      </trkpt>
      <trkpt lat="62.631357818853" lon="17.984889860325">
        <ele>81.6</ele>
        <time>2018-04-02T18:32:21Z</time>
      </trkpt>
      <trkpt lat="62.631358154129" lon="17.984822972763">
        <ele>81.6</ele>
        <time>2018-04-02T18:32:22Z</time>
      </trkpt>
      <trkpt lat="62.631358740862" lon="17.984749966414">
        <ele>81.6</ele>
        <time>2018-04-02T18:32:23Z</time>
      </trkpt>
      <trkpt lat="62.631357315939" lon="17.984674445495">
        <ele>81.6</ele>
        <time>2018-04-02T18:32:24Z</time>
      </trkpt>
      <trkpt lat="62.631357064482" lon="17.984604875725">
        <ele>81.6</ele>
        <time>2018-04-02T18:32:25Z</time>
      </trkpt>
      <trkpt lat="62.631360752518" lon="17.984534383946">
        <ele>81.4</ele>
        <time>2018-04-02T18:32:26Z</time>
      </trkpt>
      <trkpt lat="62.631364021459" lon="17.984467580203">
        <ele>81.2</ele>
        <time>2018-04-02T18:32:27Z</time>
      </trkpt>
      <trkpt lat="62.631367206581" lon="17.984387113963">
        <ele>81</ele>
        <time>2018-04-02T18:32:28Z</time>
      </trkpt>
      <trkpt lat="62.631370224065" lon="17.984319052935">
        <ele>81</ele>
        <time>2018-04-02T18:32:29Z</time>
      </trkpt>
      <trkpt lat="62.63137231954" lon="17.984246298043">
        <ele>80.8</ele>
        <time>2018-04-02T18:32:30Z</time>
      </trkpt>
      <trkpt lat="62.631375420843" lon="17.984168933106">
        <ele>80.8</ele>
        <time>2018-04-02T18:32:31Z</time>
      </trkpt>
      <trkpt lat="62.631375923757" lon="17.98409902806">
        <ele>80.6</ele>
        <time>2018-04-02T18:32:32Z</time>
      </trkpt>
      <trkpt lat="62.631376678128" lon="17.98401856182">
        <ele>80.6</ele>
        <time>2018-04-02T18:32:33Z</time>
      </trkpt>
      <trkpt lat="62.631377600137" lon="17.98394815386">
        <ele>80.4</ele>
        <time>2018-04-02T18:32:34Z</time>
      </trkpt>
      <trkpt lat="62.631380198526" lon="17.983878081176">
        <ele>80.4</ele>
        <time>2018-04-02T18:32:35Z</time>
      </trkpt>
      <trkpt lat="62.631382629277" lon="17.983801805886">
        <ele>80.6</ele>
        <time>2018-04-02T18:32:36Z</time>
      </trkpt>
      <trkpt lat="62.631385898218" lon="17.983738690179">
        <ele>80.6</ele>
        <time>2018-04-02T18:32:37Z</time>
      </trkpt>
      <trkpt lat="62.631388915702" lon="17.983663923631">
        <ele>80.6</ele>
        <time>2018-04-02T18:32:38Z</time>
      </trkpt>
      <trkpt lat="62.63139075972" lon="17.983591671653">
        <ele>80.6</ele>
        <time>2018-04-02T18:32:39Z</time>
      </trkpt>
      <trkpt lat="62.631392939014" lon="17.983517156562">
        <ele>80.6</ele>
        <time>2018-04-02T18:32:40Z</time>
      </trkpt>
      <trkpt lat="62.631393693385" lon="17.983450688095">
        <ele>80.4</ele>
        <time>2018-04-02T18:32:41Z</time>
      </trkpt>
      <trkpt lat="62.631391262634" lon="17.983379944859">
        <ele>80.4</ele>
        <time>2018-04-02T18:32:42Z</time>
      </trkpt>
      <trkpt lat="62.631394783032" lon="17.983305345949">
        <ele>80.2</ele>
        <time>2018-04-02T18:32:43Z</time>
      </trkpt>
      <trkpt lat="62.631394196299" lon="17.983233932161">
        <ele>80.2</ele>
        <time>2018-04-02T18:32:44Z</time>
      </trkpt>
      <trkpt lat="62.631394196299" lon="17.983162434554">
        <ele>80.4</ele>
        <time>2018-04-02T18:32:45Z</time>
      </trkpt>
      <trkpt lat="62.631394280118" lon="17.983087500368">
        <ele>80.2</ele>
        <time>2018-04-02T18:32:46Z</time>
      </trkpt>
      <trkpt lat="62.631392603738" lon="17.983017427684">
        <ele>80.2</ele>
        <time>2018-04-02T18:32:47Z</time>
      </trkpt>
      <trkpt lat="62.631395202127" lon="17.982946432991">
        <ele>80</ele>
        <time>2018-04-02T18:32:48Z</time>
      </trkpt>
      <trkpt lat="62.631397549059" lon="17.982875522117">
        <ele>80</ele>
        <time>2018-04-02T18:32:49Z</time>
      </trkpt>
      <trkpt lat="62.631398722525" lon="17.982808550736">
        <ele>80</ele>
        <time>2018-04-02T18:32:50Z</time>
      </trkpt>
      <trkpt lat="62.631398638706" lon="17.982740992622">
        <ele>80</ele>
        <time>2018-04-02T18:32:51Z</time>
      </trkpt>
      <trkpt lat="62.631399476896" lon="17.982676368173">
        <ele>80</ele>
        <time>2018-04-02T18:32:52Z</time>
      </trkpt>
      <trkpt lat="62.631400398905" lon="17.982608390964">
        <ele>80</ele>
        <time>2018-04-02T18:32:53Z</time>
      </trkpt>
      <trkpt lat="62.631401320914" lon="17.982536306624">
        <ele>80</ele>
        <time>2018-04-02T18:32:54Z</time>
      </trkpt>
      <trkpt lat="62.631400734181" lon="17.982466736854">
        <ele>80</ele>
        <time>2018-04-02T18:32:55Z</time>
      </trkpt>
      <trkpt lat="62.631400315086" lon="17.982394652514">
        <ele>80</ele>
        <time>2018-04-02T18:32:56Z</time>
      </trkpt>
      <trkpt lat="62.631401823828" lon="17.982327262038">
        <ele>80</ele>
        <time>2018-04-02T18:32:57Z</time>
      </trkpt>
      <trkpt lat="62.631403248751" lon="17.98225333368">
        <ele>80</ele>
        <time>2018-04-02T18:32:58Z</time>
      </trkpt>
      <trkpt lat="62.631404338398" lon="17.982185859385">
        <ele>80</ele>
        <time>2018-04-02T18:32:59Z</time>
      </trkpt>
      <trkpt lat="62.631405763321" lon="17.982115786701">
        <ele>80</ele>
        <time>2018-04-02T18:33:00Z</time>
      </trkpt>
      <trkpt lat="62.63140584714" lon="17.982040265782">
        <ele>80</ele>
        <time>2018-04-02T18:33:01Z</time>
      </trkpt>
      <trkpt lat="62.631406517692" lon="17.981977485351">
        <ele>80</ele>
        <time>2018-04-02T18:33:02Z</time>
      </trkpt>
      <trkpt lat="62.631405511864" lon="17.981906155382">
        <ele>80</ele>
        <time>2018-04-02T18:33:03Z</time>
      </trkpt>
      <trkpt lat="62.631402997294" lon="17.981840189829">
        <ele>80</ele>
        <time>2018-04-02T18:33:04Z</time>
      </trkpt>
      <trkpt lat="62.631401404733" lon="17.981775313923">
        <ele>80</ele>
        <time>2018-04-02T18:33:05Z</time>
      </trkpt>
      <trkpt lat="62.631403164932" lon="17.981704486868">
        <ele>80</ele>
        <time>2018-04-02T18:33:06Z</time>
      </trkpt>
      <trkpt lat="62.631405763321" lon="17.981638521315">
        <ele>80</ele>
        <time>2018-04-02T18:33:07Z</time>
      </trkpt>
      <trkpt lat="62.631407691158" lon="17.981581189119">
        <ele>80</ele>
        <time>2018-04-02T18:33:08Z</time>
      </trkpt>
      <trkpt lat="62.631409283719" lon="17.981517319041">
        <ele>80.2</ele>
        <time>2018-04-02T18:33:09Z</time>
      </trkpt>
      <trkpt lat="62.631410121909" lon="17.981452443135">
        <ele>80.2</ele>
        <time>2018-04-02T18:33:10Z</time>
      </trkpt>
      <trkpt lat="62.631412301203" lon="17.981389243609">
        <ele>80.2</ele>
        <time>2018-04-02T18:33:11Z</time>
      </trkpt>
      <trkpt lat="62.631414396678" lon="17.981322523685">
        <ele>80.2</ele>
        <time>2018-04-02T18:33:12Z</time>
      </trkpt>
      <trkpt lat="62.631413307031" lon="17.981248511508">
        <ele>80.2</ele>
        <time>2018-04-02T18:33:13Z</time>
      </trkpt>
      <trkpt lat="62.631412468841" lon="17.981177349177">
        <ele>80.2</ele>
        <time>2018-04-02T18:33:14Z</time>
      </trkpt>
      <trkpt lat="62.631412971755" lon="17.9811117189">
        <ele>80.2</ele>
        <time>2018-04-02T18:33:15Z</time>
      </trkpt>
      <trkpt lat="62.631413642307" lon="17.981036197981">
        <ele>80.2</ele>
        <time>2018-04-02T18:33:16Z</time>
      </trkpt>
      <trkpt lat="62.631412217384" lon="17.980964532736">
        <ele>80.2</ele>
        <time>2018-04-02T18:33:17Z</time>
      </trkpt>
      <trkpt lat="62.631417078886" lon="17.980899489192">
        <ele>80.4</ele>
        <time>2018-04-02T18:33:18Z</time>
      </trkpt>
      <trkpt lat="62.631418922904" lon="17.980836289666">
        <ele>80.4</ele>
        <time>2018-04-02T18:33:19Z</time>
      </trkpt>
      <trkpt lat="62.631423197673" lon="17.980774095968">
        <ele>80.4</ele>
        <time>2018-04-02T18:33:20Z</time>
      </trkpt>
      <trkpt lat="62.631427807718" lon="17.980710142071">
        <ele>80.2</ele>
        <time>2018-04-02T18:33:21Z</time>
      </trkpt>
      <trkpt lat="62.631431076659" lon="17.980646020536">
        <ele>80.4</ele>
        <time>2018-04-02T18:33:22Z</time>
      </trkpt>
      <trkpt lat="62.631431998668" lon="17.980583491562">
        <ele>80.4</ele>
        <time>2018-04-02T18:33:23Z</time>
      </trkpt>
      <trkpt lat="62.631432417763" lon="17.980561195708">
        <ele>80.6</ele>
        <time>2018-04-02T18:33:24Z</time>
      </trkpt>
      <trkpt lat="62.631436524894" lon="17.98047134174">
        <ele>81</ele>
        <time>2018-04-02T18:33:25Z</time>
      </trkpt>
      <trkpt lat="62.631441554034" lon="17.980365645981">
        <ele>81.2</ele>
        <time>2018-04-02T18:33:27Z</time>
      </trkpt>
      <trkpt lat="62.631443733328" lon="17.980332537476">
        <ele>81.6</ele>
        <time>2018-04-02T18:33:28Z</time>
      </trkpt>
      <trkpt lat="62.631443649509" lon="17.980307643233">
        <ele>81.8</ele>
        <time>2018-04-02T18:33:29Z</time>
      </trkpt>
      <trkpt lat="62.631450187391" lon="17.98029196908">
        <ele>82</ele>
        <time>2018-04-02T18:33:30Z</time>
      </trkpt>
      <trkpt lat="62.631449265382" lon="17.980292471994">
        <ele>82.2</ele>
        <time>2018-04-02T18:33:31Z</time>
      </trkpt>
      <trkpt lat="62.631459742757" lon="17.980313426744">
        <ele>82.4</ele>
        <time>2018-04-02T18:33:34Z</time>
      </trkpt>
      <trkpt lat="62.631463933707" lon="17.98032465849">
        <ele>82.2</ele>
        <time>2018-04-02T18:33:35Z</time>
      </trkpt>
      <trkpt lat="62.63146871139" lon="17.980321976282">
        <ele>82.2</ele>
        <time>2018-04-02T18:33:36Z</time>
      </trkpt>
      <trkpt lat="62.631478518213" lon="17.98032801125">
        <ele>82.2</ele>
        <time>2018-04-02T18:33:37Z</time>
      </trkpt>
      <trkpt lat="62.631489163226" lon="17.980339578272">
        <ele>82.2</ele>
        <time>2018-04-02T18:33:38Z</time>
      </trkpt>
      <trkpt lat="62.631489498502" lon="17.980349301276">
        <ele>82.2</ele>
        <time>2018-04-02T18:33:39Z</time>
      </trkpt>
      <trkpt lat="62.631484804638" lon="17.9803573479">
        <ele>82.2</ele>
        <time>2018-04-02T18:33:40Z</time>
      </trkpt>
      <trkpt lat="62.631479691679" lon="17.980363131411">
        <ele>82.2</ele>
        <time>2018-04-02T18:33:41Z</time>
      </trkpt>
      <trkpt lat="62.631476506557" lon="17.980359778651">
        <ele>82.2</ele>
        <time>2018-04-02T18:33:42Z</time>
      </trkpt>
      <trkpt lat="62.631472399426" lon="17.980356090615">
        <ele>82.2</ele>
        <time>2018-04-02T18:33:43Z</time>
      </trkpt>
      <trkpt lat="62.631468962847" lon="17.980351983484">
        <ele>82.2</ele>
        <time>2018-04-02T18:33:44Z</time>
      </trkpt>
      <trkpt lat="62.631466364458" lon="17.980346702887">
        <ele>82.2</ele>
        <time>2018-04-02T18:33:45Z</time>
      </trkpt>
      <trkpt lat="62.631430657564" lon="17.98073872435">
        <ele>82.2</ele>
        <time>2018-04-02T18:35:04Z</time>
      </trkpt>
      <trkpt lat="62.631427472442" lon="17.980799996039">
        <ele>82</ele>
        <time>2018-04-02T18:35:05Z</time>
      </trkpt>
      <trkpt lat="62.63142764008" lon="17.980894208595">
        <ele>82</ele>
        <time>2018-04-02T18:35:06Z</time>
      </trkpt>
      <trkpt lat="62.631429232641" lon="17.980966963487">
        <ele>81.8</ele>
        <time>2018-04-02T18:35:07Z</time>
      </trkpt>
      <trkpt lat="62.631431579573" lon="17.98104885465">
        <ele>81.6</ele>
        <time>2018-04-02T18:35:08Z</time>
      </trkpt>
      <trkpt lat="62.63143183103" lon="17.981126638682">
        <ele>81.4</ele>
        <time>2018-04-02T18:35:09Z</time>
      </trkpt>
      <trkpt lat="62.631435435247" lon="17.981197298099">
        <ele>81.2</ele>
        <time>2018-04-02T18:35:10Z</time>
      </trkpt>
      <trkpt lat="62.631435770523" lon="17.981274663036">
        <ele>81.2</ele>
        <time>2018-04-02T18:35:11Z</time>
      </trkpt>
      <trkpt lat="62.631436105799" lon="17.981344651901">
        <ele>81</ele>
        <time>2018-04-02T18:35:12Z</time>
      </trkpt>
      <trkpt lat="62.631435602885" lon="17.981427465073">
        <ele>80.8</ele>
        <time>2018-04-02T18:35:13Z</time>
      </trkpt>
      <trkpt lat="62.631436943989" lon="17.981497621576">
        <ele>80.6</ele>
        <time>2018-04-02T18:35:14Z</time>
      </trkpt>
      <trkpt lat="62.631435938161" lon="17.981573896866">
        <ele>80.6</ele>
        <time>2018-04-02T18:35:15Z</time>
      </trkpt>
      <trkpt lat="62.631433842686" lon="17.981644556283">
        <ele>80.6</ele>
        <time>2018-04-02T18:35:16Z</time>
      </trkpt>
      <trkpt lat="62.631433088315" lon="17.981707252895">
        <ele>80.8</ele>
        <time>2018-04-02T18:35:17Z</time>
      </trkpt>
      <trkpt lat="62.63143183103" lon="17.981790820438">
        <ele>80.8</ele>
        <time>2018-04-02T18:35:18Z</time>
      </trkpt>
      <trkpt lat="62.631430406107" lon="17.981862904778">
        <ele>80.8</ele>
        <time>2018-04-02T18:35:19Z</time>
      </trkpt>
      <trkpt lat="62.631431076659" lon="17.981937922783">
        <ele>80.8</ele>
        <time>2018-04-02T18:35:20Z</time>
      </trkpt>
      <trkpt lat="62.631432082487" lon="17.982012940788">
        <ele>80.6</ele>
        <time>2018-04-02T18:35:21Z</time>
      </trkpt>
      <trkpt lat="62.631431747211" lon="17.982084689852">
        <ele>80.4</ele>
        <time>2018-04-02T18:35:22Z</time>
      </trkpt>
      <trkpt lat="62.6314343456" lon="17.982160629866">
        <ele>80.4</ele>
        <time>2018-04-02T18:35:23Z</time>
      </trkpt>
      <trkpt lat="62.631434010324" lon="17.982242353391">
        <ele>80.4</ele>
        <time>2018-04-02T18:35:24Z</time>
      </trkpt>
      <trkpt lat="62.631435686704" lon="17.982311671704">
        <ele>80.4</ele>
        <time>2018-04-02T18:35:25Z</time>
      </trkpt>
      <trkpt lat="62.631434597057" lon="17.982388533727">
        <ele>80.4</ele>
        <time>2018-04-02T18:35:26Z</time>
      </trkpt>
      <trkpt lat="62.631435267609" lon="17.982455002194">
        <ele>80.4</ele>
        <time>2018-04-02T18:35:27Z</time>
      </trkpt>
      <trkpt lat="62.631434010324" lon="17.982537144814">
        <ele>80.8</ele>
        <time>2018-04-02T18:35:28Z</time>
      </trkpt>
      <trkpt lat="62.631433926505" lon="17.982603110367">
        <ele>80.8</ele>
        <time>2018-04-02T18:35:29Z</time>
      </trkpt>
      <trkpt lat="62.631434094143" lon="17.982678966562">
        <ele>80.6</ele>
        <time>2018-04-02T18:35:30Z</time>
      </trkpt>
      <trkpt lat="62.631435016152" lon="17.982746608495">
        <ele>80.6</ele>
        <time>2018-04-02T18:35:31Z</time>
      </trkpt>
      <trkpt lat="62.631433591229" lon="17.982814837161">
        <ele>80.4</ele>
        <time>2018-04-02T18:35:32Z</time>
      </trkpt>
      <trkpt lat="62.631434094143" lon="17.982897147419">
        <ele>80.2</ele>
        <time>2018-04-02T18:35:33Z</time>
      </trkpt>
      <trkpt lat="62.631434764695" lon="17.982972333062">
        <ele>80.2</ele>
        <time>2018-04-02T18:35:34Z</time>
      </trkpt>
      <trkpt lat="62.63143602198" lon="17.983040226452">
        <ele>80.4</ele>
        <time>2018-04-02T18:35:35Z</time>
      </trkpt>
      <trkpt lat="62.631437195446" lon="17.983118764855">
        <ele>80.6</ele>
        <time>2018-04-02T18:35:36Z</time>
      </trkpt>
      <trkpt lat="62.631436776351" lon="17.983185065684">
        <ele>80.8</ele>
        <time>2018-04-02T18:35:37Z</time>
      </trkpt>
      <trkpt lat="62.631438368912" lon="17.983258994042">
        <ele>80.6</ele>
        <time>2018-04-02T18:35:38Z</time>
      </trkpt>
      <trkpt lat="62.631437949817" lon="17.983330240192">
        <ele>80.6</ele>
        <time>2018-04-02T18:35:39Z</time>
      </trkpt>
      <trkpt lat="62.631439626197" lon="17.983396457202">
        <ele>80.4</ele>
        <time>2018-04-02T18:35:40Z</time>
      </trkpt>
      <trkpt lat="62.631439542378" lon="17.983462506574">
        <ele>80.2</ele>
        <time>2018-04-02T18:35:41Z</time>
      </trkpt>
      <trkpt lat="62.631440045292" lon="17.983525538462">
        <ele>80</ele>
        <time>2018-04-02T18:35:42Z</time>
      </trkpt>
      <trkpt lat="62.631441302577" lon="17.983603406313">
        <ele>80.2</ele>
        <time>2018-04-02T18:35:43Z</time>
      </trkpt>
      <trkpt lat="62.631442140767" lon="17.983668617495">
        <ele>80.4</ele>
        <time>2018-04-02T18:35:44Z</time>
      </trkpt>
      <trkpt lat="62.631442811319" lon="17.983738187265">
        <ele>80.8</ele>
        <time>2018-04-02T18:35:45Z</time>
      </trkpt>
      <trkpt lat="62.631444487699" lon="17.983803230809">
        <ele>80.8</ele>
        <time>2018-04-02T18:35:46Z</time>
      </trkpt>
      <trkpt lat="62.631446415536" lon="17.983860311548">
        <ele>80.8</ele>
        <time>2018-04-02T18:35:47Z</time>
      </trkpt>
      <trkpt lat="62.631447421364" lon="17.983939185227">
        <ele>80.8</ele>
        <time>2018-04-02T18:35:48Z</time>
      </trkpt>
      <trkpt lat="62.63145027121" lon="17.984005066961">
        <ele>80.8</ele>
        <time>2018-04-02T18:35:49Z</time>
      </trkpt>
      <trkpt lat="62.631450438848" lon="17.984076313111">
        <ele>80.8</ele>
        <time>2018-04-02T18:35:50Z</time>
      </trkpt>
      <trkpt lat="62.631451360857" lon="17.984143535949">
        <ele>80.6</ele>
        <time>2018-04-02T18:35:51Z</time>
      </trkpt>
      <trkpt lat="62.631450187391" lon="17.984211010244">
        <ele>80.6</ele>
        <time>2018-04-02T18:35:52Z</time>
      </trkpt>
      <trkpt lat="62.631450438848" lon="17.984274293589">
        <ele>80.6</ele>
        <time>2018-04-02T18:35:53Z</time>
      </trkpt>
      <trkpt lat="62.631451444676" lon="17.984346629386">
        <ele>80.8</ele>
        <time>2018-04-02T18:35:54Z</time>
      </trkpt>
      <trkpt lat="62.631450941762" lon="17.984414438957">
        <ele>80.8</ele>
        <time>2018-04-02T18:35:55Z</time>
      </trkpt>
      <trkpt lat="62.631450941762" lon="17.984485098374">
        <ele>80.8</ele>
        <time>2018-04-02T18:35:56Z</time>
      </trkpt>
      <trkpt lat="62.631455132712" lon="17.984552237393">
        <ele>81</ele>
        <time>2018-04-02T18:35:57Z</time>
      </trkpt>
      <trkpt lat="62.631455803264" lon="17.984619292593">
        <ele>81.2</ele>
        <time>2018-04-02T18:35:58Z</time>
      </trkpt>
      <trkpt lat="62.631451025581" lon="17.984681653929">
        <ele>81.2</ele>
        <time>2018-04-02T18:35:59Z</time>
      </trkpt>
      <trkpt lat="62.631447002269" lon="17.984735046632">
        <ele>81.2</ele>
        <time>2018-04-02T18:36:00Z</time>
      </trkpt>
      <trkpt lat="62.631448008097" lon="17.984790870086">
        <ele>81</ele>
        <time>2018-04-02T18:36:01Z</time>
      </trkpt>
      <trkpt lat="62.631450019753" lon="17.984837724907">
        <ele>81</ele>
        <time>2018-04-02T18:36:02Z</time>
      </trkpt>
      <trkpt lat="62.631449181563" lon="17.984913497283">
        <ele>81</ele>
        <time>2018-04-02T18:36:03Z</time>
      </trkpt>
      <trkpt lat="62.631448175735" lon="17.984973846963">
        <ele>81.2</ele>
        <time>2018-04-02T18:36:04Z</time>
      </trkpt>
      <trkpt lat="62.631447421364" lon="17.985036711213">
        <ele>81.2</ele>
        <time>2018-04-02T18:36:05Z</time>
      </trkpt>
      <trkpt lat="62.631444739156" lon="17.985115836349">
        <ele>81.4</ele>
        <time>2018-04-02T18:36:06Z</time>
      </trkpt>
      <trkpt lat="62.63144691845" lon="17.985170737794">
        <ele>81.4</ele>
        <time>2018-04-02T18:36:07Z</time>
      </trkpt>
      <trkpt lat="62.631447840459" lon="17.985244414695">
        <ele>81.6</ele>
        <time>2018-04-02T18:36:08Z</time>
      </trkpt>
      <trkpt lat="62.631450857943" lon="17.985306440755">
        <ele>81.6</ele>
        <time>2018-04-02T18:36:09Z</time>
      </trkpt>
      <trkpt lat="62.631453288694" lon="17.985376178163">
        <ele>81.8</ele>
        <time>2018-04-02T18:36:10Z</time>
      </trkpt>
      <trkpt lat="62.63145446216" lon="17.98544264663">
        <ele>81.8</ele>
        <time>2018-04-02T18:36:11Z</time>
      </trkpt>
      <trkpt lat="62.631457898739" lon="17.985504756509">
        <ele>81.8</ele>
        <time>2018-04-02T18:36:12Z</time>
      </trkpt>
      <trkpt lat="62.631459239843" lon="17.985582037627">
        <ele>82</ele>
        <time>2018-04-02T18:36:13Z</time>
      </trkpt>
      <trkpt lat="62.631459994214" lon="17.985645320972">
        <ele>81.8</ele>
        <time>2018-04-02T18:36:14Z</time>
      </trkpt>
      <trkpt lat="62.631463095517" lon="17.98571673476">
        <ele>81.6</ele>
        <time>2018-04-02T18:36:15Z</time>
      </trkpt>
      <trkpt lat="62.631465274811" lon="17.985783873779">
        <ele>81.6</ele>
        <time>2018-04-02T18:36:16Z</time>
      </trkpt>
      <trkpt lat="62.631467621743" lon="17.985841708889">
        <ele>81.8</ele>
        <time>2018-04-02T18:36:17Z</time>
      </trkpt>
      <trkpt lat="62.63146871139" lon="17.985925108794">
        <ele>81.6</ele>
        <time>2018-04-02T18:36:18Z</time>
      </trkpt>
      <trkpt lat="62.631471896512" lon="17.985999707704">
        <ele>81.8</ele>
        <time>2018-04-02T18:36:19Z</time>
      </trkpt>
      <trkpt lat="62.63147206415" lon="17.986075060985">
        <ele>81.6</ele>
        <time>2018-04-02T18:36:20Z</time>
      </trkpt>
      <trkpt lat="62.63147290234" lon="17.986140523624">
        <ele>81.6</ele>
        <time>2018-04-02T18:36:21Z</time>
      </trkpt>
      <trkpt lat="62.631474327263" lon="17.986205315711">
        <ele>81.6</ele>
        <time>2018-04-02T18:36:22Z</time>
      </trkpt>
      <trkpt lat="62.631474075806" lon="17.986272035635">
        <ele>81.8</ele>
        <time>2018-04-02T18:36:23Z</time>
      </trkpt>
      <trkpt lat="62.631476003643" lon="17.986340180482">
        <ele>81.8</ele>
        <time>2018-04-02T18:36:24Z</time>
      </trkpt>
      <trkpt lat="62.631474830177" lon="17.986410923718">
        <ele>81.8</ele>
        <time>2018-04-02T18:36:25Z</time>
      </trkpt>
      <trkpt lat="62.6314762551" lon="17.986473871787">
        <ele>81.8</ele>
        <time>2018-04-02T18:36:26Z</time>
      </trkpt>
      <trkpt lat="62.631470723046" lon="17.986539753521">
        <ele>82</ele>
        <time>2018-04-02T18:36:27Z</time>
      </trkpt>
      <trkpt lat="62.631471058322" lon="17.986605467617">
        <ele>82</ele>
        <time>2018-04-02T18:36:28Z</time>
      </trkpt>
      <trkpt lat="62.631470303951" lon="17.986670092066">
        <ele>82</ele>
        <time>2018-04-02T18:36:29Z</time>
      </trkpt>
      <trkpt lat="62.631467202648" lon="17.986741086759">
        <ele>82</ele>
        <time>2018-04-02T18:36:30Z</time>
      </trkpt>
      <trkpt lat="62.631466532096" lon="17.986807387588">
        <ele>82</ele>
        <time>2018-04-02T18:36:31Z</time>
      </trkpt>
      <trkpt lat="62.631458820748" lon="17.986869916562">
        <ele>82.2</ele>
        <time>2018-04-02T18:36:32Z</time>
      </trkpt>
      <trkpt lat="62.631451193219" lon="17.986943090549">
        <ele>82.2</ele>
        <time>2018-04-02T18:36:33Z</time>
      </trkpt>
      <trkpt lat="62.631435686704" lon="17.987011570672">
        <ele>82.2</ele>
        <time>2018-04-02T18:36:34Z</time>
      </trkpt>
      <trkpt lat="62.631424538777" lon="17.987066472117">
        <ele>82.2</ele>
        <time>2018-04-02T18:36:35Z</time>
      </trkpt>
      <trkpt lat="62.63141087628" lon="17.987138975552">
        <ele>82.2</ele>
        <time>2018-04-02T18:36:36Z</time>
      </trkpt>
      <trkpt lat="62.631396459412" lon="17.987193709359">
        <ele>82.4</ele>
        <time>2018-04-02T18:36:37Z</time>
      </trkpt>
      <trkpt lat="62.631381204354" lon="17.987260010188">
        <ele>82.6</ele>
        <time>2018-04-02T18:36:38Z</time>
      </trkpt>
      <trkpt lat="62.631362512717" lon="17.987319102583">
        <ele>82.4</ele>
        <time>2018-04-02T18:36:39Z</time>
      </trkpt>
      <trkpt lat="62.631348514944" lon="17.987379200806">
        <ele>82.4</ele>
        <time>2018-04-02T18:36:40Z</time>
      </trkpt>
      <trkpt lat="62.631330996773" lon="17.987435275717">
        <ele>82.4</ele>
        <time>2018-04-02T18:36:41Z</time>
      </trkpt>
      <trkpt lat="62.631315238801" lon="17.987491769723">
        <ele>82.4</ele>
        <time>2018-04-02T18:36:42Z</time>
      </trkpt>
      <trkpt lat="62.631297552992" lon="17.987555639801">
        <ele>82.4</ele>
        <time>2018-04-02T18:36:43Z</time>
      </trkpt>
      <trkpt lat="62.631278358441" lon="17.987613055816">
        <ele>82.4</ele>
        <time>2018-04-02T18:36:44Z</time>
      </trkpt>
      <trkpt lat="62.631262349012" lon="17.987664436863">
        <ele>82.4</ele>
        <time>2018-04-02T18:36:45Z</time>
      </trkpt>
      <trkpt lat="62.631242064814" lon="17.987721182326">
        <ele>82.6</ele>
        <time>2018-04-02T18:36:46Z</time>
      </trkpt>
      <trkpt lat="62.631228067041" lon="17.987762840369">
        <ele>82.6</ele>
        <time>2018-04-02T18:36:47Z</time>
      </trkpt>
      <trkpt lat="62.63120971068" lon="17.987824028239">
        <ele>82.6</ele>
        <time>2018-04-02T18:36:48Z</time>
      </trkpt>
      <trkpt lat="62.631192611604" lon="17.987877253304">
        <ele>82.6</ele>
        <time>2018-04-02T18:36:49Z</time>
      </trkpt>
      <trkpt lat="62.631176685994" lon="17.987930478369">
        <ele>82.6</ele>
        <time>2018-04-02T18:36:50Z</time>
      </trkpt>
      <trkpt lat="62.631158832547" lon="17.987986134185">
        <ele>82.6</ele>
        <time>2018-04-02T18:36:51Z</time>
      </trkpt>
      <trkpt lat="62.63114768462" lon="17.988031899359">
        <ele>82.8</ele>
        <time>2018-04-02T18:36:52Z</time>
      </trkpt>
      <trkpt lat="62.631131256096" lon="17.988088561003">
        <ele>82.8</ele>
        <time>2018-04-02T18:36:53Z</time>
      </trkpt>
      <trkpt lat="62.631120275807" lon="17.988142205163">
        <ele>82.8</ele>
        <time>2018-04-02T18:36:54Z</time>
      </trkpt>
      <trkpt lat="62.63110577512" lon="17.988196519875">
        <ele>82.8</ele>
        <time>2018-04-02T18:36:55Z</time>
      </trkpt>
      <trkpt lat="62.631094627193" lon="17.988256618098">
        <ele>83</ele>
        <time>2018-04-02T18:36:56Z</time>
      </trkpt>
      <trkpt lat="62.631091777347" lon="17.988295091019">
        <ele>83.2</ele>
        <time>2018-04-02T18:36:57Z</time>
      </trkpt>
      <trkpt lat="62.631081635248" lon="17.988364744608">
        <ele>83.2</ele>
        <time>2018-04-02T18:36:58Z</time>
      </trkpt>
      <trkpt lat="62.631074091538" lon="17.988417802035">
        <ele>83.2</ele>
        <time>2018-04-02T18:36:59Z</time>
      </trkpt>
      <trkpt lat="62.631062692154" lon="17.98847857081">
        <ele>83.4</ele>
        <time>2018-04-02T18:37:00Z</time>
      </trkpt>
      <trkpt lat="62.631052382417" lon="17.988535735368">
        <ele>83.6</ele>
        <time>2018-04-02T18:37:01Z</time>
      </trkpt>
      <trkpt lat="62.631048191467" lon="17.988589798623">
        <ele>83.8</ele>
        <time>2018-04-02T18:37:02Z</time>
      </trkpt>
      <trkpt lat="62.631039977205" lon="17.988659368393">
        <ele>84</ele>
        <time>2018-04-02T18:37:03Z</time>
      </trkpt>
      <trkpt lat="62.631037127359" lon="17.988715359485">
        <ele>84.2</ele>
        <time>2018-04-02T18:37:04Z</time>
      </trkpt>
      <trkpt lat="62.63102949983" lon="17.988776631174">
        <ele>84.2</ele>
        <time>2018-04-02T18:37:05Z</time>
      </trkpt>
      <trkpt lat="62.631025392699" lon="17.988830778248">
        <ele>84.4</ele>
        <time>2018-04-02T18:37:06Z</time>
      </trkpt>
      <trkpt lat="62.631021788482" lon="17.98888676934">
        <ele>84.4</ele>
        <time>2018-04-02T18:37:07Z</time>
      </trkpt>
      <trkpt lat="62.631014915324" lon="17.98894628083">
        <ele>84.4</ele>
        <time>2018-04-02T18:37:08Z</time>
      </trkpt>
      <trkpt lat="62.631004605587" lon="17.988999002981">
        <ele>84.6</ele>
        <time>2018-04-02T18:37:09Z</time>
      </trkpt>
      <trkpt lat="62.630995888411" lon="17.989057676281">
        <ele>84.8</ele>
        <time>2018-04-02T18:37:10Z</time>
      </trkpt>
      <trkpt lat="62.630992535651" lon="17.989106123663">
        <ele>85</ele>
        <time>2018-04-02T18:37:11Z</time>
      </trkpt>
      <trkpt lat="62.63098339938" lon="17.989157756167">
        <ele>85</ele>
        <time>2018-04-02T18:37:12Z</time>
      </trkpt>
      <trkpt lat="62.630974095471" lon="17.989211400327">
        <ele>85.2</ele>
        <time>2018-04-02T18:37:13Z</time>
      </trkpt>
      <trkpt lat="62.630964372467" lon="17.98926060208">
        <ele>85.2</ele>
        <time>2018-04-02T18:37:14Z</time>
      </trkpt>
      <trkpt lat="62.630958337499" lon="17.98932178995">
        <ele>85.6</ele>
        <time>2018-04-02T18:37:15Z</time>
      </trkpt>
      <trkpt lat="62.630952218712" lon="17.989375350291">
        <ele>85.6</ele>
        <time>2018-04-02T18:37:16Z</time>
      </trkpt>
      <trkpt lat="62.630945261735" lon="17.989425474053">
        <ele>85.8</ele>
        <time>2018-04-02T18:37:17Z</time>
      </trkpt>
      <trkpt lat="62.630933024161" lon="17.989528236147">
        <ele>86.2</ele>
        <time>2018-04-02T18:37:19Z</time>
      </trkpt>
      <trkpt lat="62.630928749392" lon="17.989551370191">
        <ele>86.4</ele>
        <time>2018-04-02T18:37:20Z</time>
      </trkpt>
      <trkpt lat="62.630926989193" lon="17.989564194498">
        <ele>86.4</ele>
        <time>2018-04-02T18:37:21Z</time>
      </trkpt>
      <trkpt lat="62.630929084668" lon="17.989571151475">
        <ele>86.6</ele>
        <time>2018-04-02T18:37:22Z</time>
      </trkpt>
      <trkpt lat="62.630932102152" lon="17.989593866424">
        <ele>86.8</ele>
        <time>2018-04-02T18:37:23Z</time>
      </trkpt>
      <trkpt lat="62.630929084668" lon="17.989620269409">
        <ele>86.6</ele>
        <time>2018-04-02T18:37:24Z</time>
      </trkpt>
      <trkpt lat="62.630922127691" lon="17.989636614114">
        <ele>86.6</ele>
        <time>2018-04-02T18:37:25Z</time>
      </trkpt>
      <trkpt lat="62.630915338352" lon="17.989651114801">
        <ele>86.8</ele>
        <time>2018-04-02T18:37:26Z</time>
      </trkpt>
      <trkpt lat="62.630910309212" lon="17.989659329063">
        <ele>86.6</ele>
        <time>2018-04-02T18:37:27Z</time>
      </trkpt>
      <trkpt lat="62.630904944796" lon="17.989644828376">
        <ele>86.6</ele>
        <time>2018-04-02T18:37:28Z</time>
      </trkpt>
      <trkpt lat="62.630907627004" lon="17.989628986585">
        <ele>86.6</ele>
        <time>2018-04-02T18:37:29Z</time>
      </trkpt>
      <trkpt lat="62.630911901773" lon="17.989622448703">
        <ele>86.6</ele>
        <time>2018-04-02T18:37:30Z</time>
      </trkpt>
      <trkpt lat="62.630916008904" lon="17.989612055147">
        <ele>86.6</ele>
        <time>2018-04-02T18:37:31Z</time>
      </trkpt>
      <trkpt lat="62.630921038044" lon="17.989601661591">
        <ele>86.4</ele>
        <time>2018-04-02T18:37:32Z</time>
      </trkpt>
      <trkpt lat="62.630923720252" lon="17.989586825628">
        <ele>86.4</ele>
        <time>2018-04-02T18:37:33Z</time>
      </trkpt>
      <trkpt lat="62.630924055528" lon="17.989572324941">
        <ele>86.2</ele>
        <time>2018-04-02T18:37:34Z</time>
      </trkpt>
      <trkpt lat="62.630923301157" lon="17.989567966353">
        <ele>86.2</ele>
        <time>2018-04-02T18:37:35Z</time>
      </trkpt>
      <trkpt lat="62.630922798243" lon="17.989562937213">
        <ele>86</ele>
        <time>2018-04-02T18:37:36Z</time>
      </trkpt>
      <trkpt lat="62.630919277845" lon="17.98955648315">
        <ele>86</ele>
        <time>2018-04-02T18:37:37Z</time>
      </trkpt>
      <trkpt lat="62.630920870406" lon="17.989569391276">
        <ele>85.8</ele>
        <time>2018-04-02T18:37:38Z</time>
      </trkpt>
      <trkpt lat="62.630919277845" lon="17.989559081539">
        <ele>85.8</ele>
        <time>2018-04-02T18:37:39Z</time>
      </trkpt>
      <trkpt lat="62.630879547639" lon="17.989021215016">
        <ele>86</ele>
        <time>2018-04-02T18:40:13Z</time>
      </trkpt>
      <trkpt lat="62.630888935367" lon="17.988939994405">
        <ele>86</ele>
        <time>2018-04-02T18:40:14Z</time>
      </trkpt>
      <trkpt lat="62.630895054154" lon="17.988852990283">
        <ele>86</ele>
        <time>2018-04-02T18:40:15Z</time>
      </trkpt>
      <trkpt lat="62.630902346407" lon="17.988769590378">
        <ele>86</ele>
        <time>2018-04-02T18:40:16Z</time>
      </trkpt>
      <trkpt lat="62.630910812126" lon="17.988692895993">
        <ele>85.8</ele>
        <time>2018-04-02T18:40:17Z</time>
      </trkpt>
      <trkpt lat="62.630919277845" lon="17.98859340284">
        <ele>85.8</ele>
        <time>2018-04-02T18:40:18Z</time>
      </trkpt>
      <trkpt lat="62.630926737736" lon="17.988502375406">
        <ele>85.6</ele>
        <time>2018-04-02T18:40:19Z</time>
      </trkpt>
      <trkpt lat="62.630936879835" lon="17.98841905932">
        <ele>85.2</ele>
        <time>2018-04-02T18:40:20Z</time>
      </trkpt>
      <trkpt lat="62.63095154816" lon="17.988338006347">
        <ele>84.8</ele>
        <time>2018-04-02T18:40:21Z</time>
      </trkpt>
      <trkpt lat="62.630966384123" lon="17.988263239799">
        <ele>84.4</ele>
        <time>2018-04-02T18:40:22Z</time>
      </trkpt>
      <trkpt lat="62.630981303905" lon="17.988184282301">
        <ele>84.2</ele>
        <time>2018-04-02T18:40:23Z</time>
      </trkpt>
      <trkpt lat="62.630996391325" lon="17.988102139681">
        <ele>84.2</ele>
        <time>2018-04-02T18:40:24Z</time>
      </trkpt>
      <trkpt lat="62.631014160953" lon="17.988023349821">
        <ele>84</ele>
        <time>2018-04-02T18:40:25Z</time>
      </trkpt>
      <trkpt lat="62.63103033802" lon="17.987952606585">
        <ele>84</ele>
        <time>2018-04-02T18:40:26Z</time>
      </trkpt>
      <trkpt lat="62.631047856191" lon="17.987882114806">
        <ele>84</ele>
        <time>2018-04-02T18:40:27Z</time>
      </trkpt>
      <trkpt lat="62.631065877276" lon="17.987806845344">
        <ele>84</ele>
        <time>2018-04-02T18:40:28Z</time>
      </trkpt>
      <trkpt lat="62.631084736551" lon="17.987740628334">
        <ele>83.8</ele>
        <time>2018-04-02T18:40:29Z</time>
      </trkpt>
      <trkpt lat="62.631107535319" lon="17.987669466003">
        <ele>83.6</ele>
        <time>2018-04-02T18:40:30Z</time>
      </trkpt>
      <trkpt lat="62.631127735698" lon="17.987602075527">
        <ele>83.2</ele>
        <time>2018-04-02T18:40:31Z</time>
      </trkpt>
      <trkpt lat="62.631146175878" lon="17.987541390571">
        <ele>83</ele>
        <time>2018-04-02T18:40:32Z</time>
      </trkpt>
      <trkpt lat="62.6311661248" lon="17.987473497181">
        <ele>82.8</ele>
        <time>2018-04-02T18:40:33Z</time>
      </trkpt>
      <trkpt lat="62.631184229704" lon="17.987402670126">
        <ele>82.6</ele>
        <time>2018-04-02T18:40:34Z</time>
      </trkpt>
      <trkpt lat="62.631202334608" lon="17.987339051505">
        <ele>82.4</ele>
        <time>2018-04-02T18:40:35Z</time>
      </trkpt>
      <trkpt lat="62.631222870263" lon="17.98726487169">
        <ele>82.4</ele>
        <time>2018-04-02T18:40:36Z</time>
      </trkpt>
      <trkpt lat="62.631237454769" lon="17.987199911965">
        <ele>82.4</ele>
        <time>2018-04-02T18:40:37Z</time>
      </trkpt>
      <trkpt lat="62.631254470026" lon="17.987125815969">
        <ele>82.6</ele>
        <time>2018-04-02T18:40:38Z</time>
      </trkpt>
      <trkpt lat="62.63126838398" lon="17.987055827104">
        <ele>82.6</ele>
        <time>2018-04-02T18:40:39Z</time>
      </trkpt>
      <trkpt lat="62.631286069789" lon="17.986983658945">
        <ele>82.8</ele>
        <time>2018-04-02T18:40:40Z</time>
      </trkpt>
      <trkpt lat="62.631299983743" lon="17.986921297609">
        <ele>82.6</ele>
        <time>2018-04-02T18:40:41Z</time>
      </trkpt>
      <trkpt lat="62.631310880213" lon="17.986846782518">
        <ele>82.6</ele>
        <time>2018-04-02T18:40:42Z</time>
      </trkpt>
      <trkpt lat="62.631318591561" lon="17.986766819192">
        <ele>82.4</ele>
        <time>2018-04-02T18:40:43Z</time>
      </trkpt>
      <trkpt lat="62.6313253809" lon="17.986689118979">
        <ele>82.2</ele>
        <time>2018-04-02T18:40:44Z</time>
      </trkpt>
      <trkpt lat="62.631331080592" lon="17.986615944992">
        <ele>82.2</ele>
        <time>2018-04-02T18:40:45Z</time>
      </trkpt>
      <trkpt lat="62.631333595162" lon="17.986539250607">
        <ele>82.2</ele>
        <time>2018-04-02T18:40:46Z</time>
      </trkpt>
      <trkpt lat="62.631336025913" lon="17.986469932294">
        <ele>82.4</ele>
        <time>2018-04-02T18:40:47Z</time>
      </trkpt>
      <trkpt lat="62.631336947922" lon="17.986386532389">
        <ele>82.4</ele>
        <time>2018-04-02T18:40:48Z</time>
      </trkpt>
      <trkpt lat="62.631336445008" lon="17.986302378113">
        <ele>82.4</ele>
        <time>2018-04-02T18:40:49Z</time>
      </trkpt>
      <trkpt lat="62.631335355361" lon="17.986225264633">
        <ele>82.2</ele>
        <time>2018-04-02T18:40:50Z</time>
      </trkpt>
      <trkpt lat="62.631334936266" lon="17.986148737886">
        <ele>82</ele>
        <time>2018-04-02T18:40:51Z</time>
      </trkpt>
      <trkpt lat="62.63133460099" lon="17.986081263591">
        <ele>81.8</ele>
        <time>2018-04-02T18:40:52Z</time>
      </trkpt>
      <trkpt lat="62.631333008429" lon="17.986008341061">
        <ele>81.6</ele>
        <time>2018-04-02T18:40:53Z</time>
      </trkpt>
      <trkpt lat="62.631332337877" lon="17.985926114622">
        <ele>81.6</ele>
        <time>2018-04-02T18:40:54Z</time>
      </trkpt>
      <trkpt lat="62.631329320393" lon="17.985851348074">
        <ele>81.6</ele>
        <time>2018-04-02T18:40:55Z</time>
      </trkpt>
      <trkpt lat="62.631326889642" lon="17.985774653689">
        <ele>81.6</ele>
        <time>2018-04-02T18:40:56Z</time>
      </trkpt>
      <trkpt lat="62.631323369244" lon="17.985703910453">
        <ele>81.8</ele>
        <time>2018-04-02T18:40:57Z</time>
      </trkpt>
      <trkpt lat="62.631324123615" lon="17.985625539688">
        <ele>81.6</ele>
        <time>2018-04-02T18:40:58Z</time>
      </trkpt>
      <trkpt lat="62.631324877986" lon="17.985558568307">
        <ele>81.6</ele>
        <time>2018-04-02T18:40:59Z</time>
      </trkpt>
      <trkpt lat="62.631323453063" lon="17.9854786888">
        <ele>81.8</ele>
        <time>2018-04-02T18:41:00Z</time>
      </trkpt>
      <trkpt lat="62.63132286633" lon="17.985410460134">
        <ele>81.6</ele>
        <time>2018-04-02T18:41:01Z</time>
      </trkpt>
      <trkpt lat="62.63132370452" lon="17.985341980011">
        <ele>81.4</ele>
        <time>2018-04-02T18:41:02Z</time>
      </trkpt>
      <trkpt lat="62.631321525226" lon="17.985274505716">
        <ele>81.4</ele>
        <time>2018-04-02T18:41:03Z</time>
      </trkpt>
      <trkpt lat="62.631317250457" lon="17.98519621877">
        <ele>81.6</ele>
        <time>2018-04-02T18:41:04Z</time>
      </trkpt>
      <trkpt lat="62.631315154982" lon="17.985124637344">
        <ele>81.6</ele>
        <time>2018-04-02T18:41:05Z</time>
      </trkpt>
      <trkpt lat="62.631312472774" lon="17.985042746181">
        <ele>81.8</ele>
        <time>2018-04-02T18:41:06Z</time>
      </trkpt>
      <trkpt lat="62.63131196986" lon="17.984969823651">
        <ele>81.8</ele>
        <time>2018-04-02T18:41:07Z</time>
      </trkpt>
      <trkpt lat="62.631312724231" lon="17.984896649664">
        <ele>82</ele>
        <time>2018-04-02T18:41:08Z</time>
      </trkpt>
      <trkpt lat="62.631310209661" lon="17.984825571152">
        <ele>81.8</ele>
        <time>2018-04-02T18:41:09Z</time>
      </trkpt>
      <trkpt lat="62.631307024539" lon="17.984752983898">
        <ele>81.8</ele>
        <time>2018-04-02T18:41:10Z</time>
      </trkpt>
      <trkpt lat="62.631305431978" lon="17.984684671413">
        <ele>81.6</ele>
        <time>2018-04-02T18:41:11Z</time>
      </trkpt>
      <trkpt lat="62.631305431978" lon="17.984613592901">
        <ele>81.6</ele>
        <time>2018-04-02T18:41:12Z</time>
      </trkpt>
      <trkpt lat="62.631306353987" lon="17.984530612091">
        <ele>81.4</ele>
        <time>2018-04-02T18:41:13Z</time>
      </trkpt>
      <trkpt lat="62.631306186349" lon="17.984449307661">
        <ele>81.4</ele>
        <time>2018-04-02T18:41:14Z</time>
      </trkpt>
      <trkpt lat="62.631304007055" lon="17.984368841421">
        <ele>81.2</ele>
        <time>2018-04-02T18:41:15Z</time>
      </trkpt>
      <trkpt lat="62.631304090874" lon="17.984286866439">
        <ele>81.2</ele>
        <time>2018-04-02T18:41:16Z</time>
      </trkpt>
      <trkpt lat="62.63130610253" lon="17.984217799583">
        <ele>81</ele>
        <time>2018-04-02T18:41:17Z</time>
      </trkpt>
      <trkpt lat="62.631309203833" lon="17.984132974755">
        <ele>80.8</ele>
        <time>2018-04-02T18:41:18Z</time>
      </trkpt>
      <trkpt lat="62.631312975688" lon="17.984051502687">
        <ele>80.8</ele>
        <time>2018-04-02T18:41:19Z</time>
      </trkpt>
      <trkpt lat="62.631314232973" lon="17.983973131922">
        <ele>80.8</ele>
        <time>2018-04-02T18:41:20Z</time>
      </trkpt>
      <trkpt lat="62.631313227145" lon="17.983899035926">
        <ele>80.8</ele>
        <time>2018-04-02T18:41:21Z</time>
      </trkpt>
      <trkpt lat="62.631313478602" lon="17.983828125052">
        <ele>80.8</ele>
        <time>2018-04-02T18:41:22Z</time>
      </trkpt>
      <trkpt lat="62.631313310964" lon="17.983753442323">
        <ele>80.8</ele>
        <time>2018-04-02T18:41:23Z</time>
      </trkpt>
      <trkpt lat="62.631312556593" lon="17.98367406573">
        <ele>80.6</ele>
        <time>2018-04-02T18:41:24Z</time>
      </trkpt>
      <trkpt lat="62.631310628756" lon="17.983595527327">
        <ele>80.8</ele>
        <time>2018-04-02T18:41:25Z</time>
      </trkpt>
      <trkpt lat="62.631307108358" lon="17.983519168218">
        <ele>80.8</ele>
        <time>2018-04-02T18:41:26Z</time>
      </trkpt>
      <trkpt lat="62.631305934892" lon="17.983443814937">
        <ele>80.8</ele>
        <time>2018-04-02T18:41:27Z</time>
      </trkpt>
      <trkpt lat="62.631305599616" lon="17.983362594326">
        <ele>80.8</ele>
        <time>2018-04-02T18:41:28Z</time>
      </trkpt>
      <trkpt lat="62.631303336503" lon="17.983286570493">
        <ele>80.8</ele>
        <time>2018-04-02T18:41:29Z</time>
      </trkpt>
      <trkpt lat="62.631306856901" lon="17.983210881936">
        <ele>80.6</ele>
        <time>2018-04-02T18:41:30Z</time>
      </trkpt>
      <trkpt lat="62.631306856901" lon="17.983127649669">
        <ele>80.2</ele>
        <time>2018-04-02T18:41:31Z</time>
      </trkpt>
      <trkpt lat="62.631307359815" lon="17.983054224225">
        <ele>80.2</ele>
        <time>2018-04-02T18:41:32Z</time>
      </trkpt>
      <trkpt lat="62.631307611272" lon="17.982977697478">
        <ele>80.4</ele>
        <time>2018-04-02T18:41:33Z</time>
      </trkpt>
      <trkpt lat="62.631307443634" lon="17.982897482695">
        <ele>80.2</ele>
        <time>2018-04-02T18:41:34Z</time>
      </trkpt>
      <trkpt lat="62.631308198005" lon="17.982827745287">
        <ele>80.2</ele>
        <time>2018-04-02T18:41:35Z</time>
      </trkpt>
      <trkpt lat="62.631309790566" lon="17.982750547988">
        <ele>80.2</ele>
        <time>2018-04-02T18:41:36Z</time>
      </trkpt>
      <trkpt lat="62.631309790566" lon="17.982683157512">
        <ele>80.2</ele>
        <time>2018-04-02T18:41:37Z</time>
      </trkpt>
      <trkpt lat="62.631311550765" lon="17.982604116195">
        <ele>80</ele>
        <time>2018-04-02T18:41:38Z</time>
      </trkpt>
      <trkpt lat="62.631310796394" lon="17.982533121502">
        <ele>80</ele>
        <time>2018-04-02T18:41:39Z</time>
      </trkpt>
      <trkpt lat="62.631309706747" lon="17.982460198972">
        <ele>80</ele>
        <time>2018-04-02T18:41:40Z</time>
      </trkpt>
      <trkpt lat="62.631306437806" lon="17.982393143772">
        <ele>80.2</ele>
        <time>2018-04-02T18:41:41Z</time>
      </trkpt>
      <trkpt lat="62.631303252684" lon="17.982324076916">
        <ele>80.2</ele>
        <time>2018-04-02T18:41:42Z</time>
      </trkpt>
      <trkpt lat="62.631300319019" lon="17.982252411671">
        <ele>80.2</ele>
        <time>2018-04-02T18:41:43Z</time>
      </trkpt>
      <trkpt lat="62.631297217716" lon="17.982175214372">
        <ele>80.2</ele>
        <time>2018-04-02T18:41:44Z</time>
      </trkpt>
      <trkpt lat="62.631296630983" lon="17.982094412856">
        <ele>80.2</ele>
        <time>2018-04-02T18:41:45Z</time>
      </trkpt>
      <trkpt lat="62.631295289879" lon="17.982013108426">
        <ele>80.2</ele>
        <time>2018-04-02T18:41:46Z</time>
      </trkpt>
      <trkpt lat="62.631294703146" lon="17.981942532828">
        <ele>80.2</ele>
        <time>2018-04-02T18:41:47Z</time>
      </trkpt>
      <trkpt lat="62.631293026766" lon="17.981864748796">
        <ele>80</ele>
        <time>2018-04-02T18:41:48Z</time>
      </trkpt>
      <trkpt lat="62.631293697318" lon="17.981785036927">
        <ele>80</ele>
        <time>2018-04-02T18:41:49Z</time>
      </trkpt>
      <trkpt lat="62.631292942947" lon="17.981710605655">
        <ele>80</ele>
        <time>2018-04-02T18:41:50Z</time>
      </trkpt>
      <trkpt lat="62.631294116413" lon="17.981633659813">
        <ele>80</ele>
        <time>2018-04-02T18:41:51Z</time>
      </trkpt>
      <trkpt lat="62.631295122241" lon="17.981559899093">
        <ele>80</ele>
        <time>2018-04-02T18:41:52Z</time>
      </trkpt>
      <trkpt lat="62.631295960431" lon="17.981481695966">
        <ele>80.2</ele>
        <time>2018-04-02T18:41:53Z</time>
      </trkpt>
      <trkpt lat="62.631294786965" lon="17.981403325201">
        <ele>80.4</ele>
        <time>2018-04-02T18:41:54Z</time>
      </trkpt>
      <trkpt lat="62.631294703146" lon="17.981330905585">
        <ele>80.4</ele>
        <time>2018-04-02T18:41:55Z</time>
      </trkpt>
      <trkpt lat="62.63129688244" lon="17.981259910892">
        <ele>80.4</ele>
        <time>2018-04-02T18:41:56Z</time>
      </trkpt>
      <trkpt lat="62.631298475001" lon="17.981196040814">
        <ele>80.4</ele>
        <time>2018-04-02T18:41:57Z</time>
      </trkpt>
      <trkpt lat="62.631299229372" lon="17.981118508239">
        <ele>80.2</ele>
        <time>2018-04-02T18:41:58Z</time>
      </trkpt>
      <trkpt lat="62.63129939701" lon="17.981051620677">
        <ele>80.2</ele>
        <time>2018-04-02T18:41:59Z</time>
      </trkpt>
      <trkpt lat="62.631302917408" lon="17.980972998455">
        <ele>80</ele>
        <time>2018-04-02T18:42:00Z</time>
      </trkpt>
      <trkpt lat="62.631305096702" lon="17.980901081753">
        <ele>80.2</ele>
        <time>2018-04-02T18:42:01Z</time>
      </trkpt>
      <trkpt lat="62.631304845245" lon="17.980827907766">
        <ele>80.4</ele>
        <time>2018-04-02T18:42:02Z</time>
      </trkpt>
      <trkpt lat="62.631305599616" lon="17.980753057399">
        <ele>80.4</ele>
        <time>2018-04-02T18:42:03Z</time>
      </trkpt>
      <trkpt lat="62.631310544937" lon="17.980682984715">
        <ele>80.6</ele>
        <time>2018-04-02T18:42:04Z</time>
      </trkpt>
      <trkpt lat="62.63131616081" lon="17.980622551216">
        <ele>80.6</ele>
        <time>2018-04-02T18:42:05Z</time>
      </trkpt>
      <trkpt lat="62.631321860502" lon="17.98055683712">
        <ele>80.6</ele>
        <time>2018-04-02T18:42:06Z</time>
      </trkpt>
      <trkpt lat="62.631326470547" lon="17.980491793576">
        <ele>80.6</ele>
        <time>2018-04-02T18:42:07Z</time>
      </trkpt>
      <trkpt lat="62.631331415868" lon="17.980418451951">
        <ele>80.8</ele>
        <time>2018-04-02T18:42:08Z</time>
      </trkpt>
      <trkpt lat="62.631342815252" lon="17.980294399831">
        <ele>81.2</ele>
        <time>2018-04-02T18:42:10Z</time>
      </trkpt>
      <trkpt lat="62.631347844392" lon="17.980247880286">
        <ele>81.4</ele>
        <time>2018-04-02T18:42:11Z</time>
      </trkpt>
      <trkpt lat="62.631349353134" lon="17.980216280523">
        <ele>81.6</ele>
        <time>2018-04-02T18:42:12Z</time>
      </trkpt>
      <trkpt lat="62.631354382274" lon="17.980191637737">
        <ele>81.6</ele>
        <time>2018-04-02T18:42:13Z</time>
      </trkpt>
      <trkpt lat="62.6313589085" lon="17.980170180073">
        <ele>81.8</ele>
        <time>2018-04-02T18:42:14Z</time>
      </trkpt>
      <trkpt lat="62.631360417242" lon="17.980148470952">
        <ele>82</ele>
        <time>2018-04-02T18:42:15Z</time>
      </trkpt>
      <trkpt lat="62.631359411414" lon="17.98014277126">
        <ele>82</ele>
        <time>2018-04-02T18:42:16Z</time>
      </trkpt>
      <trkpt lat="62.631360333423" lon="17.980152242807">
        <ele>82.2</ele>
        <time>2018-04-02T18:42:17Z</time>
      </trkpt>
      <trkpt lat="62.631379611793" lon="17.980169677159">
        <ele>82.2</ele>
        <time>2018-04-02T18:42:20Z</time>
      </trkpt>
      <trkpt lat="62.631381120535" lon="17.980172359367">
        <ele>82.2</ele>
        <time>2018-04-02T18:42:21Z</time>
      </trkpt>
      <trkpt lat="62.631392268462" lon="17.980193565574">
        <ele>82.2</ele>
        <time>2018-04-02T18:42:22Z</time>
      </trkpt>
      <trkpt lat="62.631399309258" lon="17.98020731189">
        <ele>82.2</ele>
        <time>2018-04-02T18:42:23Z</time>
      </trkpt>
      <trkpt lat="62.631406517692" lon="17.980217789265">
        <ele>82</ele>
        <time>2018-04-02T18:42:24Z</time>
      </trkpt>
      <trkpt lat="62.631411379194" lon="17.980227763726">
        <ele>82</ele>
        <time>2018-04-02T18:42:25Z</time>
      </trkpt>
      <trkpt lat="62.631416911248" lon="17.980238744015">
        <ele>81.8</ele>
        <time>2018-04-02T18:42:26Z</time>
      </trkpt>
      <trkpt lat="62.631419509637" lon="17.980249975761">
        <ele>81.8</ele>
        <time>2018-04-02T18:42:27Z</time>
      </trkpt>
      <trkpt lat="62.631415989239" lon="17.980261542783">
        <ele>81.8</ele>
        <time>2018-04-02T18:42:28Z</time>
      </trkpt>
      <trkpt lat="62.631410792461" lon="17.980269421769">
        <ele>81.8</ele>
        <time>2018-04-02T18:42:29Z</time>
      </trkpt>
      <trkpt lat="62.6314175818" lon="17.98025927967">
        <ele>81.6</ele>
        <time>2018-04-02T18:42:30Z</time>
      </trkpt>
      <trkpt lat="62.631405595683" lon="17.980708884786">
        <ele>81.6</ele>
        <time>2018-04-02T18:43:44Z</time>
      </trkpt>
      <trkpt lat="62.631404925131" lon="17.980777113452">
        <ele>81.4</ele>
        <time>2018-04-02T18:43:45Z</time>
      </trkpt>
      <trkpt lat="62.631406182416" lon="17.980856741502">
        <ele>81</ele>
        <time>2018-04-02T18:43:46Z</time>
      </trkpt>
      <trkpt lat="62.631404841312" lon="17.980929244937">
        <ele>81</ele>
        <time>2018-04-02T18:43:47Z</time>
      </trkpt>
      <trkpt lat="62.631405260407" lon="17.981008202435">
        <ele>80.8</ele>
        <time>2018-04-02T18:43:48Z</time>
      </trkpt>
      <trkpt lat="62.631403081113" lon="17.981089506865">
        <ele>81</ele>
        <time>2018-04-02T18:43:49Z</time>
      </trkpt>
      <trkpt lat="62.631404422217" lon="17.981166704164">
        <ele>81</ele>
        <time>2018-04-02T18:43:50Z</time>
      </trkpt>
      <trkpt lat="62.631405763321" lon="17.981243733825">
        <ele>81</ele>
        <time>2018-04-02T18:43:51Z</time>
      </trkpt>
      <trkpt lat="62.631405260407" lon="17.981312716862">
        <ele>80.8</ele>
        <time>2018-04-02T18:43:52Z</time>
      </trkpt>
      <trkpt lat="62.631406098597" lon="17.981388237781">
        <ele>80.6</ele>
        <time>2018-04-02T18:43:53Z</time>
      </trkpt>
      <trkpt lat="62.63140584714" lon="17.981469039297">
        <ele>80.4</ele>
        <time>2018-04-02T18:43:54Z</time>
      </trkpt>
      <trkpt lat="62.631407439701" lon="17.981540285447">
        <ele>80.4</ele>
        <time>2018-04-02T18:43:55Z</time>
      </trkpt>
      <trkpt lat="62.631407188244" lon="17.981619745859">
        <ele>80.2</ele>
        <time>2018-04-02T18:43:56Z</time>
      </trkpt>
      <trkpt lat="62.631408948443" lon="17.981685376136">
        <ele>80.2</ele>
        <time>2018-04-02T18:43:57Z</time>
      </trkpt>
      <trkpt lat="62.631407188244" lon="17.981762908711">
        <ele>80.2</ele>
        <time>2018-04-02T18:43:58Z</time>
      </trkpt>
      <trkpt lat="62.631407272063" lon="17.981825102409">
        <ele>80.4</ele>
        <time>2018-04-02T18:43:59Z</time>
      </trkpt>
      <trkpt lat="62.631406014778" lon="17.981902467346">
        <ele>80.4</ele>
        <time>2018-04-02T18:44:00Z</time>
      </trkpt>
      <trkpt lat="62.631406852968" lon="17.98197086365">
        <ele>80.4</ele>
        <time>2018-04-02T18:44:01Z</time>
      </trkpt>
      <trkpt lat="62.631406517692" lon="17.982042193619">
        <ele>80.4</ele>
        <time>2018-04-02T18:44:02Z</time>
      </trkpt>
      <trkpt lat="62.631407607339" lon="17.982114026502">
        <ele>80.4</ele>
        <time>2018-04-02T18:44:03Z</time>
      </trkpt>
      <trkpt lat="62.631408445529" lon="17.982188876869">
        <ele>80</ele>
        <time>2018-04-02T18:44:04Z</time>
      </trkpt>
      <trkpt lat="62.631408696986" lon="17.98225417187">
        <ele>80.2</ele>
        <time>2018-04-02T18:44:05Z</time>
      </trkpt>
      <trkpt lat="62.631408864624" lon="17.982328603142">
        <ele>80.2</ele>
        <time>2018-04-02T18:44:06Z</time>
      </trkpt>
      <trkpt lat="62.631408026434" lon="17.982395993618">
        <ele>80.4</ele>
        <time>2018-04-02T18:44:07Z</time>
      </trkpt>
      <trkpt lat="62.631408613167" lon="17.982471430718">
        <ele>80.4</ele>
        <time>2018-04-02T18:44:08Z</time>
      </trkpt>
      <trkpt lat="62.631407607339" lon="17.9825450238">
        <ele>80.2</ele>
        <time>2018-04-02T18:44:09Z</time>
      </trkpt>
      <trkpt lat="62.631408110253" lon="17.98261040262">
        <ele>80.2</ele>
        <time>2018-04-02T18:44:10Z</time>
      </trkpt>
      <trkpt lat="62.631408445529" lon="17.982688186652">
        <ele>80</ele>
        <time>2018-04-02T18:44:11Z</time>
      </trkpt>
      <trkpt lat="62.631408194072" lon="17.982758594612">
        <ele>79.8</ele>
        <time>2018-04-02T18:44:12Z</time>
      </trkpt>
      <trkpt lat="62.631403751665" lon="17.982840150499">
        <ele>80</ele>
        <time>2018-04-02T18:44:13Z</time>
      </trkpt>
      <trkpt lat="62.631402997294" lon="17.982912653934">
        <ele>80</ele>
        <time>2018-04-02T18:44:14Z</time>
      </trkpt>
      <trkpt lat="62.631403416389" lon="17.982988845405">
        <ele>80.4</ele>
        <time>2018-04-02T18:44:15Z</time>
      </trkpt>
      <trkpt lat="62.631404422217" lon="17.983059253365">
        <ele>80.4</ele>
        <time>2018-04-02T18:44:16Z</time>
      </trkpt>
      <trkpt lat="62.631404589855" lon="17.983126224746">
        <ele>80.4</ele>
        <time>2018-04-02T18:44:17Z</time>
      </trkpt>
      <trkpt lat="62.631404673674" lon="17.983199985466">
        <ele>80.4</ele>
        <time>2018-04-02T18:44:18Z</time>
      </trkpt>
      <trkpt lat="62.631405344226" lon="17.983271902168">
        <ele>80.2</ele>
        <time>2018-04-02T18:44:19Z</time>
      </trkpt>
      <trkpt lat="62.631404925131" lon="17.983336358979">
        <ele>80.2</ele>
        <time>2018-04-02T18:44:20Z</time>
      </trkpt>
      <trkpt lat="62.631404841312" lon="17.983403078903">
        <ele>80</ele>
        <time>2018-04-02T18:44:21Z</time>
      </trkpt>
      <trkpt lat="62.631406601511" lon="17.983465104963">
        <ele>80</ele>
        <time>2018-04-02T18:44:22Z</time>
      </trkpt>
      <trkpt lat="62.63141087628" lon="17.983531908706">
        <ele>80.2</ele>
        <time>2018-04-02T18:44:23Z</time>
      </trkpt>
      <trkpt lat="62.631413726126" lon="17.983607681082">
        <ele>80.4</ele>
        <time>2018-04-02T18:44:24Z</time>
      </trkpt>
      <trkpt lat="62.631416827429" lon="17.983669790961">
        <ele>80.4</ele>
        <time>2018-04-02T18:44:25Z</time>
      </trkpt>
      <trkpt lat="62.631417833257" lon="17.983744808966">
        <ele>80.4</ele>
        <time>2018-04-02T18:44:26Z</time>
      </trkpt>
      <trkpt lat="62.631420347827" lon="17.983805996836">
        <ele>80.4</ele>
        <time>2018-04-02T18:44:27Z</time>
      </trkpt>
      <trkpt lat="62.631421521293" lon="17.983875063692">
        <ele>80.2</ele>
        <time>2018-04-02T18:44:28Z</time>
      </trkpt>
      <trkpt lat="62.631423868225" lon="17.983922421427">
        <ele>80.2</ele>
        <time>2018-04-02T18:44:29Z</time>
      </trkpt>
      <trkpt lat="62.631424874053" lon="17.984009006454">
        <ele>80.4</ele>
        <time>2018-04-02T18:44:30Z</time>
      </trkpt>
      <trkpt lat="62.631425544605" lon="17.984076480749">
        <ele>80.6</ele>
        <time>2018-04-02T18:44:31Z</time>
      </trkpt>
      <trkpt lat="62.63142764008" lon="17.984141272836">
        <ele>80.6</ele>
        <time>2018-04-02T18:44:32Z</time>
      </trkpt>
      <trkpt lat="62.631429903193" lon="17.98421721285">
        <ele>80.6</ele>
        <time>2018-04-02T18:44:33Z</time>
      </trkpt>
      <trkpt lat="62.631432166306" lon="17.984283681317">
        <ele>80.6</ele>
        <time>2018-04-02T18:44:34Z</time>
      </trkpt>
      <trkpt lat="62.631433255953" lon="17.984348473404">
        <ele>80.6</ele>
        <time>2018-04-02T18:44:35Z</time>
      </trkpt>
      <trkpt lat="62.631433926505" lon="17.984414774233">
        <ele>80.4</ele>
        <time>2018-04-02T18:44:36Z</time>
      </trkpt>
      <trkpt lat="62.631432250125" lon="17.984476465017">
        <ele>80.6</ele>
        <time>2018-04-02T18:44:37Z</time>
      </trkpt>
      <trkpt lat="62.631432333944" lon="17.984544526045">
        <ele>80.6</ele>
        <time>2018-04-02T18:44:38Z</time>
      </trkpt>
      <trkpt lat="62.63142680189" lon="17.984611329788">
        <ele>80.6</ele>
        <time>2018-04-02T18:44:39Z</time>
      </trkpt>
      <trkpt lat="62.631425628424" lon="17.984670338364">
        <ele>80.8</ele>
        <time>2018-04-02T18:44:40Z</time>
      </trkpt>
      <trkpt lat="62.63142093456" lon="17.984730101311">
        <ele>80.6</ele>
        <time>2018-04-02T18:44:41Z</time>
      </trkpt>
      <trkpt lat="62.631423616768" lon="17.984779470702">
        <ele>80.8</ele>
        <time>2018-04-02T18:44:42Z</time>
      </trkpt>
      <trkpt lat="62.631425879881" lon="17.984833701595">
        <ele>80.6</ele>
        <time>2018-04-02T18:44:43Z</time>
      </trkpt>
      <trkpt lat="62.631428310632" lon="17.984884495909">
        <ele>80.6</ele>
        <time>2018-04-02T18:44:44Z</time>
      </trkpt>
      <trkpt lat="62.631431244297" lon="17.984940151725">
        <ele>80.8</ele>
        <time>2018-04-02T18:44:45Z</time>
      </trkpt>
      <trkpt lat="62.631434094143" lon="17.985002764518">
        <ele>80.8</ele>
        <time>2018-04-02T18:44:46Z</time>
      </trkpt>
      <trkpt lat="62.631436608713" lon="17.985058252696">
        <ele>81</ele>
        <time>2018-04-02T18:44:47Z</time>
      </trkpt>
      <trkpt lat="62.631439710016" lon="17.985130588493">
        <ele>81.4</ele>
        <time>2018-04-02T18:44:48Z</time>
      </trkpt>
      <trkpt lat="62.631442056948" lon="17.985197811331">
        <ele>81.4</ele>
        <time>2018-04-02T18:44:49Z</time>
      </trkpt>
      <trkpt lat="62.631445912622" lon="17.985266794368">
        <ele>81.4</ele>
        <time>2018-04-02T18:44:50Z</time>
      </trkpt>
      <trkpt lat="62.631448511011" lon="17.985333933387">
        <ele>81.6</ele>
        <time>2018-04-02T18:44:51Z</time>
      </trkpt>
      <trkpt lat="62.631450690305" lon="17.985391265583">
        <ele>81.6</ele>
        <time>2018-04-02T18:44:52Z</time>
      </trkpt>
      <trkpt lat="62.631453875427" lon="17.985458488421">
        <ele>81.4</ele>
        <time>2018-04-02T18:44:53Z</time>
      </trkpt>
      <trkpt lat="62.631455551807" lon="17.985531410951">
        <ele>81.4</ele>
        <time>2018-04-02T18:44:54Z</time>
      </trkpt>
      <trkpt lat="62.631458234015" lon="17.985589162242">
        <ele>81.4</ele>
        <time>2018-04-02T18:44:55Z</time>
      </trkpt>
      <trkpt lat="62.631460748585" lon="17.985663006781">
        <ele>81.4</ele>
        <time>2018-04-02T18:44:56Z</time>
      </trkpt>
      <trkpt lat="62.631462341146" lon="17.985722350633">
        <ele>81.6</ele>
        <time>2018-04-02T18:44:57Z</time>
      </trkpt>
      <trkpt lat="62.631463766069" lon="17.985794183516">
        <ele>81.4</ele>
        <time>2018-04-02T18:44:58Z</time>
      </trkpt>
      <trkpt lat="62.631464939535" lon="17.985857047766">
        <ele>81.4</ele>
        <time>2018-04-02T18:44:59Z</time>
      </trkpt>
      <trkpt lat="62.631468040838" lon="17.985931898133">
        <ele>81.2</ele>
        <time>2018-04-02T18:45:00Z</time>
      </trkpt>
      <trkpt lat="62.631468962847" lon="17.98600339574">
        <ele>81.4</ele>
        <time>2018-04-02T18:45:01Z</time>
      </trkpt>
      <trkpt lat="62.631470555408" lon="17.98605955447">
        <ele>81.4</ele>
        <time>2018-04-02T18:45:02Z</time>
      </trkpt>
      <trkpt lat="62.631469381942" lon="17.986132309362">
        <ele>81.2</ele>
        <time>2018-04-02T18:45:03Z</time>
      </trkpt>
      <trkpt lat="62.631467705562" lon="17.986192994318">
        <ele>81.2</ele>
        <time>2018-04-02T18:45:04Z</time>
      </trkpt>
      <trkpt lat="62.631467370286" lon="17.986255439473">
        <ele>81.4</ele>
        <time>2018-04-02T18:45:05Z</time>
      </trkpt>
      <trkpt lat="62.631465190992" lon="17.986323751958">
        <ele>81.4</ele>
        <time>2018-04-02T18:45:06Z</time>
      </trkpt>
      <trkpt lat="62.631463933707" lon="17.986382676715">
        <ele>81.6</ele>
        <time>2018-04-02T18:45:07Z</time>
      </trkpt>
      <trkpt lat="62.631461251499" lon="17.986454928693">
        <ele>81.6</ele>
        <time>2018-04-02T18:45:08Z</time>
      </trkpt>
      <trkpt lat="62.63145781492" lon="17.986515613649">
        <ele>81.6</ele>
        <time>2018-04-02T18:45:09Z</time>
      </trkpt>
      <trkpt lat="62.631453791608" lon="17.986576801519">
        <ele>81.8</ele>
        <time>2018-04-02T18:45:10Z</time>
      </trkpt>
      <trkpt lat="62.6314511094" lon="17.986641845063">
        <ele>81.8</ele>
        <time>2018-04-02T18:45:11Z</time>
      </trkpt>
      <trkpt lat="62.63144859483" lon="17.986709822272">
        <ele>81.8</ele>
        <time>2018-04-02T18:45:12Z</time>
      </trkpt>
      <trkpt lat="62.631443900966" lon="17.986782325707">
        <ele>81.8</ele>
        <time>2018-04-02T18:45:13Z</time>
      </trkpt>
      <trkpt lat="62.631435351428" lon="17.986843513577">
        <ele>81.8</ele>
        <time>2018-04-02T18:45:14Z</time>
      </trkpt>
      <trkpt lat="62.631422024207" lon="17.986909982044">
        <ele>81.8</ele>
        <time>2018-04-02T18:45:15Z</time>
      </trkpt>
      <trkpt lat="62.631411211556" lon="17.986972259561">
        <ele>82</ele>
        <time>2018-04-02T18:45:16Z</time>
      </trkpt>
      <trkpt lat="62.631398973982" lon="17.987031687232">
        <ele>82</ele>
        <time>2018-04-02T18:45:17Z</time>
      </trkpt>
      <trkpt lat="62.631385814399" lon="17.987101173183">
        <ele>82</ele>
        <time>2018-04-02T18:45:18Z</time>
      </trkpt>
      <trkpt lat="62.631372235721" lon="17.987160349397">
        <ele>82</ele>
        <time>2018-04-02T18:45:19Z</time>
      </trkpt>
      <trkpt lat="62.63135471755" lon="17.987218687421">
        <ele>82</ele>
        <time>2018-04-02T18:45:20Z</time>
      </trkpt>
      <trkpt lat="62.631340300682" lon="17.987273924142">
        <ele>82</ele>
        <time>2018-04-02T18:45:21Z</time>
      </trkpt>
      <trkpt lat="62.631325045624" lon="17.987331340157">
        <ele>82.2</ele>
        <time>2018-04-02T18:45:22Z</time>
      </trkpt>
      <trkpt lat="62.631310377299" lon="17.987386828335">
        <ele>82</ele>
        <time>2018-04-02T18:45:23Z</time>
      </trkpt>
      <trkpt lat="62.631294451689" lon="17.987446507463">
        <ele>82</ele>
        <time>2018-04-02T18:45:24Z</time>
      </trkpt>
      <trkpt lat="62.631277855527" lon="17.987498056148">
        <ele>82.2</ele>
        <time>2018-04-02T18:45:25Z</time>
      </trkpt>
      <trkpt lat="62.631261427003" lon="17.98755237086">
        <ele>82.2</ele>
        <time>2018-04-02T18:45:26Z</time>
      </trkpt>
      <trkpt lat="62.631242651547" lon="17.987604171002">
        <ele>82.2</ele>
        <time>2018-04-02T18:45:27Z</time>
      </trkpt>
      <trkpt lat="62.631225384833" lon="17.987657898981">
        <ele>82</ele>
        <time>2018-04-02T18:45:28Z</time>
      </trkpt>
      <trkpt lat="62.631210884146" lon="17.987708190381">
        <ele>82.2</ele>
        <time>2018-04-02T18:45:29Z</time>
      </trkpt>
      <trkpt lat="62.631193952708" lon="17.987769964984">
        <ele>82.2</ele>
        <time>2018-04-02T18:45:30Z</time>
      </trkpt>
      <trkpt lat="62.631180457849" lon="17.987825788438">
        <ele>82.2</ele>
        <time>2018-04-02T18:45:31Z</time>
      </trkpt>
      <trkpt lat="62.631163861687" lon="17.987878929684">
        <ele>82.2</ele>
        <time>2018-04-02T18:45:32Z</time>
      </trkpt>
      <trkpt lat="62.631149193362" lon="17.987936178061">
        <ele>82.4</ele>
        <time>2018-04-02T18:45:33Z</time>
      </trkpt>
      <trkpt lat="62.631133603028" lon="17.987997114474">
        <ele>82.4</ele>
        <time>2018-04-02T18:45:34Z</time>
      </trkpt>
      <trkpt lat="62.631121952187" lon="17.988049752806">
        <ele>82.6</ele>
        <time>2018-04-02T18:45:35Z</time>
      </trkpt>
      <trkpt lat="62.631112229183" lon="17.988118735843">
        <ele>82.6</ele>
        <time>2018-04-02T18:45:36Z</time>
      </trkpt>
      <trkpt lat="62.631100243066" lon="17.988174559297">
        <ele>82.8</ele>
        <time>2018-04-02T18:45:37Z</time>
      </trkpt>
      <trkpt lat="62.631088927501" lon="17.988232394407">
        <ele>82.8</ele>
        <time>2018-04-02T18:45:38Z</time>
      </trkpt>
      <trkpt lat="62.63107643847" lon="17.988290564793">
        <ele>83</ele>
        <time>2018-04-02T18:45:39Z</time>
      </trkpt>
      <trkpt lat="62.631068643303" lon="17.988345969152">
        <ele>83</ele>
        <time>2018-04-02T18:45:40Z</time>
      </trkpt>
      <trkpt lat="62.631060680498" lon="17.988408079031">
        <ele>83</ele>
        <time>2018-04-02T18:45:41Z</time>
      </trkpt>
      <trkpt lat="62.631055232263" lon="17.988465578865">
        <ele>83.2</ele>
        <time>2018-04-02T18:45:42Z</time>
      </trkpt>
      <trkpt lat="62.631052298598" lon="17.988520983224">
        <ele>83.2</ele>
        <time>2018-04-02T18:45:43Z</time>
      </trkpt>
      <trkpt lat="62.631047185639" lon="17.988582590189">
        <ele>83.2</ele>
        <time>2018-04-02T18:45:44Z</time>
      </trkpt>
      <trkpt lat="62.631044335793" lon="17.988636066711">
        <ele>83.4</ele>
        <time>2018-04-02T18:45:45Z</time>
      </trkpt>
      <trkpt lat="62.631039474291" lon="17.988694404735">
        <ele>83.4</ele>
        <time>2018-04-02T18:45:46Z</time>
      </trkpt>
      <trkpt lat="62.631035115703" lon="17.988747545981">
        <ele>83.4</ele>
        <time>2018-04-02T18:45:47Z</time>
      </trkpt>
      <trkpt lat="62.631029667468" lon="17.988807057471">
        <ele>83.6</ele>
        <time>2018-04-02T18:45:48Z</time>
      </trkpt>
      <trkpt lat="62.63102279431" lon="17.988866233685">
        <ele>84</ele>
        <time>2018-04-02T18:45:49Z</time>
      </trkpt>
      <trkpt lat="62.631014580048" lon="17.988920464578">
        <ele>84.2</ele>
        <time>2018-04-02T18:45:50Z</time>
      </trkpt>
      <trkpt lat="62.631008209804" lon="17.988979556973">
        <ele>84.2</ele>
        <time>2018-04-02T18:45:51Z</time>
      </trkpt>
      <trkpt lat="62.631001923379" lon="17.989036302436">
        <ele>84.6</ele>
        <time>2018-04-02T18:45:52Z</time>
      </trkpt>
      <trkpt lat="62.630994379669" lon="17.989090114234">
        <ele>84.8</ele>
        <time>2018-04-02T18:45:53Z</time>
      </trkpt>
      <trkpt lat="62.630988596158" lon="17.989146775878">
        <ele>85</ele>
        <time>2018-04-02T18:45:54Z</time>
      </trkpt>
      <trkpt lat="62.630982980285" lon="17.989192876328">
        <ele>85</ele>
        <time>2018-04-02T18:45:55Z</time>
      </trkpt>
      <trkpt lat="62.630975771851" lon="17.989247610135">
        <ele>85.2</ele>
        <time>2018-04-02T18:45:56Z</time>
      </trkpt>
      <trkpt lat="62.630970910349" lon="17.989296728069">
        <ele>85.2</ele>
        <time>2018-04-02T18:45:57Z</time>
      </trkpt>
      <trkpt lat="62.630964791562" lon="17.9893511266">
        <ele>85.4</ele>
        <time>2018-04-02T18:45:58Z</time>
      </trkpt>
      <trkpt lat="62.630956325843" lon="17.989403345837">
        <ele>85.4</ele>
        <time>2018-04-02T18:45:59Z</time>
      </trkpt>
      <trkpt lat="62.630946099925" lon="17.989449781563">
        <ele>85.6</ele>
        <time>2018-04-02T18:46:00Z</time>
      </trkpt>
      <trkpt lat="62.630931012505" lon="17.989516585306">
        <ele>85.6</ele>
        <time>2018-04-02T18:46:02Z</time>
      </trkpt>
      <trkpt lat="62.630926905374" lon="17.989544916128">
        <ele>85.8</ele>
        <time>2018-04-02T18:46:03Z</time>
      </trkpt>
      <trkpt lat="62.630925228994" lon="17.989565451783">
        <ele>85.8</ele>
        <time>2018-04-02T18:46:04Z</time>
      </trkpt>
      <trkpt lat="62.630922798243" lon="17.989581880307">
        <ele>85.8</ele>
        <time>2018-04-02T18:46:05Z</time>
      </trkpt>
      <trkpt lat="62.630922462967" lon="17.989581964126">
        <ele>86</ele>
        <time>2018-04-02T18:46:06Z</time>
      </trkpt>
      <trkpt lat="62.630917769103" lon="17.989588921103">
        <ele>86</ele>
        <time>2018-04-02T18:46:07Z</time>
      </trkpt>
      <trkpt lat="62.630932521247" lon="17.989064633258">
        <ele>85.8</ele>
        <time>2018-04-02T18:47:47Z</time>
      </trkpt>
      <trkpt lat="62.630942830984" lon="17.988988525606">
        <ele>85.8</ele>
        <time>2018-04-02T18:47:48Z</time>
      </trkpt>
      <trkpt lat="62.630952051074" lon="17.988905041882">
        <ele>85.6</ele>
        <time>2018-04-02T18:47:49Z</time>
      </trkpt>
      <trkpt lat="62.630961187345" lon="17.988821725796">
        <ele>85.4</ele>
        <time>2018-04-02T18:47:50Z</time>
      </trkpt>
      <trkpt lat="62.630967389951" lon="17.988753161854">
        <ele>85.2</ele>
        <time>2018-04-02T18:47:51Z</time>
      </trkpt>
      <trkpt lat="62.630974430747" lon="17.988669091397">
        <ele>85.2</ele>
        <time>2018-04-02T18:47:52Z</time>
      </trkpt>
      <trkpt lat="62.630981555362" lon="17.988598851075">
        <ele>85</ele>
        <time>2018-04-02T18:47:53Z</time>
      </trkpt>
      <trkpt lat="62.630988679977" lon="17.988511008763">
        <ele>85</ele>
        <time>2018-04-02T18:47:54Z</time>
      </trkpt>
      <trkpt lat="62.630992954746" lon="17.988433392369">
        <ele>84.8</ele>
        <time>2018-04-02T18:47:55Z</time>
      </trkpt>
      <trkpt lat="62.630998822076" lon="17.988352507034">
        <ele>84.6</ele>
        <time>2018-04-02T18:47:56Z</time>
      </trkpt>
      <trkpt lat="62.631010137641" lon="17.988279835961">
        <ele>84.4</ele>
        <time>2018-04-02T18:47:57Z</time>
      </trkpt>
      <trkpt lat="62.631023213405" lon="17.988204901775">
        <ele>84.2</ele>
        <time>2018-04-02T18:47:58Z</time>
      </trkpt>
      <trkpt lat="62.631035870074" lon="17.988134661453">
        <ele>84</ele>
        <time>2018-04-02T18:47:59Z</time>
      </trkpt>
      <trkpt lat="62.631045341621" lon="17.988054530489">
        <ele>83.8</ele>
        <time>2018-04-02T18:48:00Z</time>
      </trkpt>
      <trkpt lat="62.631062440697" lon="17.987984709262">
        <ele>83.6</ele>
        <time>2018-04-02T18:48:01Z</time>
      </trkpt>
      <trkpt lat="62.631076773746" lon="17.987923269935">
        <ele>83.2</ele>
        <time>2018-04-02T18:48:02Z</time>
      </trkpt>
      <trkpt lat="62.631094124279" lon="17.98784909012">
        <ele>83</ele>
        <time>2018-04-02T18:48:03Z</time>
      </trkpt>
      <trkpt lat="62.631107870595" lon="17.987789494811">
        <ele>82.8</ele>
        <time>2018-04-02T18:48:04Z</time>
      </trkpt>
      <trkpt lat="62.631125807861" lon="17.987720679412">
        <ele>82.8</ele>
        <time>2018-04-02T18:48:05Z</time>
      </trkpt>
      <trkpt lat="62.631141565833" lon="17.987651696375">
        <ele>82.8</ele>
        <time>2018-04-02T18:48:06Z</time>
      </trkpt>
      <trkpt lat="62.631155898882" lon="17.987593358351">
        <ele>82.6</ele>
        <time>2018-04-02T18:48:07Z</time>
      </trkpt>
      <trkpt lat="62.631176853632" lon="17.987530661739">
        <ele>82.4</ele>
        <time>2018-04-02T18:48:08Z</time>
      </trkpt>
      <trkpt lat="62.631192779242" lon="17.987473161905">
        <ele>82.2</ele>
        <time>2018-04-02T18:48:09Z</time>
      </trkpt>
      <trkpt lat="62.631211806155" lon="17.987410549112">
        <ele>82.2</ele>
        <time>2018-04-02T18:48:10Z</time>
      </trkpt>
      <trkpt lat="62.631229072869" lon="17.987360006255">
        <ele>82</ele>
        <time>2018-04-02T18:48:11Z</time>
      </trkpt>
      <trkpt lat="62.631248770334" lon="17.987305188629">
        <ele>82</ele>
        <time>2018-04-02T18:48:12Z</time>
      </trkpt>
      <trkpt lat="62.631262935745" lon="17.987239809809">
        <ele>82.2</ele>
        <time>2018-04-02T18:48:13Z</time>
      </trkpt>
      <trkpt lat="62.631272910206" lon="17.987166049089">
        <ele>82.2</ele>
        <time>2018-04-02T18:48:14Z</time>
      </trkpt>
      <trkpt lat="62.631285734513" lon="17.987094802939">
        <ele>82.2</ele>
        <time>2018-04-02T18:48:15Z</time>
      </trkpt>
      <trkpt lat="62.631292775309" lon="17.98704694229">
        <ele>82</ele>
        <time>2018-04-02T18:48:16Z</time>
      </trkpt>
      <trkpt lat="62.631300821933" lon="17.986984664773">
        <ele>82</ele>
        <time>2018-04-02T18:48:17Z</time>
      </trkpt>
      <trkpt lat="62.631311550765" lon="17.986923476903">
        <ele>82</ele>
        <time>2018-04-02T18:48:18Z</time>
      </trkpt>
      <trkpt lat="62.631318340104" lon="17.986863043404">
        <ele>81.8</ele>
        <time>2018-04-02T18:48:19Z</time>
      </trkpt>
      <trkpt lat="62.63132621909" lon="17.986798502774">
        <ele>81.8</ele>
        <time>2018-04-02T18:48:20Z</time>
      </trkpt>
      <trkpt lat="62.631333595162" lon="17.98672591552">
        <ele>81.8</ele>
        <time>2018-04-02T18:48:21Z</time>
      </trkpt>
      <trkpt lat="62.631335355361" lon="17.98666640403">
        <ele>82</ele>
        <time>2018-04-02T18:48:22Z</time>
      </trkpt>
      <trkpt lat="62.63133795375" lon="17.986597253355">
        <ele>81.8</ele>
        <time>2018-04-02T18:48:23Z</time>
      </trkpt>
      <trkpt lat="62.631336361189" lon="17.986511925613">
        <ele>81.8</ele>
        <time>2018-04-02T18:48:24Z</time>
      </trkpt>
      <trkpt lat="62.63133879194" lon="17.986444032223">
        <ele>81.6</ele>
        <time>2018-04-02T18:48:25Z</time>
      </trkpt>
      <trkpt lat="62.631335942094" lon="17.986374965367">
        <ele>81.6</ele>
        <time>2018-04-02T18:48:26Z</time>
      </trkpt>
      <trkpt lat="62.631334852447" lon="17.986310424737">
        <ele>81.6</ele>
        <time>2018-04-02T18:48:27Z</time>
      </trkpt>
      <trkpt lat="62.631333176067" lon="17.98623892713">
        <ele>81.6</ele>
        <time>2018-04-02T18:48:28Z</time>
      </trkpt>
      <trkpt lat="62.631333343705" lon="17.986175476147">
        <ele>81.4</ele>
        <time>2018-04-02T18:48:29Z</time>
      </trkpt>
      <trkpt lat="62.631329068936" lon="17.98610816949">
        <ele>81.4</ele>
        <time>2018-04-02T18:48:30Z</time>
      </trkpt>
      <trkpt lat="62.631331751144" lon="17.986039940824">
        <ele>81.4</ele>
        <time>2018-04-02T18:48:31Z</time>
      </trkpt>
      <trkpt lat="62.631329907126" lon="17.9859732209">
        <ele>81.4</ele>
        <time>2018-04-02T18:48:32Z</time>
      </trkpt>
      <trkpt lat="62.631324961805" lon="17.985902896759">
        <ele>81.4</ele>
        <time>2018-04-02T18:48:33Z</time>
      </trkpt>
      <trkpt lat="62.631325464719" lon="17.985830393324">
        <ele>81.2</ele>
        <time>2018-04-02T18:48:34Z</time>
      </trkpt>
      <trkpt lat="62.631322950149" lon="17.985775324241">
        <ele>81.2</ele>
        <time>2018-04-02T18:48:35Z</time>
      </trkpt>
      <trkpt lat="62.631323872158" lon="17.985700892969">
        <ele>81.2</ele>
        <time>2018-04-02T18:48:36Z</time>
      </trkpt>
      <trkpt lat="62.631323536882" lon="17.985642052031">
        <ele>81.2</ele>
        <time>2018-04-02T18:48:37Z</time>
      </trkpt>
      <trkpt lat="62.631322531054" lon="17.985579606876">
        <ele>81.2</ele>
        <time>2018-04-02T18:48:38Z</time>
      </trkpt>
      <trkpt lat="62.631319765027" lon="17.985513641323">
        <ele>81</ele>
        <time>2018-04-02T18:48:39Z</time>
      </trkpt>
      <trkpt lat="62.631316999" lon="17.985460080982">
        <ele>81</ele>
        <time>2018-04-02T18:48:40Z</time>
      </trkpt>
      <trkpt lat="62.631314400611" lon="17.985401910596">
        <ele>81</ele>
        <time>2018-04-02T18:48:41Z</time>
      </trkpt>
      <trkpt lat="62.631316915181" lon="17.985350361911">
        <ele>81</ele>
        <time>2018-04-02T18:48:42Z</time>
      </trkpt>
      <trkpt lat="62.631314568249" lon="17.985289928412">
        <ele>81.2</ele>
        <time>2018-04-02T18:48:43Z</time>
      </trkpt>
      <trkpt lat="62.631319681208" lon="17.985221867384">
        <ele>81.2</ele>
        <time>2018-04-02T18:48:44Z</time>
      </trkpt>
      <trkpt lat="62.631317250457" lon="17.985159925143">
        <ele>81.2</ele>
        <time>2018-04-02T18:48:45Z</time>
      </trkpt>
      <trkpt lat="62.631316663724" lon="17.985090103916">
        <ele>81.4</ele>
        <time>2018-04-02T18:48:46Z</time>
      </trkpt>
      <trkpt lat="62.631316663724" lon="17.985025982381">
        <ele>81.4</ele>
        <time>2018-04-02T18:48:47Z</time>
      </trkpt>
      <trkpt lat="62.631315909353" lon="17.984949707091">
        <ele>81.2</ele>
        <time>2018-04-02T18:48:48Z</time>
      </trkpt>
      <trkpt lat="62.63131532262" lon="17.984879634407">
        <ele>81.2</ele>
        <time>2018-04-02T18:48:49Z</time>
      </trkpt>
      <trkpt lat="62.631312975688" lon="17.984815596691">
        <ele>81.2</ele>
        <time>2018-04-02T18:48:50Z</time>
      </trkpt>
      <trkpt lat="62.631310377299" lon="17.98474778712">
        <ele>81.2</ele>
        <time>2018-04-02T18:48:51Z</time>
      </trkpt>
      <trkpt lat="62.63130610253" lon="17.984676038056">
        <ele>81.2</ele>
        <time>2018-04-02T18:48:52Z</time>
      </trkpt>
      <trkpt lat="62.631303168865" lon="17.984595739454">
        <ele>81</ele>
        <time>2018-04-02T18:48:53Z</time>
      </trkpt>
      <trkpt lat="62.631304929064" lon="17.984516530499">
        <ele>81</ele>
        <time>2018-04-02T18:48:54Z</time>
      </trkpt>
      <trkpt lat="62.63130358796" lon="17.984450145851">
        <ele>81</ele>
        <time>2018-04-02T18:48:55Z</time>
      </trkpt>
      <trkpt lat="62.63130694072" lon="17.984375127846">
        <ele>80.8</ele>
        <time>2018-04-02T18:48:56Z</time>
      </trkpt>
      <trkpt lat="62.631309706747" lon="17.984312431234">
        <ele>80.6</ele>
        <time>2018-04-02T18:48:57Z</time>
      </trkpt>
      <trkpt lat="62.631310544937" lon="17.98423984398">
        <ele>80.6</ele>
        <time>2018-04-02T18:48:58Z</time>
      </trkpt>
      <trkpt lat="62.631312221317" lon="17.98417195059">
        <ele>80.4</ele>
        <time>2018-04-02T18:48:59Z</time>
      </trkpt>
      <trkpt lat="62.631312724231" lon="17.984103805743">
        <ele>80.4</ele>
        <time>2018-04-02T18:49:00Z</time>
      </trkpt>
      <trkpt lat="62.63131113167" lon="17.984033984516">
        <ele>80.2</ele>
        <time>2018-04-02T18:49:01Z</time>
      </trkpt>
      <trkpt lat="62.631313310964" lon="17.983968940972">
        <ele>80.2</ele>
        <time>2018-04-02T18:49:02Z</time>
      </trkpt>
      <trkpt lat="62.631314987344" lon="17.98390205341">
        <ele>80.4</ele>
        <time>2018-04-02T18:49:03Z</time>
      </trkpt>
      <trkpt lat="62.631316579905" lon="17.983828879423">
        <ele>80.4</ele>
        <time>2018-04-02T18:49:04Z</time>
      </trkpt>
      <trkpt lat="62.631317082819" lon="17.983772050141">
        <ele>80.2</ele>
        <time>2018-04-02T18:49:05Z</time>
      </trkpt>
      <trkpt lat="62.631317669552" lon="17.983696277765">
        <ele>80.2</ele>
        <time>2018-04-02T18:49:06Z</time>
      </trkpt>
      <trkpt lat="62.631316999" lon="17.983638442655">
        <ele>80.2</ele>
        <time>2018-04-02T18:49:07Z</time>
      </trkpt>
      <trkpt lat="62.631312221317" lon="17.983569794894">
        <ele>80.2</ele>
        <time>2018-04-02T18:49:08Z</time>
      </trkpt>
      <trkpt lat="62.631308784738" lon="17.983497878192">
        <ele>80.2</ele>
        <time>2018-04-02T18:49:09Z</time>
      </trkpt>
      <trkpt lat="62.631309539109" lon="17.983446580964">
        <ele>80.2</ele>
        <time>2018-04-02T18:49:10Z</time>
      </trkpt>
      <trkpt lat="62.631309622928" lon="17.983381872696">
        <ele>80.2</ele>
        <time>2018-04-02T18:49:11Z</time>
      </trkpt>
      <trkpt lat="62.63131029348" lon="17.983316074781">
        <ele>80.2</ele>
        <time>2018-04-02T18:49:12Z</time>
      </trkpt>
      <trkpt lat="62.631306689263" lon="17.983251282694">
        <ele>80</ele>
        <time>2018-04-02T18:49:13Z</time>
      </trkpt>
      <trkpt lat="62.631308784738" lon="17.9831820482">
        <ele>80</ele>
        <time>2018-04-02T18:49:14Z</time>
      </trkpt>
      <trkpt lat="62.631308281824" lon="17.983122452891">
        <ele>80</ele>
        <time>2018-04-02T18:49:15Z</time>
      </trkpt>
      <trkpt lat="62.631309203833" lon="17.983060929745">
        <ele>80</ele>
        <time>2018-04-02T18:49:16Z</time>
      </trkpt>
      <trkpt lat="62.631312053679" lon="17.983005357748">
        <ele>80</ele>
        <time>2018-04-02T18:49:17Z</time>
      </trkpt>
      <trkpt lat="62.631311383127" lon="17.982936709987">
        <ele>79.8</ele>
        <time>2018-04-02T18:49:18Z</time>
      </trkpt>
      <trkpt lat="62.631312975688" lon="17.982868229864">
        <ele>79.8</ele>
        <time>2018-04-02T18:49:19Z</time>
      </trkpt>
      <trkpt lat="62.631313813878" lon="17.982804946519">
        <ele>79.8</ele>
        <time>2018-04-02T18:49:20Z</time>
      </trkpt>
      <trkpt lat="62.631313394783" lon="17.982734287102">
        <ele>79.8</ele>
        <time>2018-04-02T18:49:21Z</time>
      </trkpt>
      <trkpt lat="62.631316244629" lon="17.98267829601">
        <ele>79.6</ele>
        <time>2018-04-02T18:49:22Z</time>
      </trkpt>
      <trkpt lat="62.63131616081" lon="17.982620963814">
        <ele>79.6</ele>
        <time>2018-04-02T18:49:23Z</time>
      </trkpt>
      <trkpt lat="62.631317921009" lon="17.982546951637">
        <ele>79.8</ele>
        <time>2018-04-02T18:49:24Z</time>
      </trkpt>
      <trkpt lat="62.631318088647" lon="17.982486769595">
        <ele>79.8</ele>
        <time>2018-04-02T18:49:25Z</time>
      </trkpt>
      <trkpt lat="62.631316999" lon="17.982423318612">
        <ele>79.6</ele>
        <time>2018-04-02T18:49:26Z</time>
      </trkpt>
      <trkpt lat="62.631317250457" lon="17.982359867629">
        <ele>79.8</ele>
        <time>2018-04-02T18:49:27Z</time>
      </trkpt>
      <trkpt lat="62.631313981516" lon="17.982295662275">
        <ele>79.8</ele>
        <time>2018-04-02T18:49:28Z</time>
      </trkpt>
      <trkpt lat="62.631315574077" lon="17.982234977319">
        <ele>79.8</ele>
        <time>2018-04-02T18:49:29Z</time>
      </trkpt>
      <trkpt lat="62.631315406439" lon="17.982169179404">
        <ele>79.8</ele>
        <time>2018-04-02T18:49:30Z</time>
      </trkpt>
      <trkpt lat="62.631314316792" lon="17.982111344294">
        <ele>79.8</ele>
        <time>2018-04-02T18:49:31Z</time>
      </trkpt>
      <trkpt lat="62.631316915181" lon="17.982044792008">
        <ele>79.6</ele>
        <time>2018-04-02T18:49:32Z</time>
      </trkpt>
      <trkpt lat="62.631316579905" lon="17.981982682129">
        <ele>79.8</ele>
        <time>2018-04-02T18:49:33Z</time>
      </trkpt>
      <trkpt lat="62.631315741715" lon="17.981915794567">
        <ele>79.8</ele>
        <time>2018-04-02T18:49:34Z</time>
      </trkpt>
      <trkpt lat="62.631314819706" lon="17.98186776628">
        <ele>79.8</ele>
        <time>2018-04-02T18:49:35Z</time>
      </trkpt>
      <trkpt lat="62.631313562421" lon="17.981798028872">
        <ele>79.8</ele>
        <time>2018-04-02T18:49:36Z</time>
      </trkpt>
      <trkpt lat="62.631315071163" lon="17.98173617045">
        <ele>79.8</ele>
        <time>2018-04-02T18:49:37Z</time>
      </trkpt>
      <trkpt lat="62.631312472774" lon="17.981677245693">
        <ele>79.8</ele>
        <time>2018-04-02T18:49:38Z</time>
      </trkpt>
      <trkpt lat="62.6313086171" lon="17.981605328991">
        <ele>80</ele>
        <time>2018-04-02T18:49:39Z</time>
      </trkpt>
      <trkpt lat="62.631309036195" lon="17.981541207456">
        <ele>80</ele>
        <time>2018-04-02T18:49:40Z</time>
      </trkpt>
      <trkpt lat="62.631309874385" lon="17.981490496961">
        <ele>79.8</ele>
        <time>2018-04-02T18:49:41Z</time>
      </trkpt>
      <trkpt lat="62.631309120014" lon="17.98142352558">
        <ele>80</ele>
        <time>2018-04-02T18:49:42Z</time>
      </trkpt>
      <trkpt lat="62.631309622928" lon="17.981361667158">
        <ele>80</ele>
        <time>2018-04-02T18:49:43Z</time>
      </trkpt>
      <trkpt lat="62.631310880213" lon="17.981302993858">
        <ele>79.8</ele>
        <time>2018-04-02T18:49:44Z</time>
      </trkpt>
      <trkpt lat="62.631312472774" lon="17.981239878151">
        <ele>79.8</ele>
        <time>2018-04-02T18:49:45Z</time>
      </trkpt>
      <trkpt lat="62.631313730059" lon="17.981189419113">
        <ele>79.8</ele>
        <time>2018-04-02T18:49:46Z</time>
      </trkpt>
      <trkpt lat="62.631314819706" lon="17.9811284827">
        <ele>79.8</ele>
        <time>2018-04-02T18:49:47Z</time>
      </trkpt>
      <trkpt lat="62.631317082819" lon="17.981066037545">
        <ele>80</ele>
        <time>2018-04-02T18:49:48Z</time>
      </trkpt>
      <trkpt lat="62.631315741715" lon="17.980999820535">
        <ele>80.2</ele>
        <time>2018-04-02T18:49:49Z</time>
      </trkpt>
      <trkpt lat="62.631317334276" lon="17.980933435887">
        <ele>80</ele>
        <time>2018-04-02T18:49:50Z</time>
      </trkpt>
      <trkpt lat="62.631318507742" lon="17.980875600777">
        <ele>80.2</ele>
        <time>2018-04-02T18:49:51Z</time>
      </trkpt>
      <trkpt lat="62.631321273769" lon="17.980814077631">
        <ele>80.2</ele>
        <time>2018-04-02T18:49:52Z</time>
      </trkpt>
      <trkpt lat="62.631324123615" lon="17.980757667444">
        <ele>80.2</ele>
        <time>2018-04-02T18:49:53Z</time>
      </trkpt>
      <trkpt lat="62.631327476375" lon="17.980701341076">
        <ele>80</ele>
        <time>2018-04-02T18:49:54Z</time>
      </trkpt>
      <trkpt lat="62.631333511343" lon="17.980642081043">
        <ele>80.2</ele>
        <time>2018-04-02T18:49:55Z</time>
      </trkpt>
      <trkpt lat="62.631335271542" lon="17.980584329752">
        <ele>80.2</ele>
        <time>2018-04-02T18:49:56Z</time>
      </trkpt>
      <trkpt lat="62.631337786112" lon="17.980526159366">
        <ele>80.4</ele>
        <time>2018-04-02T18:49:57Z</time>
      </trkpt>
      <trkpt lat="62.631341893243" lon="17.98046547441">
        <ele>80.2</ele>
        <time>2018-04-02T18:49:58Z</time>
      </trkpt>
      <trkpt lat="62.631338456664" lon="17.980412249345">
        <ele>80.2</ele>
        <time>2018-04-02T18:49:59Z</time>
      </trkpt>
      <trkpt lat="62.631342396157" lon="17.980353743683">
        <ele>80.4</ele>
        <time>2018-04-02T18:50:00Z</time>
      </trkpt>
      <trkpt lat="62.631349604591" lon="17.98026849976">
        <ele>80.6</ele>
        <time>2018-04-02T18:50:02Z</time>
      </trkpt>
      <trkpt lat="62.631352957351" lon="17.980240504214">
        <ele>80.8</ele>
        <time>2018-04-02T18:50:03Z</time>
      </trkpt>
      <trkpt lat="62.631356729206" lon="17.980218962731">
        <ele>81</ele>
        <time>2018-04-02T18:50:04Z</time>
      </trkpt>
      <trkpt lat="62.631366703667" lon="17.980210161736">
        <ele>81.2</ele>
        <time>2018-04-02T18:50:05Z</time>
      </trkpt>
      <trkpt lat="62.631378941241" lon="17.980216783437">
        <ele>81.4</ele>
        <time>2018-04-02T18:50:06Z</time>
      </trkpt>
      <trkpt lat="62.631385982037" lon="17.980229691563">
        <ele>81.6</ele>
        <time>2018-04-02T18:50:07Z</time>
      </trkpt>
      <trkpt lat="62.631394531575" lon="17.980242683508">
        <ele>81.6</ele>
        <time>2018-04-02T18:50:08Z</time>
      </trkpt>
      <trkpt lat="62.63139997981" lon="17.980250311037">
        <ele>81.8</ele>
        <time>2018-04-02T18:50:09Z</time>
      </trkpt>
      <trkpt lat="62.631403164932" lon="17.980258692937">
        <ele>81.8</ele>
        <time>2018-04-02T18:50:10Z</time>
      </trkpt>
      <trkpt lat="62.631417917076" lon="17.980267577751">
        <ele>81.8</ele>
        <time>2018-04-02T18:50:11Z</time>
      </trkpt>
      <trkpt lat="62.631415737782" lon="17.980253579978">
        <ele>81.8</ele>
        <time>2018-04-02T18:50:12Z</time>
      </trkpt>
      <trkpt lat="62.631429735555" lon="17.980254669625">
        <ele>81.8</ele>
        <time>2018-04-02T18:50:13Z</time>
      </trkpt>
      <trkpt lat="62.631430322288" lon="17.980250730132">
        <ele>81.8</ele>
        <time>2018-04-02T18:50:14Z</time>
      </trkpt>
      <trkpt lat="62.631416827429" lon="17.980255591634">
        <ele>81.6</ele>
        <time>2018-04-02T18:50:15Z</time>
      </trkpt>
      <trkpt lat="62.631491174882" lon="17.979966332265">
        <ele>81.4</ele>
        <time>2018-04-02T18:50:28Z</time>
      </trkpt>
      <trkpt lat="62.631500059696" lon="17.9799466348">
        <ele>81.4</ele>
        <time>2018-04-02T18:50:29Z</time>
      </trkpt>
      <trkpt lat="62.631509950338" lon="17.979923752213">
        <ele>81.4</ele>
        <time>2018-04-02T18:50:30Z</time>
      </trkpt>
      <trkpt lat="62.631519421885" lon="17.979891900993">
        <ele>81.4</ele>
        <time>2018-04-02T18:50:31Z</time>
      </trkpt>
      <trkpt lat="62.631528558156" lon="17.979863737809">
        <ele>81.4</ele>
        <time>2018-04-02T18:50:32Z</time>
      </trkpt>
      <trkpt lat="62.631537610608" lon="17.979833646788">
        <ele>81.4</ele>
        <time>2018-04-02T18:50:33Z</time>
      </trkpt>
      <trkpt lat="62.631547165974" lon="17.979806740889">
        <ele>81.4</ele>
        <time>2018-04-02T18:50:34Z</time>
      </trkpt>
      <trkpt lat="62.631554458227" lon="17.979786791967">
        <ele>81.4</ele>
        <time>2018-04-02T18:50:35Z</time>
      </trkpt>
      <trkpt lat="62.631563259222" lon="17.979758796421">
        <ele>81.4</ele>
        <time>2018-04-02T18:50:36Z</time>
      </trkpt>
      <trkpt lat="62.631572563131" lon="17.979735075644">
        <ele>81.4</ele>
        <time>2018-04-02T18:50:37Z</time>
      </trkpt>
      <trkpt lat="62.631583040506" lon="17.979708337383">
        <ele>81.4</ele>
        <time>2018-04-02T18:50:38Z</time>
      </trkpt>
      <trkpt lat="62.631591338587" lon="17.979676653801">
        <ele>81.2</ele>
        <time>2018-04-02T18:50:39Z</time>
      </trkpt>
      <trkpt lat="62.631600642496" lon="17.979649580264">
        <ele>81.2</ele>
        <time>2018-04-02T18:50:40Z</time>
      </trkpt>
      <trkpt lat="62.631609359672" lon="17.979609850058">
        <ele>81.2</ele>
        <time>2018-04-02T18:50:41Z</time>
      </trkpt>
      <trkpt lat="62.631618412124" lon="17.979578166476">
        <ele>81.2</ele>
        <time>2018-04-02T18:50:42Z</time>
      </trkpt>
      <trkpt lat="62.631628051309" lon="17.979537765718">
        <ele>81.4</ele>
        <time>2018-04-02T18:50:43Z</time>
      </trkpt>
      <trkpt lat="62.631639953607" lon="17.979499460435">
        <ele>81.4</ele>
        <time>2018-04-02T18:50:44Z</time>
      </trkpt>
      <trkpt lat="62.63165143681" lon="17.979447325017">
        <ele>81.4</ele>
        <time>2018-04-02T18:50:45Z</time>
      </trkpt>
      <trkpt lat="62.631660153986" lon="17.979401895119">
        <ele>81.6</ele>
        <time>2018-04-02T18:50:46Z</time>
      </trkpt>
      <trkpt lat="62.631669625533" lon="17.979352944823">
        <ele>81.6</ele>
        <time>2018-04-02T18:50:47Z</time>
      </trkpt>
      <trkpt lat="62.631682198383" lon="17.979299384482">
        <ele>81.6</ele>
        <time>2018-04-02T18:50:48Z</time>
      </trkpt>
      <trkpt lat="62.631689909731" lon="17.979254960412">
        <ele>81.6</ele>
        <time>2018-04-02T18:50:49Z</time>
      </trkpt>
      <trkpt lat="62.631699632735" lon="17.979199304596">
        <ele>81.6</ele>
        <time>2018-04-02T18:50:50Z</time>
      </trkpt>
      <trkpt lat="62.631711535033" lon="17.979143397323">
        <ele>81.4</ele>
        <time>2018-04-02T18:50:51Z</time>
      </trkpt>
      <trkpt lat="62.631720838942" lon="17.979102326013">
        <ele>81.4</ele>
        <time>2018-04-02T18:50:52Z</time>
      </trkpt>
      <trkpt lat="62.63173190305" lon="17.979055135916">
        <ele>81.2</ele>
        <time>2018-04-02T18:50:53Z</time>
      </trkpt>
      <trkpt lat="62.631744140624" lon="17.979001743213">
        <ele>81.2</ele>
        <time>2018-04-02T18:50:54Z</time>
      </trkpt>
      <trkpt lat="62.631752187248" lon="17.978948015234">
        <ele>81.2</ele>
        <time>2018-04-02T18:50:55Z</time>
      </trkpt>
      <trkpt lat="62.631762245528" lon="17.978894371074">
        <ele>81.2</ele>
        <time>2018-04-02T18:50:56Z</time>
      </trkpt>
      <trkpt lat="62.631769956876" lon="17.978845001683">
        <ele>81</ele>
        <time>2018-04-02T18:50:57Z</time>
      </trkpt>
      <trkpt lat="62.631780098975" lon="17.978792614808">
        <ele>81.2</ele>
        <time>2018-04-02T18:50:58Z</time>
      </trkpt>
      <trkpt lat="62.631789067608" lon="17.97873796482">
        <ele>81</ele>
        <time>2018-04-02T18:50:59Z</time>
      </trkpt>
      <trkpt lat="62.631798539155" lon="17.978690858542">
        <ele>81</ele>
        <time>2018-04-02T18:51:00Z</time>
      </trkpt>
      <trkpt lat="62.631805999046" lon="17.978634448355">
        <ele>81</ele>
        <time>2018-04-02T18:51:01Z</time>
      </trkpt>
      <trkpt lat="62.631817314611" lon="17.978584240774">
        <ele>81</ele>
        <time>2018-04-02T18:51:02Z</time>
      </trkpt>
      <trkpt lat="62.631826367063" lon="17.978532692089">
        <ele>80.8</ele>
        <time>2018-04-02T18:51:03Z</time>
      </trkpt>
      <trkpt lat="62.631837347352" lon="17.978480137576">
        <ele>80.8</ele>
        <time>2018-04-02T18:51:04Z</time>
      </trkpt>
      <trkpt lat="62.631848998193" lon="17.978431354918">
        <ele>80.8</ele>
        <time>2018-04-02T18:51:05Z</time>
      </trkpt>
      <trkpt lat="62.631857044817" lon="17.978381314975">
        <ele>80.8</ele>
        <time>2018-04-02T18:51:06Z</time>
      </trkpt>
      <trkpt lat="62.631867186916" lon="17.978326664987">
        <ele>80.6</ele>
        <time>2018-04-02T18:51:07Z</time>
      </trkpt>
      <trkpt lat="62.6318785863" lon="17.978274194293">
        <ele>80.6</ele>
        <time>2018-04-02T18:51:08Z</time>
      </trkpt>
      <trkpt lat="62.631887638752" lon="17.978221723599">
        <ele>80.6</ele>
        <time>2018-04-02T18:51:09Z</time>
      </trkpt>
      <trkpt lat="62.631899205774" lon="17.978166822154">
        <ele>80.4</ele>
        <time>2018-04-02T18:51:10Z</time>
      </trkpt>
      <trkpt lat="62.631911610986" lon="17.978119799695">
        <ele>80.4</ele>
        <time>2018-04-02T18:51:11Z</time>
      </trkpt>
      <trkpt lat="62.631921753085" lon="17.978071268494">
        <ele>80.4</ele>
        <time>2018-04-02T18:51:12Z</time>
      </trkpt>
      <trkpt lat="62.631936337591" lon="17.978016115592">
        <ele>80.4</ele>
        <time>2018-04-02T18:51:13Z</time>
      </trkpt>
      <trkpt lat="62.631947988432" lon="17.977970350418">
        <ele>80.2</ele>
        <time>2018-04-02T18:51:14Z</time>
      </trkpt>
      <trkpt lat="62.631959974549" lon="17.977925255796">
        <ele>80</ele>
        <time>2018-04-02T18:51:15Z</time>
      </trkpt>
      <trkpt lat="62.63197330177" lon="17.977875970224">
        <ele>80.2</ele>
        <time>2018-04-02T18:51:16Z</time>
      </trkpt>
      <trkpt lat="62.63198000729" lon="17.977832803439">
        <ele>80</ele>
        <time>2018-04-02T18:51:17Z</time>
      </trkpt>
      <trkpt lat="62.631992747778" lon="17.977776225614">
        <ele>79.8</ele>
        <time>2018-04-02T18:51:18Z</time>
      </trkpt>
      <trkpt lat="62.632004985352" lon="17.977726520947">
        <ele>80</ele>
        <time>2018-04-02T18:51:19Z</time>
      </trkpt>
      <trkpt lat="62.632015378908" lon="17.977674134072">
        <ele>80</ele>
        <time>2018-04-02T18:51:20Z</time>
      </trkpt>
      <trkpt lat="62.632027113568" lon="17.977619651722">
        <ele>79.8</ele>
        <time>2018-04-02T18:51:21Z</time>
      </trkpt>
      <trkpt lat="62.632039770237" lon="17.977578664231">
        <ele>79.8</ele>
        <time>2018-04-02T18:51:22Z</time>
      </trkpt>
      <trkpt lat="62.632051169621" lon="17.977530719763">
        <ele>79.8</ele>
        <time>2018-04-02T18:51:23Z</time>
      </trkpt>
      <trkpt lat="62.632067346688" lon="17.9774739743">
        <ele>79.8</ele>
        <time>2018-04-02T18:51:24Z</time>
      </trkpt>
      <trkpt lat="62.632077488787" lon="17.977427538574">
        <ele>79.6</ele>
        <time>2018-04-02T18:51:25Z</time>
      </trkpt>
      <trkpt lat="62.632091235103" lon="17.977373810595">
        <ele>79.6</ele>
        <time>2018-04-02T18:51:26Z</time>
      </trkpt>
      <trkpt lat="62.632102718306" lon="17.977322764824">
        <ele>79.6</ele>
        <time>2018-04-02T18:51:27Z</time>
      </trkpt>
      <trkpt lat="62.632112525129" lon="17.977274233623">
        <ele>79.6</ele>
        <time>2018-04-02T18:51:28Z</time>
      </trkpt>
      <trkpt lat="62.632123924513" lon="17.977230480105">
        <ele>79.4</ele>
        <time>2018-04-02T18:51:29Z</time>
      </trkpt>
      <trkpt lat="62.632136665001" lon="17.977177003583">
        <ele>79.4</ele>
        <time>2018-04-02T18:51:30Z</time>
      </trkpt>
      <trkpt lat="62.632149237851" lon="17.977125706355">
        <ele>79.2</ele>
        <time>2018-04-02T18:51:31Z</time>
      </trkpt>
      <trkpt lat="62.632163738538" lon="17.977080360276">
        <ele>79.2</ele>
        <time>2018-04-02T18:51:32Z</time>
      </trkpt>
      <trkpt lat="62.632174383551" lon="17.977024369184">
        <ele>79.2</ele>
        <time>2018-04-02T18:51:33Z</time>
      </trkpt>
      <trkpt lat="62.63219039298" lon="17.976971814671">
        <ele>79</ele>
        <time>2018-04-02T18:51:34Z</time>
      </trkpt>
      <trkpt lat="62.632200283622" lon="17.976934850492">
        <ele>79</ele>
        <time>2018-04-02T18:51:35Z</time>
      </trkpt>
      <trkpt lat="62.632213527024" lon="17.976878356486">
        <ele>79</ele>
        <time>2018-04-02T18:51:36Z</time>
      </trkpt>
      <trkpt lat="62.632227524797" lon="17.976823790317">
        <ele>78.8</ele>
        <time>2018-04-02T18:51:37Z</time>
      </trkpt>
      <trkpt lat="62.632240097647" lon="17.976782299912">
        <ele>78.8</ele>
        <time>2018-04-02T18:51:38Z</time>
      </trkpt>
      <trkpt lat="62.632254765972" lon="17.976731170322">
        <ele>78.8</ele>
        <time>2018-04-02T18:51:39Z</time>
      </trkpt>
      <trkpt lat="62.632268177012" lon="17.976678867266">
        <ele>78.8</ele>
        <time>2018-04-02T18:51:40Z</time>
      </trkpt>
      <trkpt lat="62.632277648559" lon="17.976632515359">
        <ele>78.6</ele>
        <time>2018-04-02T18:51:41Z</time>
      </trkpt>
      <trkpt lat="62.63229013759" lon="17.976579877027">
        <ele>78.8</ele>
        <time>2018-04-02T18:51:42Z</time>
      </trkpt>
      <trkpt lat="62.632303967725" lon="17.976524472668">
        <ele>78.8</ele>
        <time>2018-04-02T18:51:43Z</time>
      </trkpt>
      <trkpt lat="62.632312684901" lon="17.976475773829">
        <ele>78.8</ele>
        <time>2018-04-02T18:51:44Z</time>
      </trkpt>
      <trkpt lat="62.632322240267" lon="17.976413999226">
        <ele>78.6</ele>
        <time>2018-04-02T18:51:45Z</time>
      </trkpt>
      <trkpt lat="62.632330119253" lon="17.976356918487">
        <ele>78.6</ele>
        <time>2018-04-02T18:51:46Z</time>
      </trkpt>
      <trkpt lat="62.632341937732" lon="17.976308303467">
        <ele>78.6</ele>
        <time>2018-04-02T18:51:47Z</time>
      </trkpt>
      <trkpt lat="62.632356773695" lon="17.97625524604">
        <ele>78.6</ele>
        <time>2018-04-02T18:51:48Z</time>
      </trkpt>
      <trkpt lat="62.632365826147" lon="17.976204535545">
        <ele>78.6</ele>
        <time>2018-04-02T18:51:49Z</time>
      </trkpt>
      <trkpt lat="62.632380997386" lon="17.976151813394">
        <ele>78.4</ele>
        <time>2018-04-02T18:51:50Z</time>
      </trkpt>
      <trkpt lat="62.632391810037" lon="17.976101186718">
        <ele>78.4</ele>
        <time>2018-04-02T18:51:51Z</time>
      </trkpt>
      <trkpt lat="62.632400108118" lon="17.976052068784">
        <ele>78.4</ele>
        <time>2018-04-02T18:51:52Z</time>
      </trkpt>
      <trkpt lat="62.632412010416" lon="17.976002783212">
        <ele>78.2</ele>
        <time>2018-04-02T18:51:53Z</time>
      </trkpt>
      <trkpt lat="62.632425337637" lon="17.975944109912">
        <ele>78.2</ele>
        <time>2018-04-02T18:51:54Z</time>
      </trkpt>
      <trkpt lat="62.632435563555" lon="17.975887951182">
        <ele>78.2</ele>
        <time>2018-04-02T18:51:55Z</time>
      </trkpt>
      <trkpt lat="62.632446124749" lon="17.975830032253">
        <ele>78.2</ele>
        <time>2018-04-02T18:51:56Z</time>
      </trkpt>
      <trkpt lat="62.632454339011" lon="17.975782255423">
        <ele>78</ele>
        <time>2018-04-02T18:51:57Z</time>
      </trkpt>
      <trkpt lat="62.632470432259" lon="17.975729197996">
        <ele>78</ele>
        <time>2018-04-02T18:51:58Z</time>
      </trkpt>
      <trkpt lat="62.632480490539" lon="17.975683181365">
        <ele>78</ele>
        <time>2018-04-02T18:51:59Z</time>
      </trkpt>
      <trkpt lat="62.632491722285" lon="17.975626687359">
        <ele>78</ele>
        <time>2018-04-02T18:52:00Z</time>
      </trkpt>
      <trkpt lat="62.632505971515" lon="17.975578575253">
        <ele>77.8</ele>
        <time>2018-04-02T18:52:01Z</time>
      </trkpt>
      <trkpt lat="62.632516700347" lon="17.975526439835">
        <ele>78</ele>
        <time>2018-04-02T18:52:02Z</time>
      </trkpt>
      <trkpt lat="62.632526590989" lon="17.975467598897">
        <ele>77.8</ele>
        <time>2018-04-02T18:52:03Z</time>
      </trkpt>
      <trkpt lat="62.632541007857" lon="17.97541370328">
        <ele>77.8</ele>
        <time>2018-04-02T18:52:04Z</time>
      </trkpt>
      <trkpt lat="62.632551904327" lon="17.975365842631">
        <ele>77.8</ele>
        <time>2018-04-02T18:52:05Z</time>
      </trkpt>
      <trkpt lat="62.632564309539" lon="17.975309935358">
        <ele>77.8</ele>
        <time>2018-04-02T18:52:06Z</time>
      </trkpt>
      <trkpt lat="62.632577720579" lon="17.975255117732">
        <ele>77.8</ele>
        <time>2018-04-02T18:52:07Z</time>
      </trkpt>
      <trkpt lat="62.632590125791" lon="17.975207340902">
        <ele>77.6</ele>
        <time>2018-04-02T18:52:08Z</time>
      </trkpt>
      <trkpt lat="62.632599764976" lon="17.975151098353">
        <ele>77.8</ele>
        <time>2018-04-02T18:52:09Z</time>
      </trkpt>
      <trkpt lat="62.632612170188" lon="17.975094771985">
        <ele>77.8</ele>
        <time>2018-04-02T18:52:10Z</time>
      </trkpt>
      <trkpt lat="62.632621474097" lon="17.975047581888">
        <ele>77.6</ele>
        <time>2018-04-02T18:52:11Z</time>
      </trkpt>
      <trkpt lat="62.63263547187" lon="17.974995530289">
        <ele>77.6</ele>
        <time>2018-04-02T18:52:12Z</time>
      </trkpt>
      <trkpt lat="62.63264888291" lon="17.974943646328">
        <ele>77.6</ele>
        <time>2018-04-02T18:52:13Z</time>
      </trkpt>
      <trkpt lat="62.632657180991" lon="17.974890421263">
        <ele>77.6</ele>
        <time>2018-04-02T18:52:14Z</time>
      </trkpt>
      <trkpt lat="62.632671430221" lon="17.974843063528">
        <ele>77.6</ele>
        <time>2018-04-02T18:52:15Z</time>
      </trkpt>
      <trkpt lat="62.632682326691" lon="17.974793191223">
        <ele>77.6</ele>
        <time>2018-04-02T18:52:16Z</time>
      </trkpt>
      <trkpt lat="62.632693390799" lon="17.974751114085">
        <ele>77.4</ele>
        <time>2018-04-02T18:52:17Z</time>
      </trkpt>
      <trkpt lat="62.632709819323" lon="17.974693278975">
        <ele>77.4</ele>
        <time>2018-04-02T18:52:18Z</time>
      </trkpt>
      <trkpt lat="62.632720631974" lon="17.974644747774">
        <ele>77.4</ele>
        <time>2018-04-02T18:52:19Z</time>
      </trkpt>
      <trkpt lat="62.632729768245" lon="17.974590013967">
        <ele>77.4</ele>
        <time>2018-04-02T18:52:20Z</time>
      </trkpt>
      <trkpt lat="62.632744520389" lon="17.97454198568">
        <ele>77.4</ele>
        <time>2018-04-02T18:52:21Z</time>
      </trkpt>
      <trkpt lat="62.632753908117" lon="17.974497058696">
        <ele>77.4</ele>
        <time>2018-04-02T18:52:22Z</time>
      </trkpt>
      <trkpt lat="62.632765894234" lon="17.974452969902">
        <ele>77.4</ele>
        <time>2018-04-02T18:52:23Z</time>
      </trkpt>
      <trkpt lat="62.632780311102" lon="17.974395553887">
        <ele>77.4</ele>
        <time>2018-04-02T18:52:24Z</time>
      </trkpt>
      <trkpt lat="62.632794057418" lon="17.97435087836">
        <ele>77.2</ele>
        <time>2018-04-02T18:52:25Z</time>
      </trkpt>
      <trkpt lat="62.632803612784" lon="17.974305113186">
        <ele>77.2</ele>
        <time>2018-04-02T18:52:26Z</time>
      </trkpt>
      <trkpt lat="62.632813922521" lon="17.974259096555">
        <ele>77.2</ele>
        <time>2018-04-02T18:52:27Z</time>
      </trkpt>
      <trkpt lat="62.632826411552" lon="17.974213331381">
        <ele>77</ele>
        <time>2018-04-02T18:52:28Z</time>
      </trkpt>
      <trkpt lat="62.632836721289" lon="17.974161866515">
        <ele>77</ele>
        <time>2018-04-02T18:52:29Z</time>
      </trkpt>
      <trkpt lat="62.632849126501" lon="17.974104534319">
        <ele>77</ele>
        <time>2018-04-02T18:52:30Z</time>
      </trkpt>
      <trkpt lat="62.632858095134" lon="17.974063211552">
        <ele>77</ele>
        <time>2018-04-02T18:52:31Z</time>
      </trkpt>
      <trkpt lat="62.632868823966" lon="17.974018536025">
        <ele>77</ele>
        <time>2018-04-02T18:52:32Z</time>
      </trkpt>
      <trkpt lat="62.632880558626" lon="17.973973441403">
        <ele>77</ele>
        <time>2018-04-02T18:52:33Z</time>
      </trkpt>
      <trkpt lat="62.632885503947" lon="17.973915941569">
        <ele>76.8</ele>
        <time>2018-04-02T18:52:34Z</time>
      </trkpt>
      <trkpt lat="62.632897322426" lon="17.973872690965">
        <ele>76.8</ele>
        <time>2018-04-02T18:52:35Z</time>
      </trkpt>
      <trkpt lat="62.63290872181" lon="17.97382030409">
        <ele>76.6</ele>
        <time>2018-04-02T18:52:36Z</time>
      </trkpt>
      <trkpt lat="62.632918360995" lon="17.973776299115">
        <ele>76.6</ele>
        <time>2018-04-02T18:52:37Z</time>
      </trkpt>
      <trkpt lat="62.632932610225" lon="17.973729611932">
        <ele>76.6</ele>
        <time>2018-04-02T18:52:38Z</time>
      </trkpt>
      <trkpt lat="62.632947027093" lon="17.973675967772">
        <ele>76.6</ele>
        <time>2018-04-02T18:52:39Z</time>
      </trkpt>
      <trkpt lat="62.632960857228" lon="17.973636069928">
        <ele>76.6</ele>
        <time>2018-04-02T18:52:40Z</time>
      </trkpt>
      <trkpt lat="62.632971250784" lon="17.973595836808">
        <ele>76.4</ele>
        <time>2018-04-02T18:52:41Z</time>
      </trkpt>
      <trkpt lat="62.632982733987" lon="17.973542192648">
        <ele>76.4</ele>
        <time>2018-04-02T18:52:42Z</time>
      </trkpt>
      <trkpt lat="62.632992876086" lon="17.973487039746">
        <ele>76.4</ele>
        <time>2018-04-02T18:52:43Z</time>
      </trkpt>
      <trkpt lat="62.63301098099" lon="17.973439011459">
        <ele>76.2</ele>
        <time>2018-04-02T18:52:44Z</time>
      </trkpt>
      <trkpt lat="62.633023134745" lon="17.973392072819">
        <ele>76</ele>
        <time>2018-04-02T18:52:45Z</time>
      </trkpt>
      <trkpt lat="62.633031851921" lon="17.973350498595">
        <ele>76</ele>
        <time>2018-04-02T18:52:46Z</time>
      </trkpt>
      <trkpt lat="62.633035875233" lon="17.973306158344">
        <ele>76</ele>
        <time>2018-04-02T18:52:47Z</time>
      </trkpt>
      <trkpt lat="62.633047358436" lon="17.973252095089">
        <ele>75.8</ele>
        <time>2018-04-02T18:52:48Z</time>
      </trkpt>
      <trkpt lat="62.633056578526" lon="17.973200630223">
        <ele>75.6</ele>
        <time>2018-04-02T18:52:49Z</time>
      </trkpt>
      <trkpt lat="62.633069738109" lon="17.973149416814">
        <ele>75.6</ele>
        <time>2018-04-02T18:52:50Z</time>
      </trkpt>
      <trkpt lat="62.633079796389" lon="17.973096694663">
        <ele>75.6</ele>
        <time>2018-04-02T18:52:51Z</time>
      </trkpt>
      <trkpt lat="62.633088597384" lon="17.97304916929">
        <ele>75.6</ele>
        <time>2018-04-02T18:52:52Z</time>
      </trkpt>
      <trkpt lat="62.633099577673" lon="17.972995357492">
        <ele>75.6</ele>
        <time>2018-04-02T18:52:53Z</time>
      </trkpt>
      <trkpt lat="62.633112234342" lon="17.972934001984">
        <ele>75.4</ele>
        <time>2018-04-02T18:52:54Z</time>
      </trkpt>
      <trkpt lat="62.633120532423" lon="17.972878094711">
        <ele>75.6</ele>
        <time>2018-04-02T18:52:55Z</time>
      </trkpt>
      <trkpt lat="62.633134530196" lon="17.97281950523">
        <ele>75.4</ele>
        <time>2018-04-02T18:52:56Z</time>
      </trkpt>
      <trkpt lat="62.633144420838" lon="17.972767621269">
        <ele>75.2</ele>
        <time>2018-04-02T18:52:57Z</time>
      </trkpt>
      <trkpt lat="62.633154060023" lon="17.972704170286">
        <ele>75.2</ele>
        <time>2018-04-02T18:52:58Z</time>
      </trkpt>
      <trkpt lat="62.633166549054" lon="17.97266192551">
        <ele>75</ele>
        <time>2018-04-02T18:52:59Z</time>
      </trkpt>
      <trkpt lat="62.633179373361" lon="17.972603838943">
        <ele>74.8</ele>
        <time>2018-04-02T18:53:00Z</time>
      </trkpt>
      <trkpt lat="62.633187922899" lon="17.972549440412">
        <ele>74.8</ele>
        <time>2018-04-02T18:53:01Z</time>
      </trkpt>
      <trkpt lat="62.633200495749" lon="17.972493616958">
        <ele>74.8</ele>
        <time>2018-04-02T18:53:02Z</time>
      </trkpt>
      <trkpt lat="62.633210554029" lon="17.972444079929">
        <ele>74.6</ele>
        <time>2018-04-02T18:53:03Z</time>
      </trkpt>
      <trkpt lat="62.63321717573" lon="17.972389178484">
        <ele>74.6</ele>
        <time>2018-04-02T18:53:04Z</time>
      </trkpt>
      <trkpt lat="62.633229245666" lon="17.972342407482">
        <ele>74.4</ele>
        <time>2018-04-02T18:53:05Z</time>
      </trkpt>
      <trkpt lat="62.633240393593" lon="17.972280465241">
        <ele>74.2</ele>
        <time>2018-04-02T18:53:06Z</time>
      </trkpt>
      <trkpt lat="62.633247182932" lon="17.972232353135">
        <ele>74.4</ele>
        <time>2018-04-02T18:53:07Z</time>
      </trkpt>
      <trkpt lat="62.63325740885" lon="17.972178792794">
        <ele>74.2</ele>
        <time>2018-04-02T18:53:08Z</time>
      </trkpt>
      <trkpt lat="62.633269311148" lon="17.972129339584">
        <ele>74.2</ele>
        <time>2018-04-02T18:53:09Z</time>
      </trkpt>
      <trkpt lat="62.633276435763" lon="17.972076365976">
        <ele>74</ele>
        <time>2018-04-02T18:53:10Z</time>
      </trkpt>
      <trkpt lat="62.633281800179" lon="17.97201400464">
        <ele>74</ele>
        <time>2018-04-02T18:53:11Z</time>
      </trkpt>
      <trkpt lat="62.633289008613" lon="17.971963294145">
        <ele>74</ele>
        <time>2018-04-02T18:53:12Z</time>
      </trkpt>
      <trkpt lat="62.633295043581" lon="17.971901016628">
        <ele>73.8</ele>
        <time>2018-04-02T18:53:13Z</time>
      </trkpt>
      <trkpt lat="62.633300491816" lon="17.971849635581">
        <ele>73.8</ele>
        <time>2018-04-02T18:53:14Z</time>
      </trkpt>
      <trkpt lat="62.633305269499" lon="17.971796578154">
        <ele>73.8</ele>
        <time>2018-04-02T18:53:15Z</time>
      </trkpt>
      <trkpt lat="62.633309628087" lon="17.971738323949">
        <ele>73.6</ele>
        <time>2018-04-02T18:53:16Z</time>
      </trkpt>
      <trkpt lat="62.633316668883" lon="17.971690630938">
        <ele>73.4</ele>
        <time>2018-04-02T18:53:17Z</time>
      </trkpt>
      <trkpt lat="62.633322368575" lon="17.97162676086">
        <ele>73.4</ele>
        <time>2018-04-02T18:53:18Z</time>
      </trkpt>
      <trkpt lat="62.633331337208" lon="17.971565908266">
        <ele>73.2</ele>
        <time>2018-04-02T18:53:19Z</time>
      </trkpt>
      <trkpt lat="62.633349274474" lon="17.971533302675">
        <ele>73</ele>
        <time>2018-04-02T18:53:20Z</time>
      </trkpt>
      <trkpt lat="62.633366205912" lon="17.971501619093">
        <ele>73</ele>
        <time>2018-04-02T18:53:21Z</time>
      </trkpt>
      <trkpt lat="62.633387747395" lon="17.97147337209">
        <ele>72.8</ele>
        <time>2018-04-02T18:53:22Z</time>
      </trkpt>
      <trkpt lat="62.633399146779" lon="17.971424421794">
        <ele>72.8</ele>
        <time>2018-04-02T18:53:23Z</time>
      </trkpt>
      <trkpt lat="62.633405097928" lon="17.971366502865">
        <ele>72.8</ele>
        <time>2018-04-02T18:53:24Z</time>
      </trkpt>
      <trkpt lat="62.633405349385" lon="17.971299615303">
        <ele>72.8</ele>
        <time>2018-04-02T18:53:25Z</time>
      </trkpt>
      <trkpt lat="62.633406690489" lon="17.971244210944">
        <ele>72.8</ele>
        <time>2018-04-02T18:53:26Z</time>
      </trkpt>
      <trkpt lat="62.633407528679" lon="17.971187130205">
        <ele>72.8</ele>
        <time>2018-04-02T18:53:27Z</time>
      </trkpt>
      <trkpt lat="62.633408702145" lon="17.971117057521">
        <ele>72.6</ele>
        <time>2018-04-02T18:53:28Z</time>
      </trkpt>
      <trkpt lat="62.633408115412" lon="17.971063329542">
        <ele>72.6</ele>
        <time>2018-04-02T18:53:29Z</time>
      </trkpt>
      <trkpt lat="62.633406103756" lon="17.971006164984">
        <ele>72.4</ele>
        <time>2018-04-02T18:53:30Z</time>
      </trkpt>
      <trkpt lat="62.633406019937" lon="17.97095620886">
        <ele>72.4</ele>
        <time>2018-04-02T18:53:31Z</time>
      </trkpt>
      <trkpt lat="62.633405097928" lon="17.970887896375">
        <ele>72.4</ele>
        <time>2018-04-02T18:53:32Z</time>
      </trkpt>
      <trkpt lat="62.63340073934" lon="17.970829390713">
        <ele>72.2</ele>
        <time>2018-04-02T18:53:33Z</time>
      </trkpt>
      <trkpt lat="62.633399482055" lon="17.970769627766">
        <ele>72.2</ele>
        <time>2018-04-02T18:53:34Z</time>
      </trkpt>
      <trkpt lat="62.633398057132" lon="17.970716905615">
        <ele>72</ele>
        <time>2018-04-02T18:53:35Z</time>
      </trkpt>
      <trkpt lat="62.633394788191" lon="17.970658483772">
        <ele>72</ele>
        <time>2018-04-02T18:53:36Z</time>
      </trkpt>
      <trkpt lat="62.633393530906" lon="17.970602660318">
        <ele>71.8</ele>
        <time>2018-04-02T18:53:37Z</time>
      </trkpt>
      <trkpt lat="62.633390513422" lon="17.970543065009">
        <ele>71.6</ele>
        <time>2018-04-02T18:53:38Z</time>
      </trkpt>
      <trkpt lat="62.633385149006" lon="17.970489923763">
        <ele>71.6</ele>
        <time>2018-04-02T18:53:39Z</time>
      </trkpt>
      <trkpt lat="62.63338229916" lon="17.970432423929">
        <ele>71.6</ele>
        <time>2018-04-02T18:53:40Z</time>
      </trkpt>
      <trkpt lat="62.633377521477" lon="17.970379617959">
        <ele>71.4</ele>
        <time>2018-04-02T18:53:41Z</time>
      </trkpt>
      <trkpt lat="62.633371486509" lon="17.970323794505">
        <ele>71.4</ele>
        <time>2018-04-02T18:53:42Z</time>
      </trkpt>
      <trkpt lat="62.633373246708" lon="17.970254308554">
        <ele>71.2</ele>
        <time>2018-04-02T18:53:43Z</time>
      </trkpt>
      <trkpt lat="62.633372743794" lon="17.970195719073">
        <ele>71</ele>
        <time>2018-04-02T18:53:44Z</time>
      </trkpt>
      <trkpt lat="62.633367379378" lon="17.970140901447">
        <ele>70.8</ele>
        <time>2018-04-02T18:53:45Z</time>
      </trkpt>
      <trkpt lat="62.633363775161" lon="17.970078204835">
        <ele>70.6</ele>
        <time>2018-04-02T18:53:46Z</time>
      </trkpt>
      <trkpt lat="62.633362266419" lon="17.970031266195">
        <ele>70.6</ele>
        <time>2018-04-02T18:53:47Z</time>
      </trkpt>
      <trkpt lat="62.633358243107" lon="17.969964462452">
        <ele>70.4</ele>
        <time>2018-04-02T18:53:48Z</time>
      </trkpt>
      <trkpt lat="62.633358662202" lon="17.969901262926">
        <ele>70.2</ele>
        <time>2018-04-02T18:53:49Z</time>
      </trkpt>
      <trkpt lat="62.633358578383" lon="17.969849714241">
        <ele>70.2</ele>
        <time>2018-04-02T18:53:50Z</time>
      </trkpt>
      <trkpt lat="62.633360841496" lon="17.969787352905">
        <ele>70</ele>
        <time>2018-04-02T18:53:51Z</time>
      </trkpt>
      <trkpt lat="62.633361092953" lon="17.969728847243">
        <ele>70</ele>
        <time>2018-04-02T18:53:52Z</time>
      </trkpt>
      <trkpt lat="62.633358410745" lon="17.969672604694">
        <ele>69.8</ele>
        <time>2018-04-02T18:53:53Z</time>
      </trkpt>
      <trkpt lat="62.63336302079" lon="17.969598508698">
        <ele>69.8</ele>
        <time>2018-04-02T18:53:54Z</time>
      </trkpt>
      <trkpt lat="62.633368636663" lon="17.969540841226">
        <ele>69.6</ele>
        <time>2018-04-02T18:53:55Z</time>
      </trkpt>
      <trkpt lat="62.633371570328" lon="17.969486107419">
        <ele>69.6</ele>
        <time>2018-04-02T18:53:56Z</time>
      </trkpt>
      <trkpt lat="62.633372995251" lon="17.96942567392">
        <ele>69.4</ele>
        <time>2018-04-02T18:53:57Z</time>
      </trkpt>
      <trkpt lat="62.633376180373" lon="17.969365491878">
        <ele>69.4</ele>
        <time>2018-04-02T18:53:58Z</time>
      </trkpt>
      <trkpt lat="62.633377018563" lon="17.969315619573">
        <ele>69.4</ele>
        <time>2018-04-02T18:53:59Z</time>
      </trkpt>
      <trkpt lat="62.633382131522" lon="17.969248145278">
        <ele>69.2</ele>
        <time>2018-04-02T18:54:00Z</time>
      </trkpt>
      <trkpt lat="62.633386909205" lon="17.969191064539">
        <ele>69</ele>
        <time>2018-04-02T18:54:01Z</time>
      </trkpt>
      <trkpt lat="62.633388837042" lon="17.969141443691">
        <ele>68.8</ele>
        <time>2018-04-02T18:54:02Z</time>
      </trkpt>
      <trkpt lat="62.633393363268" lon="17.969078244165">
        <ele>68.6</ele>
        <time>2018-04-02T18:54:03Z</time>
      </trkpt>
      <trkpt lat="62.633404846471" lon="17.969018565037">
        <ele>68.6</ele>
        <time>2018-04-02T18:54:04Z</time>
      </trkpt>
      <trkpt lat="62.63340995943" lon="17.968968776551">
        <ele>68.4</ele>
        <time>2018-04-02T18:54:05Z</time>
      </trkpt>
      <trkpt lat="62.633418760425" lon="17.968909684156">
        <ele>68</ele>
        <time>2018-04-02T18:54:06Z</time>
      </trkpt>
      <trkpt lat="62.63342504685" lon="17.968857213462">
        <ele>68</ele>
        <time>2018-04-02T18:54:07Z</time>
      </trkpt>
      <trkpt lat="62.633429405438" lon="17.968799965085">
        <ele>67.8</ele>
        <time>2018-04-02T18:54:08Z</time>
      </trkpt>
      <trkpt lat="62.633440385727" lon="17.968735927369">
        <ele>67.4</ele>
        <time>2018-04-02T18:54:09Z</time>
      </trkpt>
      <trkpt lat="62.633448264713" lon="17.968685384512">
        <ele>67.4</ele>
        <time>2018-04-02T18:54:10Z</time>
      </trkpt>
      <trkpt lat="62.633454886414" lon="17.968634590198">
        <ele>67.2</ele>
        <time>2018-04-02T18:54:11Z</time>
      </trkpt>
      <trkpt lat="62.633462346305" lon="17.968576503631">
        <ele>67.2</ele>
        <time>2018-04-02T18:54:12Z</time>
      </trkpt>
      <trkpt lat="62.633469973834" lon="17.968522272738">
        <ele>67</ele>
        <time>2018-04-02T18:54:13Z</time>
      </trkpt>
      <trkpt lat="62.633478439553" lon="17.968469885863">
        <ele>67</ele>
        <time>2018-04-02T18:54:14Z</time>
      </trkpt>
      <trkpt lat="62.633486989091" lon="17.968410877287">
        <ele>66.8</ele>
        <time>2018-04-02T18:54:15Z</time>
      </trkpt>
      <trkpt lat="62.633493275516" lon="17.968366956131">
        <ele>66.6</ele>
        <time>2018-04-02T18:54:16Z</time>
      </trkpt>
      <trkpt lat="62.633498891389" lon="17.968322029147">
        <ele>66.4</ele>
        <time>2018-04-02T18:54:17Z</time>
      </trkpt>
      <trkpt lat="62.633508782031" lon="17.968257320879">
        <ele>66.2</ele>
        <time>2018-04-02T18:54:18Z</time>
      </trkpt>
      <trkpt lat="62.633515990465" lon="17.968204095814">
        <ele>66</ele>
        <time>2018-04-02T18:54:19Z</time>
      </trkpt>
      <trkpt lat="62.633525964926" lon="17.968151038387">
        <ele>65.6</ele>
        <time>2018-04-02T18:54:20Z</time>
      </trkpt>
      <trkpt lat="62.633534765921" lon="17.968099238245">
        <ele>65.4</ele>
        <time>2018-04-02T18:54:21Z</time>
      </trkpt>
      <trkpt lat="62.633539459785" lon="17.968043666248">
        <ele>65</ele>
        <time>2018-04-02T18:54:22Z</time>
      </trkpt>
      <trkpt lat="62.633546500581" lon="17.967994799771">
        <ele>65</ele>
        <time>2018-04-02T18:54:23Z</time>
      </trkpt>
      <trkpt lat="62.633554211929" lon="17.967934869186">
        <ele>64.6</ele>
        <time>2018-04-02T18:54:24Z</time>
      </trkpt>
      <trkpt lat="62.633560414535" lon="17.967890193659">
        <ele>64.4</ele>
        <time>2018-04-02T18:54:25Z</time>
      </trkpt>
      <trkpt lat="62.633566198046" lon="17.967832693825">
        <ele>64.2</ele>
        <time>2018-04-02T18:54:26Z</time>
      </trkpt>
      <trkpt lat="62.633576843059" lon="17.967780726045">
        <ele>64</ele>
        <time>2018-04-02T18:54:27Z</time>
      </trkpt>
      <trkpt lat="62.633584051493" lon="17.967722052745">
        <ele>64</ele>
        <time>2018-04-02T18:54:28Z</time>
      </trkpt>
      <trkpt lat="62.633590757013" lon="17.967671928983">
        <ele>63.8</ele>
        <time>2018-04-02T18:54:29Z</time>
      </trkpt>
      <trkpt lat="62.633599055094" lon="17.967610824932">
        <ele>63.6</ele>
        <time>2018-04-02T18:54:30Z</time>
      </trkpt>
      <trkpt lat="62.633605676795" lon="17.967561371722">
        <ele>63.4</ele>
        <time>2018-04-02T18:54:31Z</time>
      </trkpt>
      <trkpt lat="62.633609616288" lon="17.967514097806">
        <ele>63.4</ele>
        <time>2018-04-02T18:54:32Z</time>
      </trkpt>
      <trkpt lat="62.633616489446" lon="17.967455005411">
        <ele>63.2</ele>
        <time>2018-04-02T18:54:33Z</time>
      </trkpt>
      <trkpt lat="62.633622608233" lon="17.967400942156">
        <ele>63</ele>
        <time>2018-04-02T18:54:34Z</time>
      </trkpt>
      <trkpt lat="62.633627972649" lon="17.967351237489">
        <ele>62.8</ele>
        <time>2018-04-02T18:54:35Z</time>
      </trkpt>
      <trkpt lat="62.633635013445" lon="17.967283092642">
        <ele>62.6</ele>
        <time>2018-04-02T18:54:36Z</time>
      </trkpt>
      <trkpt lat="62.633639791128" lon="17.967233220337">
        <ele>62.6</ele>
        <time>2018-04-02T18:54:37Z</time>
      </trkpt>
      <trkpt lat="62.63364632901" lon="17.967184856774">
        <ele>62.2</ele>
        <time>2018-04-02T18:54:38Z</time>
      </trkpt>
      <trkpt lat="62.63365303453" lon="17.967124507094">
        <ele>62</ele>
        <time>2018-04-02T18:54:39Z</time>
      </trkpt>
      <trkpt lat="62.63366225462" lon="17.96708125649">
        <ele>61.6</ele>
        <time>2018-04-02T18:54:40Z</time>
      </trkpt>
      <trkpt lat="62.633669546873" lon="17.967031216547">
        <ele>61.6</ele>
        <time>2018-04-02T18:54:41Z</time>
      </trkpt>
      <trkpt lat="62.633680443343" lon="17.966985199916">
        <ele>61.2</ele>
        <time>2018-04-02T18:54:42Z</time>
      </trkpt>
      <trkpt lat="62.633690501623" lon="17.966930633747">
        <ele>61</ele>
        <time>2018-04-02T18:54:43Z</time>
      </trkpt>
      <trkpt lat="62.633695949858" lon="17.966877743958">
        <ele>60.8</ele>
        <time>2018-04-02T18:54:44Z</time>
      </trkpt>
      <trkpt lat="62.633701481912" lon="17.966817142821">
        <ele>60.6</ele>
        <time>2018-04-02T18:54:45Z</time>
      </trkpt>
      <trkpt lat="62.633709528536" lon="17.966766348507">
        <ele>60.4</ele>
        <time>2018-04-02T18:54:46Z</time>
      </trkpt>
      <trkpt lat="62.63371589878" lon="17.966717984944">
        <ele>60.2</ele>
        <time>2018-04-02T18:54:47Z</time>
      </trkpt>
      <trkpt lat="62.633726627612" lon="17.966660317472">
        <ele>59.8</ele>
        <time>2018-04-02T18:54:48Z</time>
      </trkpt>
      <trkpt lat="62.63373350077" lon="17.966605248389">
        <ele>59.8</ele>
        <time>2018-04-02T18:54:49Z</time>
      </trkpt>
      <trkpt lat="62.633739200462" lon="17.966552777695">
        <ele>59.4</ele>
        <time>2018-04-02T18:54:50Z</time>
      </trkpt>
      <trkpt lat="62.633746660353" lon="17.966505252322">
        <ele>59.4</ele>
        <time>2018-04-02T18:54:51Z</time>
      </trkpt>
      <trkpt lat="62.633758730289" lon="17.966460660614">
        <ele>59.2</ele>
        <time>2018-04-02T18:54:52Z</time>
      </trkpt>
      <trkpt lat="62.63376954294" lon="17.966415817449">
        <ele>59</ele>
        <time>2018-04-02T18:54:53Z</time>
      </trkpt>
      <trkpt lat="62.63379133588" lon="17.966376171062">
        <ele>58.8</ele>
        <time>2018-04-02T18:54:54Z</time>
      </trkpt>
      <trkpt lat="62.633819247607" lon="17.966354629579">
        <ele>58.6</ele>
        <time>2018-04-02T18:54:55Z</time>
      </trkpt>
      <trkpt lat="62.633846488782" lon="17.966347337326">
        <ele>58.4</ele>
        <time>2018-04-02T18:54:56Z</time>
      </trkpt>
      <trkpt lat="62.633875657794" lon="17.966335099752">
        <ele>58.2</ele>
        <time>2018-04-02T18:54:57Z</time>
      </trkpt>
      <trkpt lat="62.633905078263" lon="17.966337949598">
        <ele>58</ele>
        <time>2018-04-02T18:54:58Z</time>
      </trkpt>
      <trkpt lat="62.63393382818" lon="17.966340631806">
        <ele>57.8</ele>
        <time>2018-04-02T18:54:59Z</time>
      </trkpt>
      <trkpt lat="62.633966014676" lon="17.966333674829">
        <ele>57.4</ele>
        <time>2018-04-02T18:55:00Z</time>
      </trkpt>
      <trkpt lat="62.6339908251" lon="17.966334345381">
        <ele>57.4</ele>
        <time>2018-04-02T18:55:01Z</time>
      </trkpt>
      <trkpt lat="62.634012785678" lon="17.966343314014">
        <ele>57.2</ele>
        <time>2018-04-02T18:55:02Z</time>
      </trkpt>
      <trkpt lat="62.634038685749" lon="17.96636879499">
        <ele>57.2</ele>
        <time>2018-04-02T18:55:03Z</time>
      </trkpt>
      <trkpt lat="62.634059389042" lon="17.96639896983">
        <ele>57</ele>
        <time>2018-04-02T18:55:04Z</time>
      </trkpt>
      <trkpt lat="62.63407799686" lon="17.966435934009">
        <ele>57</ele>
        <time>2018-04-02T18:55:05Z</time>
      </trkpt>
      <trkpt lat="62.634096353221" lon="17.966476670043">
        <ele>57</ele>
        <time>2018-04-02T18:55:06Z</time>
      </trkpt>
      <trkpt lat="62.634114374306" lon="17.966506090512">
        <ele>57</ele>
        <time>2018-04-02T18:55:07Z</time>
      </trkpt>
      <trkpt lat="62.634136334884" lon="17.966536181533">
        <ele>57</ele>
        <time>2018-04-02T18:55:08Z</time>
      </trkpt>
      <trkpt lat="62.634160642394" lon="17.966565602002">
        <ele>57</ele>
        <time>2018-04-02T18:55:09Z</time>
      </trkpt>
      <trkpt lat="62.634182519153" lon="17.96658253344">
        <ele>57</ele>
        <time>2018-04-02T18:55:10Z</time>
      </trkpt>
      <trkpt lat="62.63420623993" lon="17.966598794326">
        <ele>57</ele>
        <time>2018-04-02T18:55:11Z</time>
      </trkpt>
      <trkpt lat="62.634233481105" lon="17.966623520931">
        <ele>57</ele>
        <time>2018-04-02T18:55:12Z</time>
      </trkpt>
      <trkpt lat="62.634255441683" lon="17.966648582812">
        <ele>57.2</ele>
        <time>2018-04-02T18:55:13Z</time>
      </trkpt>
      <trkpt lat="62.634278743365" lon="17.96667305796">
        <ele>57.2</ele>
        <time>2018-04-02T18:55:14Z</time>
      </trkpt>
      <trkpt lat="62.634303721427" lon="17.966701640239">
        <ele>57.2</ele>
        <time>2018-04-02T18:55:15Z</time>
      </trkpt>
      <trkpt lat="62.6343261011" lon="17.966731815079">
        <ele>57.2</ele>
        <time>2018-04-02T18:55:16Z</time>
      </trkpt>
      <trkpt lat="62.634347810221" lon="17.966747489232">
        <ele>57.2</ele>
        <time>2018-04-02T18:55:17Z</time>
      </trkpt>
      <trkpt lat="62.634377649785" lon="17.966761738462">
        <ele>57.2</ele>
        <time>2018-04-02T18:55:18Z</time>
      </trkpt>
      <trkpt lat="62.634397011974" lon="17.966777077339">
        <ele>57</ele>
        <time>2018-04-02T18:55:19Z</time>
      </trkpt>
      <trkpt lat="62.634426013348" lon="17.966794763148">
        <ele>57</ele>
        <time>2018-04-02T18:55:20Z</time>
      </trkpt>
      <trkpt lat="62.634451494324" lon="17.966793422044">
        <ele>57.2</ele>
        <time>2018-04-02T18:55:21Z</time>
      </trkpt>
      <trkpt lat="62.634480411879" lon="17.966794763148">
        <ele>57.2</ele>
        <time>2018-04-02T18:55:22Z</time>
      </trkpt>
      <trkpt lat="62.63450798833" lon="17.966802390677">
        <ele>57</ele>
        <time>2018-04-02T18:55:23Z</time>
      </trkpt>
      <trkpt lat="62.634532044383" lon="17.966802809772">
        <ele>57</ele>
        <time>2018-04-02T18:55:24Z</time>
      </trkpt>
      <trkpt lat="62.634556519531" lon="17.966801133392">
        <ele>57</ele>
        <time>2018-04-02T18:55:25Z</time>
      </trkpt>
      <trkpt lat="62.634584850353" lon="17.96679878646">
        <ele>57</ele>
        <time>2018-04-02T18:55:26Z</time>
      </trkpt>
      <trkpt lat="62.634608906406" lon="17.966789063456">
        <ele>56.8</ele>
        <time>2018-04-02T18:55:27Z</time>
      </trkpt>
      <trkpt lat="62.63463790778" lon="17.966780430099">
        <ele>56.8</ele>
        <time>2018-04-02T18:55:28Z</time>
      </trkpt>
      <trkpt lat="62.634663221118" lon="17.96677364076">
        <ele>56.8</ele>
        <time>2018-04-02T18:55:29Z</time>
      </trkpt>
      <trkpt lat="62.634687193352" lon="17.966764001575">
        <ele>56.6</ele>
        <time>2018-04-02T18:55:30Z</time>
      </trkpt>
      <trkpt lat="62.634716530002" lon="17.966764169213">
        <ele>56.4</ele>
        <time>2018-04-02T18:55:31Z</time>
      </trkpt>
      <trkpt lat="62.634742430073" lon="17.9667619061">
        <ele>56.4</ele>
        <time>2018-04-02T18:55:32Z</time>
      </trkpt>
      <trkpt lat="62.634770844714" lon="17.966759140073">
        <ele>56.4</ele>
        <time>2018-04-02T18:55:33Z</time>
      </trkpt>
      <trkpt lat="62.634797750613" lon="17.9667619061">
        <ele>56.2</ele>
        <time>2018-04-02T18:55:34Z</time>
      </trkpt>
      <trkpt lat="62.634821890485" lon="17.966758050426">
        <ele>56.2</ele>
        <time>2018-04-02T18:55:35Z</time>
      </trkpt>
      <trkpt lat="62.63484996985" lon="17.966756960779">
        <ele>56.2</ele>
        <time>2018-04-02T18:55:36Z</time>
      </trkpt>
      <trkpt lat="62.634875702283" lon="17.966756625503">
        <ele>56</ele>
        <time>2018-04-02T18:55:37Z</time>
      </trkpt>
      <trkpt lat="62.634903446372" lon="17.96674346592">
        <ele>56</ele>
        <time>2018-04-02T18:55:38Z</time>
      </trkpt>
      <trkpt lat="62.634930519909" lon="17.96674262773">
        <ele>56</ele>
        <time>2018-04-02T18:55:39Z</time>
      </trkpt>
      <trkpt lat="62.634957844903" lon="17.966744807024">
        <ele>55.8</ele>
        <time>2018-04-02T18:55:40Z</time>
      </trkpt>
      <trkpt lat="62.634980056938" lon="17.966740532255">
        <ele>55.8</ele>
        <time>2018-04-02T18:55:41Z</time>
      </trkpt>
      <trkpt lat="62.635008555398" lon="17.966740783712">
        <ele>55.8</ele>
        <time>2018-04-02T18:55:42Z</time>
      </trkpt>
      <trkpt lat="62.635034120193" lon="17.966741957178">
        <ele>55.6</ele>
        <time>2018-04-02T18:55:43Z</time>
      </trkpt>
      <trkpt lat="62.63505867916" lon="17.966736173667">
        <ele>55.6</ele>
        <time>2018-04-02T18:55:44Z</time>
      </trkpt>
      <trkpt lat="62.635088099629" lon="17.966736257486">
        <ele>55.4</ele>
        <time>2018-04-02T18:55:45Z</time>
      </trkpt>
      <trkpt lat="62.635112071863" lon="17.966731898898">
        <ele>55.4</ele>
        <time>2018-04-02T18:55:46Z</time>
      </trkpt>
      <trkpt lat="62.6351307635" lon="17.966727791767">
        <ele>55.4</ele>
        <time>2018-04-02T18:55:47Z</time>
      </trkpt>
      <trkpt lat="62.635156160657" lon="17.966718487858">
        <ele>55.4</ele>
        <time>2018-04-02T18:55:48Z</time>
      </trkpt>
      <trkpt lat="62.635171918629" lon="17.9666948509">
        <ele>55.2</ele>
        <time>2018-04-02T18:55:49Z</time>
      </trkpt>
      <trkpt lat="62.635191448456" lon="17.966675404892">
        <ele>55.2</ele>
        <time>2018-04-02T18:55:50Z</time>
      </trkpt>
      <trkpt lat="62.635212319387" lon="17.966664173146">
        <ele>55</ele>
        <time>2018-04-02T18:55:51Z</time>
      </trkpt>
      <trkpt lat="62.635226065703" lon="17.966658557273">
        <ele>54.8</ele>
        <time>2018-04-02T18:55:52Z</time>
      </trkpt>
      <trkpt lat="62.635239560562" lon="17.966656210341">
        <ele>54.8</ele>
        <time>2018-04-02T18:55:53Z</time>
      </trkpt>
      <trkpt lat="62.63525062467" lon="17.966643469853">
        <ele>54.6</ele>
        <time>2018-04-02T18:55:54Z</time>
      </trkpt>
      <trkpt lat="62.635268561936" lon="17.966659898377">
        <ele>54.6</ele>
        <time>2018-04-02T18:55:55Z</time>
      </trkpt>
      <trkpt lat="62.635294881102" lon="17.966680434032">
        <ele>54.8</ele>
        <time>2018-04-02T18:55:56Z</time>
      </trkpt>
      <trkpt lat="62.635313069825" lon="17.966691581959">
        <ele>55</ele>
        <time>2018-04-02T18:55:57Z</time>
      </trkpt>
      <trkpt lat="62.635334611308" lon="17.966710105958">
        <ele>55</ele>
        <time>2018-04-02T18:55:58Z</time>
      </trkpt>
      <trkpt lat="62.635359673189" lon="17.966725612473">
        <ele>55</ele>
        <time>2018-04-02T18:55:59Z</time>
      </trkpt>
      <trkpt lat="62.635384651251" lon="17.966745393757">
        <ele>55.2</ele>
        <time>2018-04-02T18:56:00Z</time>
      </trkpt>
      <trkpt lat="62.635407282381" lon="17.966755787313">
        <ele>55.2</ele>
        <time>2018-04-02T18:56:01Z</time>
      </trkpt>
      <trkpt lat="62.635431589891" lon="17.966774395131">
        <ele>55.2</ele>
        <time>2018-04-02T18:56:02Z</time>
      </trkpt>
      <trkpt lat="62.635452712279" lon="17.966784956325">
        <ele>55</ele>
        <time>2018-04-02T18:56:03Z</time>
      </trkpt>
      <trkpt lat="62.635471990649" lon="17.966790320741">
        <ele>55</ele>
        <time>2018-04-02T18:56:04Z</time>
      </trkpt>
      <trkpt lat="62.635481210739" lon="17.966781687384">
        <ele>55</ele>
        <time>2018-04-02T18:56:05Z</time>
      </trkpt>
      <trkpt lat="62.635487748621" lon="17.966753775657">
        <ele>55</ele>
        <time>2018-04-02T18:56:06Z</time>
      </trkpt>
      <trkpt lat="62.635500824385" lon="17.966726869758">
        <ele>54.8</ele>
        <time>2018-04-02T18:56:07Z</time>
      </trkpt>
      <trkpt lat="62.635524545162" lon="17.96669736547">
        <ele>54.8</ele>
        <time>2018-04-02T18:56:08Z</time>
      </trkpt>
      <trkpt lat="62.63554818212" lon="17.966673309417">
        <ele>55</ele>
        <time>2018-04-02T18:56:09Z</time>
      </trkpt>
      <trkpt lat="62.635563520997" lon="17.966650007735">
        <ele>55</ele>
        <time>2018-04-02T18:56:10Z</time>
      </trkpt>
      <trkpt lat="62.635582212634" lon="17.966627711881">
        <ele>55</ele>
        <time>2018-04-02T18:56:11Z</time>
      </trkpt>
      <trkpt lat="62.635600401357" lon="17.966604074923">
        <ele>55</ele>
        <time>2018-04-02T18:56:12Z</time>
      </trkpt>
      <trkpt lat="62.635611297827" lon="17.966569625314">
        <ele>55</ele>
        <time>2018-04-02T18:56:13Z</time>
      </trkpt>
      <trkpt lat="62.635626720523" lon="17.966537941732">
        <ele>54.6</ele>
        <time>2018-04-02T18:56:14Z</time>
      </trkpt>
      <trkpt lat="62.635642478495" lon="17.966516064973">
        <ele>54.2</ele>
        <time>2018-04-02T18:56:15Z</time>
      </trkpt>
      <trkpt lat="62.635658655562" lon="17.966496283689">
        <ele>54</ele>
        <time>2018-04-02T18:56:16Z</time>
      </trkpt>
      <trkpt lat="62.635669971127" lon="17.966485387219">
        <ele>54</ele>
        <time>2018-04-02T18:56:17Z</time>
      </trkpt>
      <trkpt lat="62.635675251724" lon="17.966484213753">
        <ele>53.6</ele>
        <time>2018-04-02T18:56:18Z</time>
      </trkpt>
      <trkpt lat="62.635691764067" lon="17.966464600107">
        <ele>53.4</ele>
        <time>2018-04-02T18:56:19Z</time>
      </trkpt>
      <trkpt lat="62.635702325261" lon="17.966448758316">
        <ele>53.2</ele>
        <time>2018-04-02T18:56:20Z</time>
      </trkpt>
      <trkpt lat="62.635715652482" lon="17.966398215459">
        <ele>53.4</ele>
        <time>2018-04-02T18:56:21Z</time>
      </trkpt>
      <trkpt lat="62.635728057694" lon="17.966345074213">
        <ele>53.6</ele>
        <time>2018-04-02T18:56:22Z</time>
      </trkpt>
      <trkpt lat="62.635738618888" lon="17.966305176369">
        <ele>53.8</ele>
        <time>2018-04-02T18:56:23Z</time>
      </trkpt>
      <trkpt lat="62.635749431539" lon="17.966263434507">
        <ele>54</ele>
        <time>2018-04-02T18:56:24Z</time>
      </trkpt>
      <trkpt lat="62.635755298869" lon="17.966199815886">
        <ele>54</ele>
        <time>2018-04-02T18:56:25Z</time>
      </trkpt>
      <trkpt lat="62.635766865891" lon="17.966168970494">
        <ele>54</ele>
        <time>2018-04-02T18:56:26Z</time>
      </trkpt>
      <trkpt lat="62.635783797329" lon="17.96613158722">
        <ele>54</ele>
        <time>2018-04-02T18:56:27Z</time>
      </trkpt>
      <trkpt lat="62.635805171174" lon="17.966095461231">
        <ele>53.8</ele>
        <time>2018-04-02T18:56:28Z</time>
      </trkpt>
      <trkpt lat="62.635823024621" lon="17.966065118753">
        <ele>53.4</ele>
        <time>2018-04-02T18:56:29Z</time>
      </trkpt>
      <trkpt lat="62.635841380982" lon="17.966031926429">
        <ele>53.4</ele>
        <time>2018-04-02T18:56:30Z</time>
      </trkpt>
      <trkpt lat="62.635864766483" lon="17.966000410485">
        <ele>53.2</ele>
        <time>2018-04-02T18:56:31Z</time>
      </trkpt>
      <trkpt lat="62.635879770084" lon="17.965969229817">
        <ele>53</ele>
        <time>2018-04-02T18:56:32Z</time>
      </trkpt>
      <trkpt lat="62.635900641015" lon="17.965927990869">
        <ele>53</ele>
        <time>2018-04-02T18:56:33Z</time>
      </trkpt>
      <trkpt lat="62.635924697068" lon="17.965898067486">
        <ele>52.8</ele>
        <time>2018-04-02T18:56:34Z</time>
      </trkpt>
      <trkpt lat="62.63594213142" lon="17.965858169642">
        <ele>52.8</ele>
        <time>2018-04-02T18:56:35Z</time>
      </trkpt>
      <trkpt lat="62.635960068686" lon="17.965818523255">
        <ele>52.6</ele>
        <time>2018-04-02T18:56:36Z</time>
      </trkpt>
      <trkpt lat="62.635979682332" lon="17.965780972343">
        <ele>52.6</ele>
        <time>2018-04-02T18:56:37Z</time>
      </trkpt>
      <trkpt lat="62.635999547435" lon="17.965734201341">
        <ele>52.6</ele>
        <time>2018-04-02T18:56:38Z</time>
      </trkpt>
      <trkpt lat="62.636013796665" lon="17.965693884402">
        <ele>52.4</ele>
        <time>2018-04-02T18:56:39Z</time>
      </trkpt>
      <trkpt lat="62.636032153026" lon="17.965654908567">
        <ele>52.4</ele>
        <time>2018-04-02T18:56:40Z</time>
      </trkpt>
      <trkpt lat="62.636048246274" lon="17.965609813945">
        <ele>52.4</ele>
        <time>2018-04-02T18:56:41Z</time>
      </trkpt>
      <trkpt lat="62.636063836608" lon="17.965580644933">
        <ele>52.2</ele>
        <time>2018-04-02T18:56:42Z</time>
      </trkpt>
      <trkpt lat="62.636080013675" lon="17.965537561967">
        <ele>52</ele>
        <time>2018-04-02T18:56:43Z</time>
      </trkpt>
      <trkpt lat="62.636094514362" lon="17.965494898096">
        <ele>52</ele>
        <time>2018-04-02T18:56:44Z</time>
      </trkpt>
      <trkpt lat="62.636110020877" lon="17.965463717428">
        <ele>51.8</ele>
        <time>2018-04-02T18:56:45Z</time>
      </trkpt>
      <trkpt lat="62.636133741654" lon="17.965441840669">
        <ele>51.6</ele>
        <time>2018-04-02T18:56:46Z</time>
      </trkpt>
      <trkpt lat="62.636144805762" lon="17.965422059385">
        <ele>51.6</ele>
        <time>2018-04-02T18:56:47Z</time>
      </trkpt>
      <trkpt lat="62.636155450775" lon="17.965409151259">
        <ele>51.4</ele>
        <time>2018-04-02T18:56:48Z</time>
      </trkpt>
      <trkpt lat="62.636160228458" lon="17.965366990302">
        <ele>51.2</ele>
        <time>2018-04-02T18:56:49Z</time>
      </trkpt>
      <trkpt lat="62.636167520711" lon="17.96533111577">
        <ele>51</ele>
        <time>2018-04-02T18:56:50Z</time>
      </trkpt>
      <trkpt lat="62.636176154068" lon="17.96529172084">
        <ele>50.8</ele>
        <time>2018-04-02T18:56:51Z</time>
      </trkpt>
      <trkpt lat="62.63619777937" lon="17.965249392245">
        <ele>50.4</ele>
        <time>2018-04-02T18:56:52Z</time>
      </trkpt>
      <trkpt lat="62.636208256745" lon="17.965217624844">
        <ele>50.2</ele>
        <time>2018-04-02T18:56:53Z</time>
      </trkpt>
      <trkpt lat="62.636223092708" lon="17.965169848014">
        <ele>49.8</ele>
        <time>2018-04-02T18:56:54Z</time>
      </trkpt>
      <trkpt lat="62.636236922843" lon="17.965126345953">
        <ele>49.6</ele>
        <time>2018-04-02T18:56:55Z</time>
      </trkpt>
      <trkpt lat="62.636251926444" lon="17.965088459765">
        <ele>49.4</ele>
        <time>2018-04-02T18:56:56Z</time>
      </trkpt>
      <trkpt lat="62.636265169846" lon="17.965049064835">
        <ele>49.2</ele>
        <time>2018-04-02T18:56:57Z</time>
      </trkpt>
      <trkpt lat="62.636278413248" lon="17.964994247209">
        <ele>49.2</ele>
        <time>2018-04-02T18:56:58Z</time>
      </trkpt>
      <trkpt lat="62.636289896451" lon="17.964946302741">
        <ele>49.2</ele>
        <time>2018-04-02T18:56:59Z</time>
      </trkpt>
      <trkpt lat="62.63630506769" lon="17.964896262798">
        <ele>49</ele>
        <time>2018-04-02T18:57:00Z</time>
      </trkpt>
      <trkpt lat="62.636326357716" lon="17.964850916719">
        <ele>49</ele>
        <time>2018-04-02T18:57:01Z</time>
      </trkpt>
      <trkpt lat="62.636342702421" lon="17.964809845409">
        <ele>49</ele>
        <time>2018-04-02T18:57:02Z</time>
      </trkpt>
      <trkpt lat="62.636364243904" lon="17.96476869028">
        <ele>49</ele>
        <time>2018-04-02T18:57:03Z</time>
      </trkpt>
      <trkpt lat="62.636384611921" lon="17.9647251044">
        <ele>49</ele>
        <time>2018-04-02T18:57:04Z</time>
      </trkpt>
      <trkpt lat="62.636400202255" lon="17.964691912076">
        <ele>48.8</ele>
        <time>2018-04-02T18:57:05Z</time>
      </trkpt>
      <trkpt lat="62.636423001023" lon="17.964660228494">
        <ele>48.8</ele>
        <time>2018-04-02T18:57:06Z</time>
      </trkpt>
      <trkpt lat="62.636444626325" lon="17.9646245216">
        <ele>48.8</ele>
        <time>2018-04-02T18:57:07Z</time>
      </trkpt>
      <trkpt lat="62.636464575247" lon="17.964585378127">
        <ele>48.8</ele>
        <time>2018-04-02T18:57:08Z</time>
      </trkpt>
      <trkpt lat="62.636486703463" lon="17.964546486111">
        <ele>48.6</ele>
        <time>2018-04-02T18:57:09Z</time>
      </trkpt>
      <trkpt lat="62.63651126243" lon="17.964516646547">
        <ele>48.4</ele>
        <time>2018-04-02T18:57:10Z</time>
      </trkpt>
      <trkpt lat="62.636530792257" lon="17.964487728992">
        <ele>48.4</ele>
        <time>2018-04-02T18:57:11Z</time>
      </trkpt>
      <trkpt lat="62.636553842482" lon="17.96446358912">
        <ele>48.4</ele>
        <time>2018-04-02T18:57:12Z</time>
      </trkpt>
      <trkpt lat="62.636580413105" lon="17.964436347945">
        <ele>48.2</ele>
        <time>2018-04-02T18:57:13Z</time>
      </trkpt>
      <trkpt lat="62.636601451674" lon="17.964414387367">
        <ele>48.2</ele>
        <time>2018-04-02T18:57:14Z</time>
      </trkpt>
      <trkpt lat="62.636621652053" lon="17.964394438445">
        <ele>48</ele>
        <time>2018-04-02T18:57:15Z</time>
      </trkpt>
      <trkpt lat="62.636648893228" lon="17.96437641736">
        <ele>48</ele>
        <time>2018-04-02T18:57:16Z</time>
      </trkpt>
      <trkpt lat="62.63666800396" lon="17.964367029632">
        <ele>47.8</ele>
        <time>2018-04-02T18:57:17Z</time>
      </trkpt>
      <trkpt lat="62.636689461624" lon="17.964348086538">
        <ele>47.8</ele>
        <time>2018-04-02T18:57:18Z</time>
      </trkpt>
      <trkpt lat="62.636714774962" lon="17.964334256403">
        <ele>47.6</ele>
        <time>2018-04-02T18:57:19Z</time>
      </trkpt>
      <trkpt lat="62.636736316445" lon="17.964332412385">
        <ele>47.6</ele>
        <time>2018-04-02T18:57:20Z</time>
      </trkpt>
      <trkpt lat="62.636758779937" lon="17.96432361139">
        <ele>47.6</ele>
        <time>2018-04-02T18:57:21Z</time>
      </trkpt>
      <trkpt lat="62.636785182922" lon="17.964313301653">
        <ele>47.8</ele>
        <time>2018-04-02T18:57:22Z</time>
      </trkpt>
      <trkpt lat="62.636808652242" lon="17.964302321364">
        <ele>47.6</ele>
        <time>2018-04-02T18:57:23Z</time>
      </trkpt>
      <trkpt lat="62.636836144874" lon="17.964290167609">
        <ele>47.8</ele>
        <time>2018-04-02T18:57:24Z</time>
      </trkpt>
      <trkpt lat="62.636863972782" lon="17.964279857872">
        <ele>47.6</ele>
        <time>2018-04-02T18:57:25Z</time>
      </trkpt>
      <trkpt lat="62.636884340799" lon="17.964267787936">
        <ele>47.6</ele>
        <time>2018-04-02T18:57:26Z</time>
      </trkpt>
      <trkpt lat="62.63690437354" lon="17.964253873982">
        <ele>47.4</ele>
        <time>2018-04-02T18:57:27Z</time>
      </trkpt>
      <trkpt lat="62.636926250299" lon="17.964229231196">
        <ele>47.4</ele>
        <time>2018-04-02T18:57:28Z</time>
      </trkpt>
      <trkpt lat="62.636942427366" lon="17.964200648917">
        <ele>47.4</ele>
        <time>2018-04-02T18:57:29Z</time>
      </trkpt>
      <trkpt lat="62.636962376288" lon="17.964173826837">
        <ele>47.4</ele>
        <time>2018-04-02T18:57:30Z</time>
      </trkpt>
      <trkpt lat="62.636988779273" lon="17.964154967562">
        <ele>47.4</ele>
        <time>2018-04-02T18:57:31Z</time>
      </trkpt>
      <trkpt lat="62.63700914729" lon="17.964141137427">
        <ele>47.4</ele>
        <time>2018-04-02T18:57:32Z</time>
      </trkpt>
      <trkpt lat="62.637030353497" lon="17.964126133826">
        <ele>47.2</ele>
        <time>2018-04-02T18:57:33Z</time>
      </trkpt>
      <trkpt lat="62.637053906636" lon="17.964103586515">
        <ele>47.2</ele>
        <time>2018-04-02T18:57:34Z</time>
      </trkpt>
      <trkpt lat="62.637075615757" lon="17.964102580687">
        <ele>47</ele>
        <time>2018-04-02T18:57:35Z</time>
      </trkpt>
      <trkpt lat="62.637099504172" lon="17.964121859057">
        <ele>46.8</ele>
        <time>2018-04-02T18:57:36Z</time>
      </trkpt>
      <trkpt lat="62.637122554397" lon="17.964134934821">
        <ele>46.8</ele>
        <time>2018-04-02T18:57:37Z</time>
      </trkpt>
      <trkpt lat="62.637148789744" lon="17.964149603146">
        <ele>46.6</ele>
        <time>2018-04-02T18:57:38Z</time>
      </trkpt>
      <trkpt lat="62.637169660675" lon="17.964161421625">
        <ele>46.6</ele>
        <time>2018-04-02T18:57:39Z</time>
      </trkpt>
      <trkpt lat="62.637192794719" lon="17.96416267891">
        <ele>46.4</ele>
        <time>2018-04-02T18:57:40Z</time>
      </trkpt>
      <trkpt lat="62.637217269867" lon="17.96413753321">
        <ele>46.2</ele>
        <time>2018-04-02T18:57:41Z</time>
      </trkpt>
      <trkpt lat="62.637238224617" lon="17.9641216076">
        <ele>46.2</ele>
        <time>2018-04-02T18:57:42Z</time>
      </trkpt>
      <trkpt lat="62.637261945394" lon="17.964102748325">
        <ele>46.2</ele>
        <time>2018-04-02T18:57:43Z</time>
      </trkpt>
      <trkpt lat="62.637288683655" lon="17.964071232381">
        <ele>46</ele>
        <time>2018-04-02T18:57:44Z</time>
      </trkpt>
      <trkpt lat="62.637308716396" lon="17.964054887676">
        <ele>46</ele>
        <time>2018-04-02T18:57:45Z</time>
      </trkpt>
      <trkpt lat="62.637335706114" lon="17.964031334537">
        <ele>45.8</ele>
        <time>2018-04-02T18:57:46Z</time>
      </trkpt>
      <trkpt lat="62.63735448157" lon="17.964028065596">
        <ele>45.8</ele>
        <time>2018-04-02T18:57:47Z</time>
      </trkpt>
      <trkpt lat="62.637381638926" lon="17.964036866591">
        <ele>45.6</ele>
        <time>2018-04-02T18:57:48Z</time>
      </trkpt>
      <trkpt lat="62.637402006943" lon="17.964060838825">
        <ele>45.4</ele>
        <time>2018-04-02T18:57:49Z</time>
      </trkpt>
    </trkseg>
  </trk>
</gpx>